     2.10           OBSERVATION DATA    G (GPS)             RINEX VERSION / TYPE
teqc 2000Jul20 Karen Wendt 20040524 22:44:04UTC             PGM / RUN BY / DATE
Linux 2.0.36|Pentium II|gcc -static|Linux|486/DX+           COMMENT
teqc 2000Jul20 Karen Wendt 20040524 22:44:03UTC             COMMENT
BIT 2 OF LLI FLAGS DATA COLLECTED UNDER A/S CONDITION       COMMENT
a300 A300_stmpd_D183_1934_USC&GS                            MARKER NAME
JMS USGS                                                    OBSERVER / AGENCY
ZE120023208 ASHTECH UZ-12 ZE00                              REC # / TYPE / VERS
CR520031626 ASH701945E_M NONE                               ANT # / TYPE
 -2484539.0000 -4316550.0000  3974406.0000                  APPROX POSITION XYZ
        0.5458        0.0000        0.0000                  ANTENNA: DELTA H/E/N
     1     1                                                WAVELENGTH FACT L1/2
     5    C1    L1    L2    P1    P2                        # / TYPES OF OBSERV
    30.0000                                                 INTERVAL
                                                            COMMENT
National Earthquake Hazard Reduction Program                COMMENT
Crustal Strain Project                                      COMMENT
345 Middlefield Road, MS/977                                COMMENT
U.S. Geological Survey, Menlo Park, California 94025        COMMENT
Contact: kwendt@usgs.gov (Ph: 650-329-4866)                 COMMENT
Antenna height is vertical to base of antenna               COMMENT
                                                            COMMENT
SNR is mapped to RINEX snr flag value [1-9]                 COMMENT
L1: 1 -> 1; 90 -> 5; 210 -> 9                               COMMENT
L2: 1 -> 1; 150 -> 5; 250 -> 9                              COMMENT
  2004     5    23    15    57   30.0000000     GPS         TIME OF FIRST OBS
                                                            END OF HEADER
 04  5 23 15 57 30.0000000  0  7G21G18G17G 5G 6G30G10
  22072564.413
  24058327.702    -1017690.94053   -786997.74552
  24058330.036                                                    24058325.754
  22072582.660     -808003.79653   -632756.02052                  22072586.757
  22072583.874
  24191863.490                                                    20402945.050
  21580618.283                                                    21694051.679
 04  5 23 15 58  0.0000000  0  7G21G18G17G 5G 6G30G10
  22060667.909     -895531.86653   -688651.29152  22060668.967    22060663.801
  24037473.201    -1127287.66743   -872397.76742  24037474.772    24037470.553
  22084297.755     -746450.48043   -584792.47242  22084299.569    22084296.834
  24212659.841     -695715.39853   -561677.07552  24212661.176    24212658.877
  20398934.737     -845731.05254   -657941.35352  20398935.835    20398931.374
  21595954.228     -730448.70453   -582610.14252  21595956.107    21595951.865
  21706804.847     -743154.56253   -592667.83752  21706805.252    21706802.105
 04  5 23 15 58 30.0000000  0  8G21G18G17G 5G 6G30G26G10
  22048871.344     -957520.60343   -736954.17542  22048872.633    22048867.580
  24016697.098    -1236465.05443   -957470.96842  24016698.953    24016695.259
  22096097.668     -684442.84143   -536474.86942  22096099.074    22096096.355
  24233520.339     -586092.74143   -476256.92142  24233521.736    24233519.173
  20395051.180     -866136.51344   -673841.72142  20395052.770    20395048.339
  21611422.085     -649164.08343   -519271.52242  21611424.032    21611419.778
  24058602.093     -939308.05753   -710366.95152  24058604.676    24058602.047
  21719706.604     -675354.87843   -539836.96342  21719707.400    21719703.799
 04  5 23 15 59  0.0000000  0  8G21G18G17G 5G 6G30G29G10
  22037115.354    -1019297.02643   -785091.65042  22037116.722    22037111.831
  23995943.188    -1345528.70843  -1042455.60842  23995944.893    23995941.208
  22107924.774     -622289.86743   -488044.04042  22107926.256    22107923.664
  24254384.519     -476449.76843   -390820.91642  24254385.799    24254383.535
  20391235.731     -886186.17544   -689464.85042  20391237.464    20391233.039
  21626961.901     -567501.23843   -455638.17942  21626963.905    21626959.688
  23776102.323    -1007762.66053   -780441.26252  23776104.370    23776103.646
  21732697.572     -607086.77243   -486641.09842  21732698.421    21732694.746
 04  5 23 15 59 30.0000000  0  8G21G18G17G 5G 6G30G29G10
  22025400.233    -1080861.58243   -833064.01242  22025401.421    22025396.445
  23975210.808    -1454476.88543  -1127350.25642  23975212.590    23975208.809
  22119779.609     -559993.07043   -439501.12442  22119780.945    22119778.287
  24275252.008     -366789.66243   -305371.55642  24275253.360    24275251.218
  20387488.249     -905878.78144   -704809.74342  20387490.067    20387485.676
  21642573.160     -485463.69743   -391712.87142  21642575.238    21642570.915
  23763421.702    -1074403.16543   -832368.83742  23763423.693    23763421.957
  21745776.975     -538353.42143   -433082.72442  21745778.045    21745774.313
 04  5 23 16  0  0.0000000  0  8G21G18G17G 5G 6G30G29G10
  22013725.142    -1142214.16043   -880871.21042  22013726.383    22013721.481
  23954500.932    -1563307.30643  -1212153.18442  23954502.765    23954498.903
  22131661.362     -497553.42943   -390846.93042  22131662.818    22131660.159
  24296122.445     -257114.95343   -219910.82642  24296123.797    24296121.605
  20383809.040     -925213.30144   -719875.62442  20383810.871    20383806.422
  21658255.155     -403053.97343   -327497.53842  21658257.317    21658252.984
  23750791.849    -1140773.88643   -884086.22442  23750793.968    23750791.867
  21758944.535     -469157.52543   -379163.89242  21758945.676    21758941.859
 04  5 23 16  0 30.0000000  0  8G21G18G17G 5G 6G30G29G10
  22002091.134    -1203350.64943   -928510.03042  22002092.400    22002087.645
  23933814.762    -1672013.45743  -1296859.21042  23933816.827    23933812.725
  22143570.976     -434967.77343   -342078.96042  22143572.477    22143569.897
  24316996.279     -147423.81043   -134437.29742  24316997.554    24316995.066
  20380199.058     -944184.03644   -734658.04242  20380200.936    20380196.444
  21674008.263     -320270.75543   -262991.19442  21674010.544    21674006.068
  23738214.572    -1206867.65643   -935587.76542  23738216.811    23738214.531
  21772200.391     -399497.42743   -324883.37042  21772201.595    21772197.734
 04  5 23 16  1  0.0000000  0  8G21G18G17G 5G 6G30G29G10
  21990496.822    -1264279.78443   -975987.26542  21990498.033    21990493.158
  23913150.926    -1780602.01043  -1381473.65142  23913152.803    23913149.002
  22155506.422     -372245.95443   -293204.89542  22155508.003    22155505.428
  24337870.754      -37728.12143    -48960.20942  24337872.019    24337869.355
  20376656.731     -962799.13744   -749163.31242  20376658.664    20376654.134
  21689830.399     -237125.84343   -198203.01442  21689832.632    21689828.100
  23725688.751    -1272690.72843   -986878.43542  23725691.128    23725688.671
  21785542.427     -329384.74543   -270250.14142  21785543.617    21785539.966
 04  5 23 16  1 30.0000000  0  8G21G18G17G 5G 6G30G29G10
  21978943.665    -1324991.99643  -1023295.47542  21978944.959    21978939.947
  23892511.860    -1889061.24643  -1465987.30242  23892513.854    23892510.285
  22167469.572     -309379.53443   -244218.14642  22167471.150    22167468.387
  24358747.180       71979.20743     36525.97042  24358748.441    24358746.030
  20373184.321     -981046.89644   -763382.35942  20373186.281    20373181.748
  21705722.308     -153612.53543   -133127.75042  21705724.622    21705720.304
  23713216.876    -1338230.49643  -1037948.29942  23713219.262    23713216.952
  21798971.916     -258812.45043   -215258.79742  21798973.052    21798969.472
 04  5 23 16  2  0.0000000  0  8G21G18G17G 5G 6G30G29G10
  21967430.760    -1385492.31943  -1070438.57142  21967432.109    21967427.104
  23871896.918    -1997393.98843  -1550402.44042  23871898.965    23871895.389
  22179459.084     -246374.39443   -195123.30542  22179460.738    22179457.865
  24379624.537      181690.74643    122015.42042  24379625.776    24379623.408
  20369781.047     -998931.52944   -777318.45042  20369783.007    20369778.469
  21721682.979      -69738.68343    -67771.53442  21721685.291    21721680.963
  23700798.484    -1403489.01943  -1088799.05642  23700800.790    23700798.794
  21812487.222     -187788.61843   -159915.62742  21812488.384    21812484.955
 04  5 23 16  2 30.0000000  0  9G21G18G17G 5G 6G30G29G26G10
  21955958.485    -1445779.14343  -1117415.30342  21955959.892    21955954.902
  23851306.512    -2105596.63743  -1634716.16242  23851308.584    23851305.017
  22191475.086     -183230.16343   -145920.05042  22191476.802    22191473.942
  24400502.379      291405.26243    207507.17442  24400503.562    24400501.398
  20366447.385    -1016450.46344   -790969.58242  20366449.319    20366444.791
  21737712.254       14494.53443     -2135.32242  21737714.525    21737709.939
  23688434.441    -1468462.10843  -1139427.37142  23688436.776    23688434.818
  23918555.888
  21826088.455     -116314.15943   -104221.31942  21826089.555    21826086.350
 04  5 23 16  3  0.0000000  0  9G21G18G17G 5G 6G30G29G26G10
  21944525.841    -1505858.00343  -1164229.98542  21944527.290    21944522.361
  23830740.447    -2213672.33043  -1718930.96142  23830742.368    23830738.834
  22203516.317     -119953.29743    -96613.46242  22203518.065    22203515.303
  24421378.860      401114.51343    292994.85942  24421380.167    24421378.443
  20363182.450    -1033607.60544   -804338.79142  20363184.423    20363179.956
  21753807.997       99078.68143     63774.35642  21753810.380    21753805.852
  23676124.251    -1533152.36243  -1189835.32442  23676126.673    23676124.589
  23901174.807    -1078621.14653   -836983.39552  23901174.590    23901172.931
  21839773.724      -44397.44743    -48182.40942  21839774.803    21839771.730
 04  5 23 16  3 30.0000000  0  9G21G18G17G 5G 6G30G29G26G10
  21933134.802    -1565718.26443  -1210874.33842  21933136.240    21933131.460
  23810200.613    -2321608.30743  -1803036.88442  23810202.578    23810199.310
  22215584.692      -56534.25143    -47196.06942  22215586.394    22215583.759
  24442256.399      510826.91343    378484.94942  24442257.567    24442256.121
  20359988.646    -1050391.23744   -817416.96142  20359990.662    20359986.173
  21769972.067      184021.49943    129963.50742  21769974.409    21769970.199
  23663870.407    -1597546.21343  -1240012.27742  23663872.775    23663870.860
  23883824.813    -1169788.73343   -908023.17442  23883825.606    23883824.735
  21853544.588       27969.48243      8207.35842  21853545.776    21853542.768
 04  5 23 16  4  0.0000000  0  9G21G18G17G 5G 6G30G29G26G10
  21921783.342    -1625370.73643  -1257356.77342  21921784.821    21921780.017
  23789686.110    -2429413.45343  -1887040.88942  23789687.947    23789684.695
  22227677.840        7015.15143      2322.89442  22227679.463    22227676.876
  24463132.040      620528.57243    463966.68042  24463133.237    24463131.879
  20356864.119    -1066810.71644   -830211.36942  20356866.146    20356861.679
  21786201.838      269309.12343    196421.31042  21786204.141    21786200.012
  23651671.444    -1661651.86843  -1289964.70042  23651673.807    23651671.956
  23866505.736    -1260798.40643   -978939.79042  23866507.803    23866506.312
  21867398.748      100772.81643     64937.16742  21867399.891    21867396.959
 04  5 23 16  4 30.0000000  0  9G21G18G17G 5G 6G30G29G26G10
  21910473.348    -1684804.24743  -1303668.59542  21910474.954    21910470.277
  23769199.111    -2537074.30143  -1970932.42142  23769200.850    23769197.522
  22239797.690       70704.88343     51951.20542  22239799.247    22239796.724
  24484007.132      730228.28643    549446.89042  24484008.546    24484007.270
  20353811.208    -1082854.02144   -842712.66142  20353813.230    20353808.765
  21802498.728      354949.88343    263154.33242  21802500.984    21802496.945
  23639530.022    -1725455.41543  -1339681.72342  23639532.314    23639530.559
  23849219.890    -1351635.44243  -1049721.92042  23849222.147    23849220.542
  21881337.367      174021.09743    122013.67442  21881338.549    21881335.819
 04  5 23 16  5  0.0000000  0  9G21G18G17G 5G 6G30G29G26G10
  21899203.519    -1744028.73144  -1349817.54442  21899205.052    21899200.240
  23748737.967    -2644598.74043  -2054717.68142  23748739.729    23748736.385
  22251942.179      134524.22443    101680.49042  22251943.726    22251941.291
  24504879.481      839913.48543    634915.80942  24504881.055    24504879.705
  20350828.242    -1098529.77444   -854927.55542  20350830.270    20350825.789
  21818860.401      440930.89743    330152.45642  21818862.653    21818858.651
  23627445.016    -1788963.66043  -1389168.64242  23627447.256    23627445.167
  23831966.035    -1442306.23143  -1120374.53342  23831968.213    23831966.523
  21895358.353      247701.57143    179426.97042  21895359.517    21895356.754
 04  5 23 16  5 30.0000000  0  9G21G18G17G 5G 6G30G29G26G10
  21887974.426    -1803038.01543  -1395798.78242  21887976.099    21887971.056
  23728304.330    -2751978.28043  -2138390.02942  23728306.108    23728302.929
  22264112.376      198478.50243    151514.90542  22264113.801    22264111.471
  24525749.811      949588.09543    720376.46142  24525751.246    24525750.048
  20347916.666    -1113830.27344   -866850.03442  20347918.691    20347914.217
  21835287.606      527255.56843    397418.36842  21835289.833    21835285.749
  23615417.618    -1852167.78143  -1438418.55342  23615419.883    23615417.626
  23814745.596    -1532800.99043  -1190889.98642  23814747.893    23814745.761
  21909462.172      321817.67643    237179.71642  21909463.328    21909460.573
 04  5 23 16  6  0.0000000  0  9G21G18G17G 5G 6G30G29G26G10
  21876785.726    -1861834.61443  -1441614.33042  21876787.412    21876782.506
  23707898.199    -2859213.27443  -2221949.71142  23707899.925    23707896.980
  22276307.596      262563.68743    201451.37042  22276308.943    22276306.445
  24546617.094     1059246.55843    805824.50142  24546618.527    24546617.318
  20345076.168    -1128757.23444   -878481.43942  20345078.202    20345073.763
  21851779.025      613918.36143    464947.75542  21851781.284    21851777.327
  23603448.153    -1915067.68343  -1487431.45042  23603450.407    23603448.165
  23797558.351    -1623119.16343  -1261267.79542  23797560.738    23797558.903
  21923647.787      396363.72843    295267.46242  21923648.948    21923646.272
 04  5 23 16  6 30.0000000  0  9G21G18G17G 5G 6G30G29G26G10
  21865637.720    -1920417.34543  -1487263.21042  21865639.420    21865634.723
  23687520.230    -2966300.21343  -2305394.06942  23687521.988    23687519.082
  22288527.874      326780.55543    251490.40242  22288529.114    22288526.543
  24567481.751     1168887.66243    891259.03142  24567482.915    24567481.326
  20342307.352    -1143307.73544   -889819.49142  20342309.358    20342304.963
  21868334.249      700917.68543    532739.39242  21868336.562    21868332.736
  23591537.410    -1977659.31343  -1536204.13142  23591539.635    23591537.338
  23780406.025    -1713255.71243  -1331504.14342  23780408.323    23780406.850
  21937915.162      471338.76043    353689.49942  21937916.295    21937913.635
 04  5 23 16  7  0.0000000  0  9G21G18G17G 5G 6G30G29G26G10
  21854530.971    -1978784.12843  -1532743.80242  21854532.578    21854527.724
  23667171.243    -3073234.98543  -2388719.78742  23667172.981    23667169.802
  22300773.224      391129.93743    301632.74542  22300774.464    22300771.921
  24588342.446     1278511.04543    976679.76842  24588343.717    24588342.320
  20339610.658    -1157478.99644   -900862.05142  20339612.625    20339608.325
  21884953.658      788252.54843    600792.46142  21884955.907    21884951.941
  23579686.169    -2039937.53243  -1584732.56642  23579688.446    23579686.149
  23763289.231    -1803204.91243  -1401594.50042  23763291.465    23763289.916
  21952263.820      546741.79343    412445.03942  21952265.048    21952262.418
 04  5 23 16  7 30.0000000  0  9G21G18G17G 5G 6G30G29G26G10
  21843464.349    -2036939.47343  -1578059.66542  21843465.968    21843461.072
  23646850.562    -3180020.07443  -2471928.94042  23646852.444    23646849.319
  22313042.861      455606.33143    351873.99642  22313043.984    22313041.435
  24609198.530     1388109.57543   1062081.05842  24609199.821    24609198.235
  20336985.507    -1171273.95644   -911611.37142  20336987.491    20336983.308
  21901635.576      875915.59043    669101.27542  21901637.813    21901633.711
  23567894.219    -2101904.32543  -1633018.36642  23567896.520    23567894.333
  23746207.248    -1892968.26053  -1471539.94052  23746209.742    23746208.740
  21966692.700      622565.19743    471528.13442  21966693.854    21966691.015
 04  5 23 16  8  0.0000000  0  9G21G18G17G 5G 6G30G29G26G10
  21832438.840    -2094878.81243  -1623207.21142  21832440.416    21832435.734
  23626559.663    -3286649.08843  -2555016.41942  23626561.516    23626558.506
  22325337.427      520213.17443    402216.92742  22325338.314    22325335.823
  24630049.866     1497684.63443   1147464.12542  24630051.642    24630049.457
  20334433.059    -1184687.27344   -922063.32242  20334435.014    20334430.876
  21918380.001      963908.02843    737666.72842  21918382.300    21918378.243
  23556162.819    -2163552.46043  -1681055.81942  23556165.063    23556163.210
  23729163.153    -1982537.32953  -1541334.02452  23729165.513    23729164.544
  21981201.742      698810.79943    530940.25242  21981202.952    21981200.046
 04  5 23 16  8 30.0000000  0  9G21G18G17G 5G 6G30G29G26G10
  21821453.538    -2152606.78343  -1668190.02742  21821455.049    21821450.354
  23606298.069    -3393124.23543  -2637984.03842  23606299.940    23606296.668
  22337655.611      584945.01143    452657.22442  22337656.372    22337653.887
  24650895.230                     1232823.54852  24650895.416
  20331952.562    -1197722.24544   -932220.46042  20331954.536    20331950.405
  21935185.688     1052222.69043    806483.30342  21935188.040    21935184.142
  23544491.848    -2224883.83743  -1728846.47042  23544494.062    23544492.043
  23712155.859    -2071913.50643  -1610977.70742  23712158.241    23712156.735
  21995789.722      775471.31943    590675.61742  21995790.812    21995787.925
 04  5 23 16  9  0.0000000  0  9G21G18G17G 5G 6G30G29G26G10
  21810508.421    -2210123.95243  -1713008.60942  21810509.828    21810505.109
  23586066.223    -3499443.44243  -2720830.14342  23586068.095    23586064.544
  22349997.425      649800.65743    503194.03742  22349998.093    22349995.620
  24671734.768                     1716741.29553  24671736.720
  20329544.283    -1210377.98244   -942082.08742  20329546.244    20329542.131
  21952052.213     1140856.10243    875548.22542  21952054.561    21952050.615
  23532881.416    -2285895.88943  -1776388.23642  23532883.709    23532881.759
  23695185.427    -2161093.50443  -1680468.60142  23695187.921    23695186.070
  22010456.165      852543.63443    650731.88642  22010457.193    22010454.407
 04  5 23 16  9 30.0000000  0  9G21G18G17G 5G 6G30G29G26G10
  21799605.158    -2267420.40243  -1757655.20642  21799606.598    21799602.005
  23565866.078    -3605595.12743  -2803545.69542  23565868.071    23565864.249
  22362364.367      714788.63943    553833.96142  22362364.937    22362362.592
  24692569.303                     1826227.34043  24692571.268
  20327210.218    -1222643.57844   -951639.70742  20327212.179    20327208.038
  21968980.560     1229815.04943    944866.81542  21968982.899    21968979.095
  23521334.347    -2346576.37343  -1823671.67642  23521336.587    23521334.532
  23678255.001    -2250064.26343  -1749796.43242  23678257.437    23678255.627
  22025202.380      930034.47443    711114.29142  22025203.285    22025200.509
 04  5 23 16 10  0.0000000  0  8G21G18G17G 6G30G29G26G10
  21788742.875    -2324502.39343  -1802134.67642  21788744.235    21788739.730
  23545697.184    -3711583.51443  -2886133.98642  23545699.202    23545695.405
  22374754.974      779901.94143    604571.51842  22374755.579    22374753.298
  20324949.470    -1234524.03744   -960897.21742  20324951.420    20324947.217
  21985969.206     1319090.34943   1014431.93942  21985971.430    21985967.691
  23509849.883    -2406928.76143  -1870699.48742  23509852.028    23509849.997
  23661363.722    -2338828.39743  -1818963.26642  23661366.126    23661364.340
  22040026.271     1007934.79643    771815.77342  22040027.324    22040024.507
 04  5 23 16 10 30.0000000  0  8G21G18G17G 6G30G29G26G10
  21777921.071    -2381371.54543  -1846448.30842  21777922.463    21777917.831
  23525559.593    -3817407.82543  -2968594.45642  23525561.495    23525557.942
  22387169.169      845138.05343    655404.78542  22387169.662    22387167.507
  20322761.877    -1246019.96144   -969855.08442  20322763.824    20322759.576
  22003017.081     1408677.25743   1084239.84542  22003019.309    22003015.546
  23498427.979    -2466951.66543  -1917470.54942  23498430.150    23498427.733
  23644512.276    -2427383.88643  -1887967.49742  23644514.532    23644512.581
  22054927.482     1086240.15743    832832.83742  22054928.426    22054925.585
 04  5 23 16 11  0.0000000  0  8G21G18G17G 6G30G29G26G10
  21767139.862    -2438027.27243  -1890595.60742  21767141.347    21767136.555
  23505453.428    -3923064.93543  -3050924.62742  23505455.442    23505451.947
  22399606.565      910496.93043    706333.71242  22399607.136    22399604.898
  20320647.887    -1257129.39544   -978511.79642  20320649.828    20320645.507
  22020123.990     1498574.12843   1154289.30442  22020126.219    22020122.432
  23487069.371    -2526641.62243  -1963982.11642  23487071.586    23487068.912
  23627701.271    -2515726.46143  -1956805.83742  23627703.681    23627701.436
  22069905.428     1164948.50243    894163.98942  22069906.446    22069903.393
 04  5 23 16 11 30.0000000  0  8G21G18G17G 6G30G29G26G10
  21756399.797    -2494466.22943  -1934574.02642  21756401.321    21756396.504
  23485380.255    -4028550.33343  -3133120.99342  23485382.080    23485378.516
  22412067.763      975980.19743    757359.56142  22412068.288    22412065.964
  20318608.267    -1267847.63244   -986863.68042  20318610.240    20318605.895
  22037289.703     1588780.12543   1224579.63342  22037291.916    22037287.988
  23475775.116    -2585993.38643  -2010230.20142  23475777.360    23475774.415
  23610931.987    -2603850.08043  -2025473.50942  23610934.639    23610931.975
  22084959.643     1244059.58343    955808.91842  22084960.755    22084957.767
 04  5 23 16 12  0.0000000  0  8G21G18G17G 6G30G29G26G10
  21745700.252    -2550692.75943  -1978386.89542  21745701.801    21745697.018
  23465339.523    -4133865.54143  -3215184.76942  23465341.246    23465337.713
  22424551.657     1041583.31243    808478.79342  22424552.198    22424549.906
  20316642.384    -1278178.40344   -994913.63842  20316644.355    20316640.032
  22054512.888     1679288.77043   1295105.79542  22054515.081    22054511.109
  23464545.028    -2645007.96043  -2056215.53942  23464547.254    23464544.143
  23594204.233    -2691754.69443  -2093970.53342  23594206.953    23594203.981
  22100089.145     1323566.90643   1017762.58542  22100090.334    22100087.718
 04  5 23 16 12 30.0000000  0  8G21G18G17G 6G30G29G26G10
  21735041.859    -2606702.59443  -2022030.90842  21735043.405    21735038.823
  23445332.199    -4239003.98343  -3297110.78242  23445334.081    23445330.641
  22437058.879     1107309.59843    859693.99642  22437059.523    22437057.294
  20314751.303    -1288116.18044  -1002657.37642  20314753.281    20314748.991
  22071793.948     1770101.19443   1365868.65842  22071796.146    22071792.133
  23453380.388    -2703678.32043  -2101932.69742  23453382.629    23453379.400
  23577519.420    -2779432.53543  -2162290.86642  23577522.231    23577519.454
  22115294.493     1403471.92143   1080026.17842  22115295.735    22115293.301
 04  5 23 16 13  0.0000000  0  8G21G18G17G 6G30G29G26G10
  21724424.496    -2662497.13143  -2065507.17142  21724426.020    21724421.488
  23425358.926    -4343964.62143  -3378898.27242  23425360.748    23425357.224
  22449589.371     1173157.19643    911003.71242  22449590.035    22449587.703
  20312935.187    -1297660.24444  -1010094.31342  20312937.160    20312932.843
  22089132.231     1861213.67743   1436865.35542  22089134.416    22089130.354
  23442281.569    -2762002.90643  -2147380.34442  23442283.779    23442280.736
  23560878.684    -2866881.32643  -2230432.74942  23560881.334    23560878.690
  22130575.104     1483770.63843   1142596.54942  22130576.235    22130573.727
 04  5 23 16 13 30.0000000  0  8G21G18G17G 6G30G29G26G10
  21713847.798    -2718078.21743  -2108817.08442  21713849.304    21713844.616
  23405419.277    -4448748.33743  -3460547.88342  23405421.065    23405417.351
  22462142.138     1239122.12543    962404.90442  22462142.848    22462140.474
  20311193.565    -1306812.86644  -1017226.23942  20311195.545    20311191.210
  22106526.382     1952620.01543   1508091.01642  22106528.604    22106524.491
  23431248.448    -2819981.93543  -2192558.75342  23431250.783    23431247.754
  23544281.516    -2954100.39643  -2298395.59542  23544284.055    23544281.668
  22145929.399     1564457.26443   1205469.18342  22145930.636    22145928.154
 04  5 23 16 14  0.0000000  0  8G21G18G17G 6G30G29G26G10
  21703311.893    -2773445.25343  -2151960.22742  21703313.372    21703308.627
  23385513.634    -4553351.48043  -3542056.80542  23385515.622    23385511.768
  22474717.346     1305205.17643   1013898.11542  22474717.981    22474715.779
  20309526.943    -1315571.30344  -1024051.00542  20309528.933    20309524.541
  22123975.969     2044318.87743   1579544.61642  22123978.330    22123974.234
  23420281.967    -2877611.22743  -2237464.61542  23420284.347    23420281.439
  23527729.014    -3041084.63843  -2366175.46842  23527731.535    23527728.954
  22161357.241     1645530.67043   1268643.16942  22161358.469    22161356.218
 04  5 23 16 14 30.0000000  0  8G21G18G17G 6G30G29G26G10
  21692816.855    -2828597.54043  -2194936.00042  21692818.355    21692813.408
  23365643.320    -4657771.20743  -3623422.76242  23365645.181    23365641.355
  22487314.847     1371405.97643   1065483.07342  22487315.479    22487313.328
  20307935.592    -1323933.93144  -1030567.34642  20307937.600    20307933.231
  22141480.738     2136307.64643   1651224.13942  22141483.149    22141479.164
  23409382.362    -2934887.62243  -2282095.56342  23409384.733    23409382.204
  23511221.765    -3127830.11043  -2433769.30442  23511224.328    23511221.741
  22176858.203     1726988.36143   1332116.62042  22176859.444    22176857.184
 04  5 23 16 15  0.0000000  0  8G21G18G17G 6G30G29G26G10
  21682363.097    -2883531.71243  -2237741.83542  21682364.629    21682359.839
  23345808.959    -4762002.52043  -3704641.95842  23345810.757    23345806.875
  22499935.135     1437726.72843   1117161.51142  22499935.850    22499933.721
  20306420.400    -1331896.36144  -1036771.84042  20306422.416    20306418.065
  22159041.092     2228586.66943   1723129.81242  22159043.385    22159039.298
  23398551.429    -2991805.27843  -2326446.91742  23398553.711    23398551.120
  23494761.314    -3214329.97243  -2501171.74742  23494763.884    23494761.547
  22192431.999     1808830.61443   1395889.71742  22192433.256    22192431.294
 04  5 23 16 15 30.0000000  0  8G21G18G17G 6G30G29G26G10
  21671949.368    -2938256.47243  -2280384.51042  21671950.849    21671946.046
  23326008.961    -4866051.91843  -3785719.36542  23326010.780    23326006.906
  22512576.790     1504157.99643   1168926.01242  22512577.451    22512575.403
  20304979.907    -1339466.44344  -1042670.61042  20304981.898    20304977.558
  22176654.282     2321143.99143   1795252.32742  22176656.688    22176652.578
  23387787.435    -3048370.36343  -2370523.53042  23387789.711    23387787.194
  23478346.544    -3300589.60443  -2568386.97342  23478349.088    23478346.766
  22208077.169     1891045.61243   1459953.30342  22208078.472    22208076.402
 04  5 23 16 16  0.0000000  0  8G21G18G17G 6G30G29G26G10
  21661577.698    -2992759.73343  -2322854.56842  21661579.251    21661574.307
  23306246.041    -4969905.20843  -3866643.98242  23306248.028    23306244.373
  22525241.435     1570711.17743   1220785.56642  22525242.247    22525240.172
  20303616.687    -1346630.36644  -1048252.89742  20303618.728    20303614.334
  22194321.940     2413989.07043   1867599.08642  22194324.319    22194320.501
  23377093.361    -3104567.79743  -2414313.69642  23377095.548    23377093.233
  23461980.439    -3386593.04243  -2635402.59742  23461982.926    23461980.543
  22223794.908     1973642.82643   1524314.69742  22223796.097    22223794.123
 04  5 23 16 16 30.0000000  0  8G21G18G17G 6G30G29G26G10
  21651246.426    -3047051.08043  -2365159.50042  21651247.971    21651243.072
  23286519.480    -5073569.81243  -3947421.54342  23286521.366    23286517.774
  22537927.277     1637375.50943   1272731.70942  22537928.155    22537926.172
  20302329.017    -1353397.22044  -1053525.78142  20302331.045    20302326.667
  22212042.335     2507108.97943   1940159.98942  22212044.519    22212040.769
  23366467.874    -3160404.89243  -2457823.04842  23366470.072    23366467.484
  23445662.044    -3472346.71043  -2702223.63242  23445664.545    23445662.089
  22239583.321     2056609.82943   1588964.28142  22239584.441    22239582.184
 04  5 23 16 17  0.0000000  0  8G21G18G17G 6G30G29G26G10
  21640956.397    -3101125.32043  -2407295.28742  21640957.975    21640953.092
  23266829.984    -5177038.22943  -4028046.26142  23266831.990    23266828.376
  22550635.098     1704155.54943   1324768.05142  22550636.149    22550634.122
  20301118.049    -1359760.82744  -1058484.43942  20301120.060    20301115.690
  22229815.330     2600506.31643   2012937.08442  22229817.585    22229813.807
  23355912.433    -3215873.72743  -2501045.46842  23355914.740    23355911.791
  23429392.744    -3557841.76743  -2768843.09742  23429395.177    23429393.009
  22255442.429     2139948.91643   1653903.67542  22255443.496    22255441.138
 04  5 23 16 17 30.0000000  0  8G21G18G17G 6G30G29G26G10
  21630706.917    -3154986.23243  -2449264.83542  21630708.512    21630703.597
  23247177.462    -5280311.90043  -4108519.20342  23247179.462    23247175.967
  22563364.168     1771047.15643   1376891.31642  22563365.317    22563363.259
  20299983.446    -1365722.92244  -1063130.23442  20299985.477    20299981.151
  22247639.898     2694174.19443   2085924.98442  22247642.134    22247638.225
  23345426.909    -3270975.07743  -2543981.53142  23345429.240    23345426.431
  23413172.533    -3643077.84343  -2835260.79242  23413174.888    23413173.096
  22271371.161     2223653.89343   1719128.20442  22271372.305    22271369.317
 04  5 23 16 18  0.0000000  0  8G21G18G17G 6G30G29G26G10
  21620497.831    -3208635.93943  -2491069.79042  21620499.367    21620494.357
  23227562.296    -5383391.06843  -4188840.60442  23227564.055    23227560.484
  22576113.936     1838046.86743   1429098.79342  22576115.086    22576112.821
  20298924.918    -1371285.33444  -1067464.59042  20298926.945    20298922.667
  22265514.907     2788107.43243   2159119.65742  22265517.194    22265513.208
  23335011.380    -3325708.91743  -2586631.29842  23335013.721    23335010.760
  23397002.117    -3728054.06743  -2901475.96242  23397004.380    23397002.611
  22287368.644     2307719.41243   1784633.72442  22287369.901    22287365.778
 04  5 23 16 18 30.0000000  0  8G21G18G17G 6G30G29G26G10
  21610329.734    -3262068.88743  -2532705.83242  21610331.297    21610326.442
  23207985.424    -5486268.44543  -4269004.74042  23207987.151    23207983.460
  22588885.140     1905159.20543   1481394.06842  22588886.189    22588883.838
  20297943.743    -1376441.37144  -1071482.29042  20297945.750    20297941.531
  22283440.835     2882308.17243   2232522.76542  22283443.135    22283439.102
  23324667.423    -3380067.36043  -2628988.45042  23324669.785    23324666.404
  23380882.821    -3812761.63943  -2967481.82142  23380885.067    23380883.279
  22303435.379     2392147.50553   1850421.78052  22303436.974    22303431.766
 04  5 23 16 19  0.0000000  0  7G21G18G17G 6G30G29G26
  21600202.069    -3315290.72843  -2574177.41342  21600203.602    21600198.657
  23188446.462    -5588946.93543  -4349013.92442  23188448.129    23188444.530
  22601676.299     1972378.17243   1533772.42042  22601677.374    22601675.074
  20297038.993    -1381195.44244  -1075186.77142  20297041.026    20297036.913
  22301415.938     2976768.38043   2306128.07942  22301418.266    22301414.324
  23314393.906    -3434053.09043  -2671055.19642  23314396.270    23314393.172
  23364814.131    -3897202.19043  -3033279.61042  23364816.442    23364814.876
 04  5 23 16 19 30.0000000  0  7G21G18G17G 6G30G29G26
  21590116.381    -3368291.46543  -2615476.67542  21590117.930    21590112.951
  23168947.298    -5691414.93643  -4428859.09842  23168949.144    23168945.590
  22614489.827     2039712.81643   1586240.88542  22614490.795    22614488.317
  20296212.867    -1385536.60544  -1078569.50742  20296214.904    20296210.855
  22319441.877     3071494.66643   2379940.71442  22319444.158    22319440.233
  23304194.092    -3487653.60243  -2712821.79942  23304196.412    23304193.428
  23348799.100    -3981362.27043  -3098858.86942  23348801.286    23348799.760
 04  5 23 16 20  0.0000000  0  7G21G18G17G 6G30G29G26
  21580072.472    -3421071.27543  -2656603.79842  21580074.146    21580069.377
  23149488.614    -5793669.87843  -4508538.22442  23149490.574    23149487.062
  22627325.177     2107162.67143   1638799.14442  22627326.159    22627323.371
  20295465.638    -1389463.56544  -1081629.48142  20295467.638    20295463.606
  22337517.951     3166484.35343   2453958.59942  22337520.174    22337516.270
  23294068.002    -3540865.87243  -2754285.87042  23294070.403    23294067.486
  23332837.978    -4065238.06743  -3164216.55242  23332840.178    23332838.828
 04  5 23 16 20 30.0000000  0  7G21G18G17G 6G30G29G26
  21570069.364    -3473638.51843  -2697565.26242  21570070.936    21570066.293
  23130069.290    -5895718.80343  -4588056.84142  23130071.290    23130067.716
  22640180.538     2174717.71143   1691439.34542  22640181.537    22640178.672
  20294795.654    -1392984.35844  -1084372.96342  20294797.690    20294793.629
  22355641.544     3261725.29643   2528172.25442  22355643.755    22355640.092
  23284014.816    -3593696.90143  -2795452.84242  23284017.157    23284014.101
  23316929.961    -4148835.41843  -3229357.28342  23316932.169    23316930.594
 04  5 23 16 21  0.0000000  0  8G21G18G17G 6G30G29G26G10
  21560107.311    -3525989.67143  -2738358.37142  21560108.910    21560104.200
  23110690.387    -5997555.36843  -4667409.96942  23110692.312    23110688.823
  22653056.533     2242381.49043   1744164.27942  22653057.508    22653054.732
  20294204.014    -1396093.76044  -1086795.87942  20294206.006    20294201.904
  22373813.327     3357218.77343   2602582.72142  22373815.597    22373811.952
  23274035.222    -3646139.62343  -2836317.24642  23274037.630    23274034.451
  23301076.500    -4232146.35943  -3294274.85442  23301078.755    23301076.988
  22384783.976
 04  5 23 16 21 30.0000000  0  8G21G18G17G 6G30G29G26G10
  21550187.250    -3578119.39143  -2778978.91442  21550188.924    21550184.093
  23091353.360    -6099172.36643  -4746591.98642  23091355.267    23091351.862
  22665954.200     2310158.50343   1796977.46942  22665955.156    22665952.163
  20293691.728    -1398785.68244  -1088893.49342  20293693.748    20293689.616
  22392033.706     3452966.77243   2677191.48442  22392035.926    22392032.254
  23264130.967    -3698186.64243  -2876873.32942  23264133.372    23264130.136
  23285279.060    -4315162.23243  -3358962.44242  23285281.379    23285279.653
  22401252.992    -1355552.20153  -1074110.53752  22401254.137    22401250.450
 04  5 23 16 22  0.0000000  0  8G21G18G17G 6G30G29G26G10
  21540308.045    -3630034.54543  -2819432.28042  21540309.786    21540304.970
  23072057.361    -6200574.79643  -4825606.81742  23072059.275    23072055.515
  22678871.741     2378040.84943   1849872.73542  22678872.821    22678869.870
  20293257.770    -1401066.43344  -1090670.72142  20293259.768    20293255.600
  22410300.594     3548959.28343   2751990.80742  22410302.775    22410299.084
  23254301.035    -3749842.26943  -2917124.42942  23254303.485    23254300.503
  23269537.137    -4397886.56143  -3423422.90642  23269539.419    23269537.654
  22417787.487    -1268661.26743  -1006403.41342  22417788.743    22417784.890
 04  5 23 16 22 30.0000000  0  8G21G18G17G 6G30G29G26G10
  21530469.787    -3681735.27443  -2859718.55042  21530471.518    21530466.614
  23052802.024    -6301760.78443  -4904453.00842  23052804.074    23052800.412
  22691809.391     2446027.42143   1902849.21642  22691810.445    22691807.544
  20292902.294    -1402934.33644  -1092126.23942  20292904.331    20292900.149
  22428613.131     3645193.21843   2826978.23442  22428615.461    22428611.794
  23244546.090    -3801104.27343  -2957068.79642  23244548.408    23244545.796
  23253851.214    -4480316.05243  -3487653.61242  23253853.469    23253851.910
  22434386.132    -1181432.53843   -938433.06742  22434387.814    22434383.026
 04  5 23 16 23  0.0000000  0  8G21G18G17G 6G30G29G26G10
  21520672.343    -3733220.81743  -2899837.13742  21520674.063    21520669.212
  23033588.862    -6402726.87743  -4983127.84642  23033590.871    23033587.059
  22704766.592     2514118.60643   1955907.22142  22704767.779    22704765.094
  20292625.644    -1404388.07244  -1093259.03642  20292627.722    20292623.516
  22446971.279     3741666.37043   2902152.05442  22446973.703    22446969.994
  23234866.844    -3851969.24143  -2996703.81742  23234869.146    23234866.437
  23238222.278    -4562446.31143  -3551651.12642  23238224.626    23238222.865
  22451049.310    -1093868.18643   -870201.19042  22451050.484    22451045.665
 04  5 23 16 23 30.0000000  0  8G21G18G17G 6G30G29G26G10
  21510915.470    -3784493.32643  -2939789.74142  21510917.174    21510912.339
  23014417.429    -6503474.10543  -5061632.12942  23014419.428    23014415.408
  22717743.281     2582311.05143   2009044.11342  22717744.395    22717741.797
  20292427.623    -1405429.24644  -1094070.35842  20292429.689    20292425.395
  22465373.953     3838373.28143   2977508.03542  22465376.376    22465372.671
  23225263.010    -3902437.19443  -3036029.47942  23225265.276    23225262.450
  23222650.731    -4644276.30143  -3615414.71942  23222653.066    23222650.911
  22467775.303    -1005973.64343   -801712.05342  22467776.065    22467771.887
 04  5 23 16 24  0.0000000  0  8G21G18G17G 6G30G29G26G10
  21501200.231    -3835547.72543  -2979572.38242  21501201.931    21501197.029
  22995288.742    -6603995.15343  -5139960.18542  22995290.851    22995286.851
  22730739.987     2650609.03043   2062263.22842  22730741.095    22730738.595
  20292309.220    -1406051.64044  -1094555.34642  20292311.315    20292306.949
  22483821.609     3935315.78843   3053047.59242  22483823.936    22483819.890
  23215736.133    -3952500.74443  -3075039.99842  23215738.403    23215735.719
  23207137.597    -4725797.41643  -3678937.62342  23207139.980    23207138.016
  22484564.461     -917746.77743   -732963.95642  22484565.433    22484561.636
 04  5 23 16 24 30.0000000  0  8G21G18G17G 6G30G29G26G10
  21491525.884    -3886386.88243  -3019187.31342  21491527.553    21491522.765
  22976203.383    -6704289.71043  -5218111.73542  22976205.471    22976201.230
  22743756.475     2719010.20943   2115562.76942  22743757.340    22743754.996
  20292270.359    -1406256.08344  -1094714.66542  20292272.440    20292268.045
  22502313.090     4032489.06343   3128766.96642  22502315.427    22502311.247
  23206286.539    -4002159.29243  -3113734.96642  23206288.768    23206285.815
  23191683.772    -4807007.96043  -3742218.47742  23191686.175    23191684.175
  22501415.987     -829191.95743   -663960.22542  22501417.006    22501413.452
 04  5 23 16 25  0.0000000  0  8G21G18G17G 6G30G29G26G10
  21481893.089    -3937007.47944  -3058631.94242  21481894.795    21481890.014
  22957161.810    -6804353.65443  -5296083.60242  22957163.856    22957159.672
  22756792.766     2787515.95643   2168943.78142  22756793.615    22756791.306
  20292311.631    -1406039.45944  -1094545.87842  20292313.696    20292309.277
  22520848.527     4129892.46443   3204665.64342  22520850.857    22520846.561
  23196914.866    -4051407.99543  -3152110.54742  23196917.162    23196914.174
  23176290.146    -4887902.13843  -3805252.84942  23176292.577    23176290.437
  22518329.606     -740309.80143   -594701.53742  22518330.875    22518327.631
 04  5 23 16 25 30.0000000  0  8G21G18G17G 6G30G29G26G10
  21472300.920    -3987414.98843  -3097910.50642  21472302.619    21472297.676
  22938163.526    -6904189.62543  -5373877.85342  22938165.514    22938161.729
  22769847.965     2856120.53043   2222401.85642  22769848.816    22769846.374
  20292432.252    -1405405.69244  -1094052.04942  20292434.308    20292429.909
  22539425.877     4227518.01443   3280737.40642  22539428.298    22539423.991
  23187620.442    -4100249.48943  -3190168.81942  23187622.768    23187619.958
  23160956.496    -4968481.46143  -3868041.88342  23160958.863    23160956.758
  22535303.940     -651108.49943   -525194.15042  22535304.985    22535303.372
 04  5 23 16 26  0.0000000  0  8G21G18G17G 6G30G29G26G10
  21462750.374    -4037603.62043  -3137018.53242  21462752.116    21462747.151
  22919210.388    -7003790.13643  -5451488.60142  22919212.247    22919208.612
  22782922.794     2924828.80543   2275940.70542  22782923.616    22782921.181
  20292633.479    -1404348.45844  -1093228.25042  20292635.524    20292631.105
  22558046.223     4325367.82843   3356983.95342  22558048.484    22558044.220
  23178405.200    -4148676.04343  -3227903.78742  23178407.577    23178404.661
  23145684.195    -5048737.08343  -3930578.69142  23145686.742    23145684.522
  22552339.463                     -455436.04342  22552338.738
 04  5 23 16 26 30.0000000  0  8G21G18G17G 6G30G29G26G10
  21453240.802    -4087576.60643  -3175958.52942  21453242.535    21453237.664
  22900301.693    -7103156.03443  -5528916.55342  22900303.680    22900299.926
  22796016.790     2993637.11743   2329557.48742  22796017.702    22796015.218
  20292914.884    -1402869.55544  -1092075.86942  20292916.946    20292912.552
  22576708.250     4423436.45243   3433400.99242  22576710.440    22576706.331
  23169268.958    -4196687.95443  -3265315.63342  23169271.228    23169268.370
  23130473.709    -5128668.27443  -3992862.67442  23130476.256    23130473.916
  22569435.023     -471746.33743   -385431.54042  22569436.051    22569434.293
 04  5 23 16 27  0.0000000  0  8G21G18G17G 6G30G29G26G10
  21443772.475    -4137333.72444  -3214730.29842  21443774.211    21443769.085
  22881437.722    -7202284.77243  -5606159.72442  22881439.832    22881436.085
  22809129.598     3062545.37343   2383252.14542  22809130.629    22809128.133
  20293276.773    -1400967.90244  -1090594.07142  20293278.841    20293274.450
  22595411.255     4521720.93643   3509986.23642  22595413.569    22595409.367
  23160211.947    -4244282.53743  -3302402.31942  23160214.215    23160211.392
  23115325.780    -5208271.17543  -4054890.85042  23115328.363    23115325.718
  22586590.378     -381593.43643   -315182.54142  22586591.304    22586589.798
 04  5 23 16 27 30.0000000  0  8G21G18G17G 6G30G29G26G10
  21434345.757    -4186871.20844  -3253330.94242  21434347.596    21434342.390
  22862620.293    -7301171.32243  -5683214.13442  22862622.251    22862618.298
  22822262.074     3131555.92643   2437026.54742  22822263.113    22822260.533
  20293719.935    -1398639.35644  -1088779.64142  20293721.990    20293717.546
  22614155.145     4620221.59343   3586739.93842  22614157.574    22614153.307
  23151235.515    -4291454.11943  -3339159.37442  23151237.774    23151234.804
  23100241.516    -5287538.97643  -4116657.90842  23100244.173    23100241.462
  22603805.523     -291126.45843   -244688.81542  22603806.614    22603805.225
 04  5 23 16 28  0.0000000  0  8G21G18G17G 6G30G29G26G10
  21424958.738    -4236200.94044  -3291769.68742  21424960.637    21424955.384
  22843847.044    -7399825.60743  -5760087.57342  22843848.987    22843845.034
  22835411.589     3200656.00143   2490870.70642  22835412.558    22835410.082
  20294242.197    -1395894.98544  -1086641.17542  20294244.258    20294239.780
  22632937.552     4718923.33043   3663650.31842  22632939.897    22632935.627
  23142337.647    -4338212.57343  -3375594.49042  23142339.830    23142336.833
  23085219.452    -5366480.43943  -4178170.64742  23085222.074    23085219.349
  22621077.805
 04  5 23 16 28 30.0000000  0  8G21G18G17G 6G30G29G26G10
  21415614.613    -4285305.11144  -3330032.67442  21415616.513    21415611.285
  22825121.632    -7498227.78643  -5836764.57242  22825123.638    22825119.829
  22848581.126     3269862.89243   2544798.10242  22848582.085    22848579.864
  20294847.090    -1392716.06644  -1084164.10242  20294849.167    20294844.743
  22651761.155     4817840.96243   3740728.90942  22651763.447    22651759.358
  23133522.290    -4384537.68843  -3411691.97242  23133524.452    23133521.446
  23070263.315    -5445074.06843  -4239412.39642  23070265.953    23070263.499
  22638410.048     -109280.41043   -102990.68942  22638410.771    22638408.995
 04  5 23 16 29  0.0000000  0  8G21G18G17G 6G30G29G26G10
  21406310.675    -4334197.45444  -3368130.60242  21406312.593    21406307.313
  22806442.147    -7596388.64843  -5913253.53642  22806444.139    22806440.346
  22861768.494     3339163.16843   2598798.21642  22861769.374    22861767.325
  20295532.415    -1389114.63644  -1081357.80142  20295534.465    20295530.095
  22670622.647     4916958.57143   3817963.37542  22670624.907    22670621.010
  23124787.229    -4430439.88143  -3447459.89942  23124789.442    23124786.629
  23055371.935    -5523329.33343  -4300390.47942  23055374.458    23055372.055
  22655798.567      -17902.03743    -31786.71342  22655799.640    22655798.861
 04  5 23 16 29 30.0000000  0  8G21G18G17G 6G30G29G26G10
  21397048.336    -4382870.86343  -3406057.92642  21397050.199    21397045.006
  22787810.155    -7694299.75943  -5989547.88042  22787812.203    22787808.537
  22874974.922     3408562.36643   2652875.42542  22874975.587    22874973.503
  20296299.533    -1385083.25244  -1078216.47442  20296301.567    20296297.274
  22689522.852     5016279.48243   3895356.19342  22689525.109    22689521.381
  23116134.247    -4475910.50043  -3482891.49642  23116136.582    23116134.080
  23040546.699    -5601236.29943  -4361097.13842  23040549.188    23040546.696
  22673244.887                       39652.41142  22673245.401
 04  5 23 16 30  0.0000000  0  8G21G18G17G 6G30G29G26G10
  21387828.047    -4431324.16443  -3443813.74042  21387829.842    21387824.753
  22769226.731    -7791957.37243  -6065644.66942  22769228.658    22769224.863
  22888199.921     3478061.38143   2707030.42542  22888200.601    22888198.774
  20297148.942    -1380619.52544  -1074738.24942  20297150.966    20297146.729
  22708461.472     5115802.38743   3972906.47842  22708463.742    22708460.055
  23107564.451    -4520945.70543  -3517983.83642  23107566.659    23107564.257
  23025788.534    -5678789.95943  -4421528.51442  23025790.932    23025788.736
  22690748.152
 04  5 23 16 30 30.0000000  0  8G21G18G17G 6G30G29G26G10
  21378647.024    -4479571.12143  -3481408.76342  21378648.694    21378643.683
  22750688.718    -7889374.00443  -6141553.69242  22750690.810    22750687.215
  22901441.420     3547645.56343   2761251.79742  22901442.072    22901440.299
  20298078.012    -1375737.39144  -1070934.00542  20298080.002    20298075.813
  22727435.218     5215510.02143   4050600.64842  22727437.489    22727433.950
  23099074.963    -4565557.46443  -3552746.20542  23099077.257    23099075.126
  23011095.913    -5756001.12243  -4481692.99242  23011098.309    23011095.907
  22708305.279
 04  5 23 16 31  0.0000000  0  8G21G18G17G 6G30G29G26G10
  21369508.663    -4527593.39943  -3518828.71742  21369510.303    21369505.216
  22732200.662    -7986529.48543  -6217259.25342  22732202.775    22732199.367
  22914702.280     3617332.28743   2815553.04942  22914702.951    22914701.441
  20299090.425    -1370417.07044  -1066788.31142  20299092.414    20299088.295
  22746447.009     5315417.32043   4128450.39942  22746449.184    22746445.648
  23090670.055    -4609725.45443  -3587162.81742  23090672.339    23090670.191
  22996472.208    -5832848.39143  -4541573.92842  22996474.784    22996472.228
  22725919.921
 04  5 23 16 31 30.0000000  0  9G21G18G17G 6G30G29G26G10G16
  21360412.267    -4575395.59643  -3556077.17342  21360413.876    21360408.753
  22713761.860    -8083425.83143  -6292762.87042  22713763.923    22713760.337
  22927981.725     3687116.83143   2869930.51342  22927982.376    22927981.047
  20300185.602    -1364661.87144  -1062303.74442  20300187.597    20300183.529
  22765495.466     5415517.30143   4206450.31142  22765497.693    22765494.054
  23082349.298    -4653451.46543  -3621234.97342  23082351.569    23082349.471
  22981917.646    -5909331.97943  -4601171.51242  22981920.209    22981917.897
  22743586.643      443441.29253                                  22743588.623
  24341406.267     -354040.22253   -245521.09852  24341405.822    24341404.358
 04  5 23 16 32  0.0000000  0  9G21G18G17G 6G30G29G26G10G16
  21351354.838    -4622992.44543  -3593165.63842  21351356.453    21351351.403
  22695370.072    -8180075.60343  -6368074.36942  22695372.160    22695368.261
  22941276.988     3756983.92443   2924372.33442  22941277.590    22941276.458
  20301360.876    -1358485.77544  -1057491.22442  20301362.895    20301358.768
  22784577.288     5515792.31343   4284586.62242  22784579.514    22784575.932
  23074110.473    -4696747.63243  -3654972.24142  23074112.666    23074110.475
  22967430.472    -5985463.19243  -4660494.48042  22967432.882    22967430.754
  22761311.459      536570.66543  -1245776.71652  22761312.564    22761309.415
  24327128.602     -429068.56343   -303984.75342  24327128.664    24327127.023
 04  5 23 16 32 30.0000000  0  9G21G18G17G 6G30G29G26G10G16
  21342339.721    -4670366.64643  -3630080.59642  21342341.371    21342336.416
  22677028.632    -8276460.07443  -6443179.10342  22677030.647    22677026.813
  22954591.116     3826949.94843   2978891.22442  22954591.731    22954590.561
  20302619.470    -1351871.79844  -1052337.49742  20302621.522    20302617.332
  22803694.924     5616256.19043   4362870.11342  22803697.290    22803693.663
  23065956.594    -4739595.13743  -3688359.90342  23065958.811    23065956.918
  22953014.091    -6061221.87843  -4719527.17342  22953016.495    22953014.369
  22779088.183      629988.29943  -1172983.75742  22779089.216    22779086.983
  24312926.406     -503701.27843   -362140.15942  24312926.914    24312924.840
 04  5 23 16 33  0.0000000  0  9G21G18G17G 6G30G29G26G10G16
  21333366.051    -4717523.79543  -3666826.42542  21333367.625    21333362.732
  22658736.950    -8372582.58143  -6518079.74842  22658739.034    22658735.427
  22967922.959     3897008.38843   3033482.14342  22967923.545    22967922.274
  20303960.682    -1344823.99944  -1046845.72242  20303962.708    20303958.490
  22822846.924     5716900.33143   4441294.02642  22822849.274    22822845.871
  23057887.720    -4781997.38443  -3721400.56742  23057889.906    23057888.090
  22938668.111    -6136610.17543  -4778271.24342  22938670.586    22938668.496
  22796918.378      723685.58843  -1099972.99342  22796919.673    22796916.901
  24298798.789     -577941.76043   -419989.94142  24298799.786    24298797.363
 04  5 23 16 33 30.0000000  0  9G21G18G17G 6G30G29G26G10G16
  21324434.413    -4764459.83943  -3703399.96142  21324435.955    21324431.079
  22640496.570    -8468437.21343  -6592771.64442  22640498.559    22640494.821
  22981273.060     3967163.31343   3088148.20942  22981273.850    22981272.440
  20305385.319    -1337337.59244  -1041012.17242  20305387.311    20305383.122
  22842033.387     5817725.79443   4519859.24842  22842035.782    22842032.233
  23049904.755    -4823947.96543  -3754089.32142  23049906.979    23049905.115
  22924394.103    -6211620.62743  -4836720.90442  22924396.610    22924394.494
  22814802.218      817664.23043  -1026743.04542  22814803.511    22814800.743
  24284747.063     -651783.73943   -477529.18742  24284748.215    24284745.791
 04  5 23 16 34  0.0000000  0  9G21G18G17G 6G30G29G26G10G16
  21315543.340    -4811182.87643  -3739807.52842  21315544.861    21315540.030
  22622305.834    -8564029.66943  -6667259.23642  22622307.946    22622304.062
  22994639.946     4037405.80443   3142882.52842  22994640.713    22994639.151
  20306892.070    -1329419.57344  -1034842.30542  20306894.046    20306889.891
  22861252.426     5918721.88843   4598557.43942  22861254.791    22861250.971
  23042006.764    -4865452.51043  -3786430.52142  23042009.071    23042007.133
  22910191.269    -6286257.34043  -4894879.33442  22910193.779    22910191.628
  22832737.709      911913.48843   -953302.23442  22832738.458    22832736.130
  24270770.149     -725232.78443   -534762.25942  24270771.527    24270769.066
 04  5 23 16 34 30.0000000  0  9G21G18G17G 6G30G29G26G10G16
  21306694.142    -4857685.67743  -3776043.46842  21306695.686    21306690.824
  22604166.768    -8659351.54843  -6741535.98042  22604168.775    22604165.004
  23008024.678     4107742.11943   3197689.98742  23008025.512    23008023.835
  20308482.367    -1321062.55044  -1028330.34542  20308484.349    20308480.193
  22880504.611     6019892.14443   4677391.33442  22880506.921    22880502.959
  23034195.332    -4906502.24343  -3818417.32242  23034197.662    23034195.501
  22896061.416    -6360510.36843  -4952738.79942  22896063.947    22896061.648
  22850725.068                     -879647.41842                  22850723.278
  24256869.764     -798279.80343   -591682.04742  24256871.203    24256868.983
 04  5 23 16 35  0.0000000  0  8G21G18G17G 6G30G29G26G16
  21297884.776    -4903979.16443  -3812116.30942  21297886.279    21297881.541
  22586077.439    -8754411.51243  -6815608.67242  22586079.426    22586075.667
  23021425.088     4178161.15843   3252561.89442  23021425.984    23021424.080
  20310154.350    -1312276.41244  -1021484.01342  20310156.329    20310152.138
  22899787.196     6121223.04943   4756350.40242  22899789.599    22899785.676
  23026468.858    -4947105.60443  -3850056.27042  23026471.200    23026468.765
  22882003.215    -6434386.92843  -5010304.90042  22882005.710    22882003.281
  24243044.241     -870933.18843   -648295.08942  24243045.816    24243043.647
 04  5 23 16 35 30.0000000  0  8G21G18G17G 6G30G29G26G16
  21289118.011    -4950048.53443  -3848014.51142  21289119.532    21289114.815
  22568041.348    -8849192.70243  -6889464.09242  22568043.124    22568039.376
  23034844.050     4248677.04143   3307509.27142  23034844.908    23034842.695
  20311910.898    -1303045.63644  -1014291.21842  20311912.919    20311908.698
  22919102.597     6222726.21143   4835443.71342  22919104.940    22919101.287
  23018830.352    -4987245.90643  -3881334.41542  23018832.730    23018830.222
  22868020.022    -6507868.77343  -5067563.42642  22868022.592    22868020.079
  24229296.921     -943176.27743   -704588.41142  24229298.673    24229296.197
 04  5 23 16 36  0.0000000  0  8G21G18G17G 6G30G29G26G16
  21280393.047    -4995898.26443  -3883741.57142  21280394.608    21280389.861
  22550057.670    -8943697.92243  -6963104.47242  22550059.436    22550055.833
  23048280.187     4319284.28943   3362527.83842  23048281.150    23048278.686
  20313751.333    -1293374.36044  -1006755.17742  20313753.345    20313749.117
  22938449.441     6324393.85443   4914665.18442  22938451.776    22938448.119
  23011279.679    -5026925.70643  -3912253.72942  23011282.016    23011279.451
  22854111.578    -6580957.57643  -5124515.71442  22854114.115    22854111.603
  24215627.199    -1015011.47943   -760563.86942  24215629.020    24215626.455
 04  5 23 16 36 30.0000000  0  8G21G18G17G 6G30G29G26G16
  21271708.648    -5041534.98943  -3919302.65642  21271710.206    21271705.411
  22532125.532    -9037931.56243  -7036533.24542  22532127.422    22532123.912
  23061732.360     4389976.50943   3417612.59342  23061733.369    23061731.085
  20315674.530    -1283267.83244   -998879.97342  20315676.586    20315672.406
  22957825.640     6426216.81743   4994007.67942  22957828.072    22957824.541
  23003815.777    -5066148.90943  -3942817.25842  23003818.179    23003815.329
  22840277.521    -6653656.02343  -5181163.80942  22840279.996    22840277.217
  24202034.349    -1086442.91943   -816224.69042  24202036.217    24202033.355
 04  5 23 16 37  0.0000000  0  8G21G18G17G 6G30G29G26G16
  21263065.964    -5086952.55943  -3954692.96242  21263067.522    21263062.700
  22514246.722    -9131885.68443  -7109744.21542  22514248.579    22514244.998
  23075201.844     4460758.90943   3472767.63942  23075202.906    23075200.642
  20317681.847    -1272719.45644   -990660.48142  20317683.904    20317679.708
  22977232.293     6528198.28043   5073473.70342  22977234.630    22977231.131
  22996440.407    -5104907.50043  -3973018.74942  22996442.764    22996439.606
  22826519.354    -6725954.59143  -5237500.31042  22826521.795    22826519.037
  24188519.843    -1157462.25443   -871564.44942  24188521.775    24188518.504
 04  5 23 16 37 30.0000000  0  8G21G18G17G 6G30G29G26G16
  21254465.029    -5132150.34443  -3989912.02142  21254466.621    21254461.901
  22496421.382    -9225557.76643  -7182735.41142  22496423.399    22496419.583
  23088688.274     4531631.16143   3527992.70342  23088689.361    23088687.410
  20319773.429    -1261728.40344   -982096.03542  20319775.461    20319771.245
  22996668.387     6630335.34243   5153060.95642  22996670.800    22996667.351
  22989153.554    -5143199.42043  -4002856.56542  22989156.048    22989152.986
  22812838.152    -6797849.81043  -5293522.55342  22812840.543    22812837.795
  24175084.203    -1228067.17243   -926581.26042  24175086.243    24175082.680
 04  5 23 16 38  0.0000000  0  8G21G18G17G 6G30G29G26G16
  21245905.454    -5177131.25043  -4024962.06542  21245906.984    21245902.297
  22478649.677    -9318948.85243  -7255507.65442  22478651.631    22478647.993
  23102191.205     4602589.84743   3583285.08642  23102192.339    23102190.554
  20321948.806    -1250296.92744   -973188.41542  20321950.798    20321946.546
  23016133.103     6732622.07443   5232764.84342  23016135.613    23016131.986
  22981955.509    -5181025.30243  -4032331.25042  22981958.020    22981955.059
  22799233.603    -6869341.18143  -5349230.04542  22799235.905    22799233.549
  24161727.338    -1298258.18043   -981275.59542  24161729.356    24161725.601
 04  5 23 16 38 30.0000000  0  8G21G18G17G 6G30G29G26G16
  21237387.558    -5221893.38743  -4059841.62042  21237389.010    21237384.520
  22460932.095    -9412055.19843  -7328058.03742  22460934.046    22460930.577
  23115710.877     4673636.10843   3638645.72542  23115711.821    23115710.243
  20324208.406    -1238422.54844   -963935.66742  20324210.412    20324206.135
  23035625.938     6835057.26643   5312584.40342  23035628.486    23035624.767
  22974846.909    -5218381.69843  -4061440.12142  22974849.338    22974846.268
  22785707.104    -6940423.60643  -5404618.91642  22785709.329    22785706.903
  24148449.890    -1368031.80043  -1035644.62442  24148452.041    24148447.914
 04  5 23 16 39  0.0000000  0  8G21G18G17G 6G30G29G26G16
  21228910.111    -5266442.49943  -4094555.21142  21228911.584    21228907.188
  22443268.191    -9504880.46343  -7400389.36342  22443270.063    22443266.408
  23129246.210     4744764.33043   3694070.25542  23129247.211    23129245.561
  20326551.476    -1226109.62644   -954341.20042  20326553.472    20326549.201
  23055145.219     6937632.62043   5392513.20642  23055147.851    23055144.202
  22967827.058    -5255271.51743  -4090185.42942  22967829.476    22967826.350
  22772257.789    -7011099.07843  -5459690.67942  22772260.076    22772257.663
  24135251.420    -1437390.81243  -1089690.56942  24135253.306    24135249.428
 04  5 23 16 39 30.0000000  0  8G21G18G17G 6G30G29G26G16
  21220475.109    -5310768.62743  -4129095.02842  21220476.598    21220472.183
  22425659.880    -9597413.32843  -7472492.85542  22425661.668    22425657.944
  23142798.769     4815983.30643   3749565.46942  23142799.815    23142798.356
  20328979.847    -1213348.34244   -944397.35542  20328981.834    20328977.618
  23074692.704     7040354.77743   5472556.35542  23074695.224    23074691.652
  22960898.028    -5291683.42543  -4118558.33842  22960900.440    22960897.396
  22758888.555    -7081354.77043  -5514435.34242  22758890.798    22758888.290
  24122134.199    -1506323.70243  -1143404.47742  24122135.999    24122132.082
 04  5 23 16 40  0.0000000  0  8G21G18G17G 6G30G29G26G16
  21212081.004    -5354880.41443  -4163467.85642  21212082.437    21212078.079
  22408105.651    -9689659.98843  -7544373.34942  22408107.589    22408103.863
  23156366.963     4887283.99943   3805124.35942  23156367.980    23156366.717
  20331492.075    -1200146.54944   -934110.25142  20331494.052    20331489.859
  23094265.918     7143211.95143   5552704.71842  23094268.408    23094264.797
  22954058.681    -5327624.02443  -4146563.96642  22954061.105    22954058.030
  22745598.181    -7151196.05543  -5568857.08742  22745600.381    22745598.072
  24109096.468    -1574837.19753  -1196791.58452  24109098.937    24109094.293
 04  5 23 16 40 30.0000000  0  7G21G18G17G 6G30G29G26
  21203729.096    -5398769.94443  -4197667.48242  21203730.638    21203726.190
  22390608.026    -9781611.02443  -7616023.48442  22390609.809    22390606.049
  23169952.019     4958673.85343   3860752.73342  23169953.159    23169951.910
  20334089.860    -1186495.46544   -923473.06242  20334091.845    20334087.601
  23113865.912     7246209.29043   5632962.28942  23113868.311    23113864.751
  22947311.215    -5363083.28043  -4174194.52642  22947313.522    22947310.305
  22732388.735    -7220611.46343  -5622946.97642  22732390.990    22732388.891
 04  5 23 16 41  0.0000000  0  8G21G18G17G 6G30G29G26G16
  21195418.042    -5442444.32343  -4231699.43642  21195419.650    21195415.140
  22373165.731    -9873271.29643  -7687447.03142  22373167.519    22373163.675
  23183552.658     5030145.33743   3916444.71742  23183553.742    23183552.418
  20336771.836    -1172401.77044   -912490.98042  20336773.828    20336769.562
  23133490.376     7349336.64743   5713321.24142  23133492.802    23133489.252
  22940653.885    -5398066.52043  -4201454.16242  22940656.333    22940653.308
  22719259.678    -7289604.83743  -5676707.96842  22719261.972    22719259.683
  24083266.570     -451333.57953   -342281.85452  24083268.810    24083265.274
 04  5 23 16 41 30.0000000  0  7G21G18G17G 6G30G29G26
  21187148.920    -5485898.55643  -4265559.89242  21187150.611    21187146.183
  22355779.788    -9964633.97443  -7758638.70742  22355781.751    22355777.830
  23197169.810     5101703.18643   3972203.99942  23197170.805    23197169.347
  20339539.166    -1157859.26044   -901159.16442  20339541.165    20339537.015
  23153140.079     7452596.27243   5793783.19542  23153142.478    23153138.953
  22934088.641    -5432566.42843  -4228337.20742  22934091.122    22934088.169
  22706212.606    -7358167.58643  -5730133.47242  22706214.940    22706212.422
 04  5 23 16 42  0.0000000  0  7G21G18G17G 6G30G29G26
  21178920.799    -5529138.43044  -4299253.28642  21178922.447    21178917.908
  22338449.842   -10055703.33543  -7829601.79342  22338451.840    22338447.723
  23210801.956     5173340.64343   4028025.30642  23210803.037    23210801.431
  20342390.730    -1142874.09944   -889482.42942  20342392.749    20342388.650
  23172813.221     7555979.17843   5874341.23642  23172815.655    23172812.181
  22927614.704    -5466587.43543  -4254847.08542  22927617.066    22927613.966
  22693246.990    -7426302.84343  -5783225.86142  22693249.391    22693246.666
 04  5 23 16 42 30.0000000  0  8G21G18G17G 6G30G29G26G16
  21170734.458    -5572157.95244  -4332774.98342  21170736.206    21170731.490
  22321176.930   -10146471.78443  -7900330.41742  22321178.989    22321175.018
  23224450.353     5245063.06043   4083912.85342  23224451.530    23224449.862
  20345327.869    -1127439.65544   -877455.60242  20345329.850    20345325.730
  23192510.234     7659487.94943   5954997.32542  23192512.565    23192509.373
  22921233.121    -5500121.78743  -4280977.70642  22921235.459    22921232.564
  22680364.215    -7494001.46043  -5835977.99842  22680366.773    22680363.795
  24045133.561
 04  5 23 16 43  0.0000000  0  8G21G18G17G 6G30G29G26G16
  21162589.544    -5614959.22743  -4366126.61642  21162591.312    21162586.662
  22303961.552   -10236939.26543  -7970824.52542  22303963.553    22303959.563
  23238114.437     5316868.08143   4139864.72142  23238115.693    23238113.838
  20348350.188    -1111557.21244   -865079.69142  20348352.187    20348347.960
  23212230.452     7763117.94243   6035747.90242  23212232.785    23212229.523
  22914944.184    -5533169.55043  -4306729.18642  22914946.550    22914943.880
  22667565.013    -7561261.94543  -5888388.72542  22667567.614    22667564.208
  24032587.595     -529266.46753   -405281.60952  24032588.626    24032585.135
 04  5 23 16 43 30.0000000  0  8G21G18G17G 6G30G29G26G16
  21154486.507    -5657541.64044  -4399307.69742  21154488.222    21154483.457
  22286803.783   -10327103.69043  -8041082.48142  22286805.742    22286801.672
  23251794.228     5388755.50643   4195880.79442  23251795.562    23251793.624
  20351457.911    -1095225.97744   -852354.06242  20351459.909    20351455.650
  23231972.966     7866866.38043   6116590.76442  23231975.321    23231972.132
  22908748.447    -5565728.68843  -4332099.94842  22908750.846    22908748.103
  22654849.923    -7628081.06743  -5940455.54242  22654852.411    22654848.808
  24020124.785     -594755.36443   -456311.97042  24020126.143    24020123.216
 04  5 23 16 44  0.0000000  0  8G21G18G17G 6G30G29G26G16
  21146424.097    -5699909.38943  -4432321.51342  21146425.904    21146421.099
  22269703.605   -10416966.92043  -8111105.73542  22269705.483    22269701.107
  23265488.857     5460721.27143   4251957.92342  23265490.267    23265488.261
  20354650.444    -1078449.01744   -839281.11542  20354652.439    20354648.198
  23251737.133     7970726.63443   6197520.72842  23251739.225    23251736.278
  22902645.350    -5597800.72643  -4357091.15142  22902647.657    22902644.923
  22642218.542    -7694458.93243  -5992178.53242  22642221.020    22642217.677
  24007745.680     -659807.76143   -507002.18942  24007747.058    24007744.069
 04  5 23 16 44 30.0000000  0  8G21G18G17G 6G30G29G26G16
  21138404.273    -5742054.13144  -4465161.55242  21138406.054    21138401.112
  22252662.317   -10506519.06343  -8180886.55942  22252664.306    22252659.674
  23279199.949     5532772.79643   4308101.86542  23279201.279    23279199.112
  20357929.420    -1061218.09944   -825854.44242  20357931.409    20357927.147
  23271523.181     8074703.76043   6278541.80342  23271525.302    23271522.663
  22896636.649    -5629376.33243  -4381695.49642  22896638.952    22896636.206
  22629673.069    -7760384.59843  -6043549.16842  22629675.621    22629672.556
  23995451.544     -724413.52843   -557344.35842  23995452.988    23995450.263
 04  5 23 16 45  0.0000000  0  8G21G18G17G 6G30G29G26G16
  21130425.386    -5783983.50944  -4497833.78442  21130427.185    21130422.183
  22235679.061   -10595766.49243  -8250429.99442  22235680.991    22235676.475
  23292925.684     5604901.35643   4364305.83642  23292927.067    23292924.778
  20361293.366    -1043540.71644   -812079.87042  20361295.357    20361291.045
  23291329.843     8178786.53343   6359645.17642  23291332.043    23291329.212
  22890721.465    -5660461.68243  -4405917.86242  22890723.735    22890720.770
  22617213.044    -7825863.12643  -6094571.37342  22617215.494    22617212.522
  23983241.162     -788578.87543   -607343.32742  23983242.719    23983240.217
 04  5 23 16 45 30.0000000  0  8G21G18G17G 6G30G29G26G16
  21122488.499    -5825691.60343  -4530333.57442  21122490.344    21122485.369
  22218755.321   -10684701.40043  -8319729.86542  22218757.193    22218752.827
  23306667.017     5677112.80243   4420574.38242  23306668.376    23306666.363
  20364743.506    -1025410.09244   -797952.13142  20364745.517    20364741.200
  23311156.596     8282978.20543   6440833.42242  23311159.012    23311156.306
  22884900.998    -5691048.96443  -4429752.08842  22884903.241    22884900.137
  22604839.796    -7890885.03743  -6145237.76742  22604842.283    22604839.277
  23971116.456     -852295.63343   -656992.76342  23971118.130    23971115.492
 04  5 23 16 46  0.0000000  0  8G21G18G17G 6G30G29G26G16
  21114593.660    -5867179.79544  -4562662.05342  21114595.367    21114590.403
  22201891.126   -10773322.71043  -8388785.40942  22201893.049    22201888.786
  23320424.251     5749405.59943   4476906.32842  23320425.373    23320423.364
  20368279.854    -1006826.75744   -783471.62842  20368281.845    20368277.483
  23331003.680     8387274.92343   6522103.50442  23331006.012    23331003.482
  22879175.313    -5721137.29843  -4453197.53442  22879177.572    22879174.430
  22592553.954    -7955448.05043  -6195546.58142  22592556.404    22592553.408
  23959077.007     -915563.02043   -706291.99442  23959078.723    23959076.189
 04  5 23 16 46 30.0000000  0  8G21G18G17G 6G30G29G26G16
  21106739.316    -5908454.51344  -4594824.15842  21106740.993    21106735.976
  22185085.892   -10861635.21243  -8457600.29142  22185087.784    22185083.247
  23334195.195     5821772.56943   4533296.10442  23334196.221    23334194.681
  20371901.083     -987797.34844   -768643.53042  20371903.067    20371898.678
  23350869.100     8491666.66943   6603447.65642  23350871.358    23350868.528
  22873543.608    -5750731.80043  -4476258.18442  22873545.907    22873542.956
  22580354.560    -8019556.01143  -6245500.83942  22580356.987    22580354.093
  23947122.243     -978385.63643   -755244.68042  23947123.928    23947121.497
 04  5 23 16 47  0.0000000  0  8G21G18G17G 6G30G29G26G16
  21098927.225    -5949507.47244  -4626813.47042  21098928.840    21098923.811
  22168341.228   -10949629.37143  -8526167.13642  22168343.055    22168338.485
  23347981.768     5894221.43743   4589749.71342  23347982.834    23347981.389
  20375608.819     -968313.03544   -753460.96542  20375610.803    20375606.451
  23370753.089     8596158.81343   6684870.00042  23370755.667    23370752.679
  22868007.854    -5779822.70643  -4498926.41542  22868010.091    22868007.044
  22568244.175    -8083197.34343  -6295091.46142  22568246.560    22568243.578
  23935254.287    -1040753.44243   -803842.95042  23935255.962    23935253.425
 04  5 23 16 47 30.0000000  0  8G21G18G17G 6G30G29G26G16
  21091157.403    -5990337.87443  -4658629.35042  21091159.060    21091154.125
  22151657.481   -11037302.62743  -8594483.93142  22151659.337    22151654.868
  23361784.049     5966752.40043   4646267.24742  23361785.019    23361783.780
  20379403.361     -948372.59944   -737922.98242  20379405.368    20379401.016
  23390656.009     8700749.21243   6766368.92842  23390658.532    23390655.472
  22862568.359    -5808407.47543  -4521200.29342  22862570.536    22862567.450
  22556223.153    -8146368.41743  -6344315.66942  22556225.608    22556222.468
  23923473.009    -1102663.91143   -852084.85942  23923474.932    23923472.372
 04  5 23 16 48  0.0000000  0  8G21G18G17G 6G30G29G26G16
  21083428.433    -6030953.90844  -4690278.19942  21083430.091    21083425.213
  22135033.544   -11124661.27943  -8662555.55142  22135035.438    22135031.126
  23375600.176     6039357.14343   4702842.27842  23375601.160    23375600.023
  20383283.303     -927983.60244   -722035.46442  20383285.316    20383280.939
  23410575.440     8805426.87943   6847935.86542  23410577.866    23410574.873
  22857223.862    -5836492.57743  -4543084.78842  22857226.039    22857222.877
  22544290.539    -8209074.14343  -6393177.26142  22544293.079    22544289.791
  23911777.977    -1164122.99643   -899975.01542  23911779.880    23911777.095
 04  5 23 16 48 30.0000000  0  9G21G18G17G 6G30G29G26G15G16
  21075740.477    -6071354.38244  -4721759.08342  21075742.096    21075737.280
  22118470.189   -11211702.11943  -8730379.57042  22118472.039    22118467.805
  23389430.589     6112036.06743   4759475.09842  23389431.424    23389430.376
  20387248.850     -907144.78744   -705797.44842  20387250.858    20387246.411
  23430510.999     8910190.13843   6929569.44642  23430513.504    23430510.561
  22851975.042    -5864075.19943  -4564577.72742  22851977.237    22851974.017
  22532447.605    -8271310.00143  -6441672.75542  22532450.056    22532446.676
  24466819.856     -789099.97753   -578041.00952  24466822.083    24466821.410
  23900169.339    -1225127.70443   -947511.12342  23900171.488    23900168.490
 04  5 23 16 49  0.0000000  0  9G21G18G17G 6G30G29G26G15G16
  21068094.747    -6111533.67844  -4753067.63242  21068096.352    21068091.367
  22101968.422   -11298418.34143  -8797950.60942  22101970.347    22101966.201
  23403276.235     6184794.62643   4816169.98042  23403277.043    23403276.059
  20391301.005     -885850.30944   -689204.35942  20391303.040    20391298.620
  23450463.966     9015041.09643   7011271.42342  23450466.238    23450463.032
  22846823.315    -5891148.35743  -4585673.68542  22846825.487    22846822.062
  22520695.507    -8333068.00943  -6489795.88442  22520697.955    22520694.669
  24450727.947     -873664.52443   -643935.39842  24450730.222    24450729.433
  23888648.290    -1285670.77443   -994687.49842  23888650.428    23888647.524
 04  5 23 16 49 30.0000000  0  9G21G18G17G 6G30G29G26G15G16
  21060491.033    -6151491.81144  -4784203.82742  21060492.712    21060487.595
  22085529.019   -11384808.55243  -8865267.64042  22085530.865    22085526.644
  23417136.669     6257631.67543   4872926.01442  23417137.467    23417136.546
  20395439.964     -864099.84344   -672255.96242  20395441.983    20395437.621
  23470432.373     9119976.80543   7093039.39942  23470434.743    23470431.807
  22841768.558    -5917710.67943  -4606371.62142  22841770.816    22841767.598
  22509034.591    -8394345.26243  -6537544.39342  22509037.098    22509033.958
  24434648.956     -958159.93943   -709775.95542  24434651.513    24434650.322
  23877215.090    -1345750.70043  -1041503.03942  23877217.384    23877214.565
 04  5 23 16 50  0.0000000  0 10G21G18G17G 6G30G29G26G10G15G16
  21052929.079    -6191229.95744  -4815168.60542  21052930.776    21052925.646
  22069151.662   -11470871.90543  -8932329.94642  22069153.487    22069149.407
  23431011.798     6330545.93343   4929742.26942  23431012.622    23431011.908
  20399665.526     -841894.24244   -654952.91842  20399667.564    20399663.263
  23490416.156     9224993.01343   7174870.14642  23490418.679    23490415.705
  22836811.280    -5943761.70143  -4626671.11942  22836813.447    22836810.495
  22497465.745    -8455139.66843  -6584916.63142  22497468.240    22497465.182
  23431090.986
  24418582.566    -1042587.07343   -775563.32242  24418585.200    24418584.158
  23865870.197    -1405366.65143  -1087957.01742  23865872.428    23865869.740
 04  5 23 16 50 30.0000000  0 10G21G18G17G 6G30G29G26G10G15G16
  21045409.738    -6230744.26144  -4845958.96542  21045411.415    21045406.330
  22052837.455   -11556603.24543  -8999133.57642  22052839.280    22052835.327
  23444902.328     6403540.52543   4986621.09142  23444903.161    23444902.243
  20403978.463     -819229.65144   -637292.21242  20403980.479    20403976.253
  23510415.839     9330090.72743   7256764.35242  23510417.981    23510415.041
  22831952.167    -5969296.50843  -4646568.37842  22831954.360    22831951.354
  22485990.258    -8515444.52043  -6631907.45842  22485992.730    22485989.588
  23450453.299     -486941.81753   -399646.75652  23450454.948    23450451.705
  24402530.428    -1126942.16243   -841294.53642  24402532.740    24402531.870
  23854614.635    -1464513.09443  -1134045.16142  23854616.962    23854614.306
 04  5 23 16 51  0.0000000  0 10G21G18G17G 6G30G29G26G10G15G16
  21037931.048    -6270044.66944  -4876582.65142  21037932.747    21037927.754
  22036585.033   -11642010.19643  -9065684.41542  22036586.920    22036582.958
  23458806.279     6476605.42643   5043554.67742  23458807.219    23458806.111
  20408376.919     -796115.36144   -619281.09142  20408378.947    20408374.781
  23530428.443     9435257.29343   7338712.22442  23530430.561    23530427.715
  22827189.805    -5994323.03543  -4666069.55042  22827192.053    22827188.984
  22474606.422    -8575266.50743  -6678521.99242  22474608.907    22474605.996
  23469851.791     -385002.02243   -320213.22242  23469852.948    23469850.426
  24386490.557    -1211234.84943   -906977.06942  24386492.656    24386491.448
  23843447.412    -1523198.03743  -1179773.73042  23843449.389    23843446.664
 04  5 23 16 51 30.0000000  0 10G21G18G17G 6G30G29G26G10G15G16
  21030494.027    -6309126.48244  -4907036.01342  21030495.666    21030490.627
  22020395.395   -11727086.88043  -9131977.90042  22020397.295    22020393.348
  23472724.185     6549744.73143   5100546.26342  23472725.246    23472724.019
  20412861.901     -772546.69044   -600915.91542  20412863.903    20412859.744
  23550454.531     9540494.11043   7420714.85842  23550456.659    23550453.898
  22822525.410    -6018835.27743  -4685169.97642  22822527.569    22822524.668
  22463315.884    -8634598.33043  -6724754.57242  22463318.265    22463315.543
  23489283.427     -282884.36943   -240641.19142  23489285.298    23489283.378
  24370462.870    -1295460.43443   -972607.36342  24370465.037    24370463.911
  23832369.522    -1581414.99543  -1225137.60742  23832371.299    23832367.943
 04  5 23 16 52  0.0000000  0 10G21G18G17G 6G30G29G26G10G15G16
  21023100.153    -6347981.73044  -4937312.81442  21023101.808    21023096.556
  22004270.308   -11811823.67043  -9198006.52742  22004272.301    22004268.435
  23486657.897     6622966.00543   5157601.72442  23486658.836    23486657.378
  20417435.035     -748514.85944   -582189.82842  20417437.014    20417432.875
  23570494.515     9645806.22643   7502776.10242  23570496.805    23570494.406
  22817960.470    -6042823.74743  -4703862.28542  22817962.722    22817959.916
  22452120.758    -8693428.84343  -6770596.54342  22452123.124    22452120.455
  23508750.609     -180583.35243   -160926.25942  23508751.888    23508750.224
  24354449.470    -1379610.60443  -1038178.87642  24354451.562    24354450.696
  23821382.332    -1639154.35743  -1270129.30342  23821384.320    23821380.174
 04  5 23 16 52 30.0000000  0 10G21G18G17G 6G30G29G26G10G15G16
  21015746.379    -6386625.97744  -4967425.20742  21015748.079    21015742.777
  21988207.600   -11896234.18543  -9263780.95042  21988209.488    21988205.675
  23500604.145     6696253.24943   5214708.54142  23500605.082    23500603.563
  20422093.240     -724035.70444   -563115.18842  20422095.207    20422091.129
  23590544.035    11326595.49653   8812481.93652  23590544.621    23590545.813
  22813492.699    -6066302.56643  -4722157.47742  22813494.952    22813491.849
  22441018.766    -8751770.75343  -6816057.77342  22441021.104    22441018.467
  23528249.360      -78117.20543    -81082.60042  23528250.465    23528247.852
  24338447.638    -1463700.66643  -1103703.56642  24338449.555    24338448.971
  23810483.472    -1696429.90743  -1314759.59742  23810485.122    23810480.739
 04  5 23 16 53  0.0000000  0 10G21G18G17G 6G30G29G26G10G15G16
  21008435.676    -6425043.41544  -4997360.87942  21008437.444    21008432.164
  21972209.996   -11980301.45843  -9329287.88842  21972211.999    21972208.246
  23514565.892     6769621.48643   5271878.53442  23514566.800    23514565.218
  20426839.638     -699093.23144   -543679.51242  20426841.598    20426837.510
  23610609.696    11432034.37143   8894642.04142  23610611.679    23610610.643
  22809124.961    -6089254.88343  -4740042.40442  22809127.244    22809124.118
  22430013.289    -8809605.61543  -6861123.89042  22430015.665    22430012.794
  23547782.110       24526.50843     -1100.64642  23547782.968    23547780.571
  24322459.782    -1547715.00043  -1169169.23542  24322461.985    24322461.534
  23799675.810    -1753224.49353  -1359015.08952  23799677.402    23799673.109
 04  5 23 16 53 30.0000000  0 10G21G18G17G 6G30G29G26G10G15G16
  21001166.710    -6463242.63844  -5027126.48542  21001168.408    21001163.064
  21956276.654   -12064032.35743  -9394532.70542  21956278.515    21956274.592
  23528541.320     6843062.15243   5329104.93542  23528542.188    23528540.838
  20431672.665     -673695.57444   -523889.14642  20431674.621    20431670.521
  23630685.314    11537531.07943   8976847.18942  23630687.703    23630686.349
  22804856.072    -6111687.73543  -4757522.49642  22804858.378    22804855.404
  22419102.970    -8866938.88643  -6905799.16142  22419105.493    22419102.602
  23567346.341      127337.05243     79011.29742  23567347.225    23567345.073
  24306485.387    -1631662.05543  -1234582.48742  24306487.319    24306486.986
  23788958.677    -1809544.55743  -1402900.80342  23788960.135    23788955.907
 04  5 23 16 54  0.0000000  0 10G21G18G17G 6G30G29G26G10G15G16
  20993938.913    -6501224.59644  -5056722.80842  20993940.649    20993935.235
  21940407.365   -12147426.25743  -9459514.93242  21940409.164    21940405.265
  23542530.202     6916573.35843   5386386.32142  23542531.044    23542529.852
  20436592.086     -647843.97744   -503745.06842  20436594.076    20436589.914
  23650771.153    11643081.93943   9059094.49942  23650773.383    23650771.947
  22800686.074    -6133601.04643  -4774597.82442  22800688.383    22800685.438
  22408288.847    -8923768.96843  -6950082.35542  22408291.325    22408288.183
  23586941.666      230310.27543    159250.08542  23586942.657    23586940.254
  24290523.543    -1715542.85543  -1299944.13942  24290525.328    24290525.074
  23778331.117    -1865389.89543  -1446416.60342  23778332.899    23778329.232
 04  5 23 16 54 30.0000000  0 10G21G18G17G 6G30G29G26G10G15G16
  20986753.283    -6538984.96044  -5086146.45542  20986755.048    20986749.626
  21924603.243   -12230477.61543  -9524230.23842  21924605.034    21924601.141
  23556533.261     6990159.00143   5443725.67742  23556534.087    23556532.974
  20441598.766     -621533.83944   -483243.67342  20441600.736    20441596.655
  23670867.721    11748687.90443   9141384.83942  23670869.645    23670867.983
  22796616.264    -6154989.06943  -4791263.80242  22796618.422    22796615.415
  22397571.606    -8980088.76043  -6993967.92942  22397574.129    22397570.992
  23606568.022      333448.03043    239617.12142  23606569.296    23606566.762
  24274574.880    -1799353.43743  -1365251.06842  24274576.739    24274576.280
  23767795.315    -1920754.54543  -1489557.93042  23767797.156    23767793.757
 04  5 23 16 55  0.0000000  0  9G21G18G17G 6G29G26G10G15G16
  20979609.513    -6576526.18844  -5115399.35142  20979611.220    20979605.647
  21908864.304   -12313186.32943  -9588678.54642  21908866.123    21908862.063
  23570550.028     7063816.84043   5501121.29642  23570550.844    23570549.691
  20446692.388     -594766.72944   -462386.19642  20446694.375    20446690.340
  22792646.125    -6175852.38143  -4807520.92442  22792648.284    22792645.286
  22386951.724    -9035897.21543  -7037455.01642  22386954.195    22386950.872
  23626225.070      436745.77843    320108.81542  23626226.246    23626224.198
  24258639.564    -1883094.95043  -1430504.17942  24258641.211    24258640.471
  23757351.429    -1975638.50443  -1532324.67242  23757353.058    23757349.645
 04  5 23 16 55 30.0000000  0 10G21G18G17G 6G30G29G26G10G15G16
  20972508.300    -6613842.88044  -5144477.29942  20972510.045    20972504.467
  21893191.566   -12395546.77543  -9652855.48242  21893193.465    21893189.300
  23584581.360     7137550.66143   5558576.13742  23584582.101    23584580.844
  20451873.834     -567538.36144   -441169.31642  20451875.786    20451871.762
  23711089.051    11960053.48053   9306085.01852  23711090.797    23711089.643
  22788776.746    -6196185.39543  -4823364.84242  22788778.952    22788776.036
  22376430.017    -9091187.27243  -7080538.16342  22376432.651    22376429.545
  23645912.843      540205.34043    400726.55242  23645913.979    23645912.434
  24242717.865    -1966763.27043  -1495700.20942  24242719.483    24242719.172
  23747000.061    -2030035.84043  -1574712.21842  23747001.642    23746998.159
 04  5 23 16 56  0.0000000  0 10G21G18G17G 6G30G29G26G10G15G16
  20965448.826    -6650940.96944  -5173384.89842  20965450.573    20965445.029
  21877584.511   -12477562.99043  -9716764.18942  21877586.343    21877582.160
  23598625.918     7211354.62343   5616085.64742  23598626.818    23598625.317
  20457141.985     -539854.28544   -419597.32642  20457143.935    20457139.854
  23731212.530    12065805.61853   9388489.21052  23731214.554    23731213.717
  22785007.571    -6215992.54943  -4838799.00742  22785009.670    22785006.811
  22366006.782    -9145961.79343  -7123219.60342  22366009.295    22366006.386
  23665629.757      643818.29243    481463.79542  23665630.938    23665629.751
  24226809.330    -2050363.54043  -1560843.37742  24226810.683    24226810.527
  23736739.966    -2083950.83543  -1616723.83242  23736741.729    23736738.813
 04  5 23 16 56 30.0000000  0 10G21G18G17G 6G30G29G26G10G15G16
  20958431.501    -6687817.45644  -5202119.83242  20958433.262    20958427.770
  21862043.781   -12559229.75143  -9780400.61542  21862045.596    21862041.446
  23612684.427     7285232.12743   5673652.42342  23612685.375    23612683.779
  20462497.528     -511710.73944   -397667.31542  20462499.492    20462495.406
  23751345.220    12171601.68243   9470927.63442  23751347.041    23751346.232
  22781339.495    -6235268.96143  -4853819.54742  22781341.573    22781338.435
  22355682.941    -9200214.14243  -7165494.16642  22355685.395    22355682.549
  23685375.808      747585.73243    562321.46442  23685377.067    23685376.399
  24210914.169    -2133891.99343  -1625930.44442  24210915.307    24210915.356
  23726573.174    -2137377.99343  -1658355.38642  23726574.846    23726571.908
 04  5 23 16 57  0.0000000  0 10G21G18G17G 6G30G29G26G10G15G16
  20951455.766    -6724474.72644  -5230683.91442  20951457.571    20951452.127
  21846569.474   -12640548.46343  -9843765.78142  21846571.256    21846566.865
  23626756.278     7359179.32543   5731273.49942  23626757.107    23626755.533
  20467940.096     -483110.26844   -375381.26342  20467942.049    20467937.941
  23771484.836    12277436.19753   9553395.95052  23771486.982    23771485.849
  22777771.965    -6254016.42543  -4868427.97642  22777774.076    22777770.908
  22345458.238    -9253944.96243  -7207362.32242  22345460.675    22345457.906
  23705150.279      851501.89443    643295.00742  23705151.533    23705151.426
  24195032.717    -2217351.48743  -1690963.79142  24195033.619    24195033.103
  23716498.553    -2190318.69043  -1699607.86642  23716500.387    23716497.405
 04  5 23 16 57 30.0000000  0 10G21G18G17G 6G30G29G26G10G15G16
  20944522.601    -6760908.78144  -5259074.08142  20944524.382    20944518.963
  21831162.307   -12721513.16043  -9906855.13142  21831164.206    21831159.655
  23640841.960     7433200.49543   5788952.26142  23640842.955    23640841.374
  20473470.308     -454048.71744   -352735.92442  20473472.296    20473468.219
  23791631.651    12383310.56853   9635895.35752  23791634.111    23791632.849
  22774306.004    -6272229.30543  -4882619.83642  22774308.241    22774305.263
  22335334.105    -9307146.78143  -7248818.27942  22335336.506    22335333.970
  23724953.524      955568.50843    724385.76442  23724954.834    23724955.032
  24179164.153    -2300737.83543  -1755940.13142  24179165.137    24179164.806
  23706517.750    -2242767.21543  -1740476.84742  23706519.460    23706516.499
 04  5 23 16 58  0.0000000  0 11G22G21G18G17G 6G30G29G26G10G15G16
  24411066.033    -1036785.93653   -789500.44652  24411065.484    24411064.156
  20937630.342    -6797127.84743  -5287296.72242  20937632.100    20937626.792
  21815821.221   -12802131.07943  -9969674.26542  21815823.121    21815818.657
  23654940.053     7507286.74343   5846681.72042  23654940.847    23654939.677
  20479086.660     -424534.47644   -329737.82642  20479088.632    20479084.647
  23811785.131    12489212.96243   9718416.57442  23811787.362    23811785.192
  22770940.500    -6289914.93443  -4896400.82342  22770942.734    22770939.866
  22325309.943    -9359825.56943  -7289866.65842  22325312.292    22325309.511
  23744784.005     1059774.39743    805585.04542  23744785.326    23744784.787
  24163309.177    -2384059.25343  -1820865.92042  24163309.853    24163309.410
  23696628.902    -2294730.43943  -1780967.61342  23696630.704    23696628.358
 04  5 23 16 58 30.0000000  0 10G22G21G18G17G 6G30G29G26G15G16
  24390654.161    -1144050.09653   -873082.86452  24390656.076    24390651.838
  20930780.409    -6833124.58643  -5315346.12742  20930782.075    20930776.842
  21800547.874   -12882393.40943 -10032216.31742  21800549.750    21800545.426
  23669051.673     7581444.59843   5904466.99742  23669052.162    23669051.553
  20484790.470     -394560.30644   -306381.34042  20484792.464    20484788.616
  23831943.519    12595147.82543   9800963.19242  23831946.143    23831944.075
  22767676.969    -6307064.97743  -4909764.49942  22767679.166    22767676.323
  22315386.887    -9411971.38443  -7330499.75042  22315389.301    22315386.396
  24147467.883    -2467308.56643  -1885735.48842  24147468.349    24147468.089
  23686834.433    -2346199.68743  -1821073.52242  23686836.137    23686834.299
 04  5 23 16 59  0.0000000  0 10G22G21G18G17G 6G30G29G26G15G16
  24370268.900    -1251182.80953   -956562.81152  24370270.160    24370265.684
  20923972.615    -6868899.77144  -5343222.87742  20923974.243    20923969.021
  21785342.186   -12962299.34643 -10094480.65642  21785344.113    21785339.757
  23683176.913     7655673.17743   5962307.34542  23683177.213    23683176.871
  20490581.876     -364126.88744   -282667.01242  20490583.839    20490579.936
  23852108.086    12701111.71843   9883532.36442  23852110.336    23852108.604
  22764515.352    -6323679.12143  -4922710.57842  22764517.572    22764514.724
  22305565.678    -9463582.20743  -7370715.96142  22305568.096    22305565.276
  24131639.768    -2550486.06143  -1950549.07942  24131640.449    24131640.020
  23677134.350    -2397173.99443  -1860793.73642  23677136.005    23677134.505
 04  5 23 16 59 30.0000000  0 10G22G21G18G17G 6G30G29G26G15G16
  24349907.552    -1358183.93943  -1039940.31542  24349908.513    24349904.459
  20917206.645    -6904455.26044  -5370928.43842  20917208.226    20917203.076
  21770204.315   -13041849.36343 -10156467.64542  21770206.200    21770201.807
  23697315.525     7729970.11343   6020200.94442  23697315.456    23697315.232
  20496460.211     -333236.18944   -258596.36042  20496462.200    20496458.219
  23872277.113    12807099.80743   9966120.31342  23872279.256    23872277.839
  22761455.591    -6339758.15243  -4935239.68242  22761457.791    22761455.139
  22295846.412    -9514657.37143  -7410514.77042  22295848.851    22295846.008
  24115824.494    -2633593.71243  -2015308.20142  24115825.510    24115824.979
  23667528.487    -2447653.91643  -1900128.68442  23667530.202    23667528.692
 04  5 23 17  0  0.0000000  0 10G22G21G18G17G 6G30G29G26G15G16
  24329572.886    -1465044.90943  -1123208.58042  24329573.903    24329570.099
  20910483.728    -6939783.89743  -5398457.24342  20910485.347    20910480.329
  21755135.611   -13121035.08643 -10218170.80342  21755137.504    21755133.254
  23711467.948     7804342.01843   6078153.00142  23711467.916    23711467.903
  20502426.877     -301881.22844   -234163.93542  20502428.853    20502424.847
  23892451.474    12913115.99943  10048730.22242  23892453.588    23892452.122
  22758499.161    -6355294.24243  -4947345.73042  22758501.342    22758498.821
  22286230.835    -9565187.41843  -7449888.82242  22286233.281    22286230.402
  24100024.063    -2716624.49343  -2080007.49942  24100025.059    24100024.971
  23658018.340    -2497631.19343  -1939072.01242  23658020.042    23658018.488
 04  5 23 17  0 30.0000000  0  9G21G18G17G 6G30G29G26G15G16
  20903802.876    -6974892.44644  -5425814.55942  20903804.463    20903799.368
  21740135.536   -13199861.54243 -10279593.98142  21740137.374    21740133.105
  23725633.360     7878781.92743   6136158.06442  23725633.039    23725633.394
  20508480.641     -270068.48544   -209374.81242  20508482.645    20508478.601
  23912629.595    13019150.89143  10131354.66142  23912631.679    23912630.091
  22755644.994    -6370292.51743  -4959032.68842  22755647.134    22755644.754
  22276718.309    -9615176.13843  -7488841.03542  22276720.724    22276717.908
  24084237.758    -2799584.45843  -2144651.60342  24084238.724    24084238.050
  23648603.050    -2547110.65843  -1977627.42042  23648604.764    23648602.842
 04  5 23 17  1  0.0000000  0 10G22G21G18G17G 6G30G29G26G15G16
  24288980.311    -1289427.16652                                  24288978.343
  20897163.716    -7009781.85844  -5453001.10042  20897165.287    20897160.130
  21725203.802   -13278328.13243 -10340736.73742  21725205.678    21725201.457
  23739811.624     7953288.60743   6194215.13542  23739811.066    23739811.520
  20514621.311     -237798.91644   -184229.70642  20514623.301    20514619.341
  23932810.270    13125200.59243  10213990.66542  23932812.499    23932810.956
  22752893.170    -6384753.22843  -4970300.78242  22752895.301    22752892.980
  22267309.146    -9664622.08643  -7527370.33542  22267311.558    22267308.628
  24068463.845    -2882475.08543  -2209241.63342  24068465.262    24068464.367
  23639282.473    -2596092.05043  -2015794.67742  23639284.356    23639281.946
 04  5 23 17  1 30.0000000  0  9G21G18G17G 6G30G29G26G15G16
  20890567.935    -7044442.64343  -5480009.51042  20890569.536    20890564.454
  21710342.535   -13356424.44143 -10401591.00342  21710344.405    21710340.226
  23754004.331     8027870.75943   6252331.04042  23754003.927    23754003.905
  20520850.740     -205063.44344   -158721.57342  20520852.730    20520848.668
  23952995.339    13231271.77043  10296643.43742  23952997.373    23952995.880
  22750245.743    -6398665.99643  -4981141.90142  22750247.906    22750245.435
  22258005.505    -9713513.28843  -7565467.35442  22258007.879    22258004.886
  24052704.924    -2965286.56443  -2273770.00142  24052706.560    24052706.004
  23630058.749    -2644564.42243  -2053565.33642  23630060.614    23630057.905
 04  5 23 17  2  0.0000000  0  9G21G18G17G 6G30G29G26G15G16
  20884013.637    -7078886.12944  -5506848.58342  20884015.192    20884010.079
  21695549.763   -13434161.10043 -10462164.99042  21695551.662    21695547.425
  23768209.136     8102516.15643   6310496.15442  23768208.759    23768208.383
  20527166.514     -171873.99644   -132859.68742  20527168.518    20527164.422
  23973181.527    13337349.36143  10379301.15842  23973183.519    23973181.792
  22747700.452    -6412041.88643  -4991564.66642  22747702.688    22747700.193
  22248805.176    -9761859.23443  -7603139.47342  22248807.692    22248804.926
  24036959.068    -3048030.90943  -2338246.09642  24036960.700    24036960.383
  23620929.709    -2692538.50043  -2090947.72642  23620931.520    23620928.725
 04  5 23 17  2 30.0000000  0 10G22G21G18G17G 6G30G29G26G15G16
  24228294.154
  20877501.475    -7113107.46643  -5533514.54742  20877503.059    20877497.977
  21680826.561   -13511531.69843 -10522453.73942  21680828.470    21680824.179
  23782426.388     8177229.19643   6368714.01842  23782426.506    23782425.046
  20533569.473     -138226.00944   -106640.49942  20533571.492    20533567.444
  23993369.069    13443435.13543  10461965.30742  23993371.170    23993369.305
  22745258.353    -6424875.12143  -5001564.57142  22745260.663    22745258.255
  22239710.481    -9809652.64343  -7640381.05642  22239712.791    22239710.114
  24021227.075    -3130702.98743  -2402665.87542  24021228.859    24021228.338
  23611896.468    -2740008.40343  -2127937.19942  23611898.456    23611895.465
 04  5 23 17  3  0.0000000  0  9G21G18G17G 6G30G29G26G15G16
  20871031.480    -7147107.24944  -5560007.87342  20871033.092    20871027.979
  21666173.424   -13588534.00643 -10582455.50842  21666175.368    21666171.096
  23796656.843     8252010.59243   6426985.23142  23796657.015    23796655.063
  20540059.958     -104118.37944    -80063.14442  20540061.965    20540057.964
  24013557.975    13549527.47643  10544634.53442  24013560.029    24013558.124
  22742919.886    -6437163.73643  -5011140.09642  22742922.192    22742919.825
  22230721.467    -9856889.91143  -7677189.28842  22230723.818    22230721.228
  24005509.103    -3213301.86543  -2467028.59342  24005510.856    24005510.350
  23602959.614    -2786971.48743  -2164531.82542  23602961.786    23602958.354
 04  5 23 17  3 30.0000000  0 10G22G21G18G17G 6G30G29G26G15G16
  24187975.521
  20864603.811    -7180884.74243  -5586327.99342  20864605.435    20864600.265
  21651590.810   -13665166.28143 -10642168.95842  21651592.715    21651588.501
  23810900.229     8326859.94943   6485309.27542  23810900.670    23810898.460
  20546637.929      -69551.28444    -53127.76842  20546639.902    20546635.896
  24033747.579    13655623.66243  10627306.78142  24033749.601    24033747.707
  22740685.234    -6448906.86543  -5020290.56842  22740687.612    22740685.157
  22221838.609    -9903568.58843  -7713562.28342  22221840.954    22221838.495
  23989804.970    -3295827.21143  -2531334.03542  23989806.763    23989806.231
  23594119.526    -2833426.17743  -2200730.29442  23594121.676    23594118.095
 04  5 23 17  4  0.0000000  0 10G22G21G18G17G 6G30G29G26G15G16
  24167858.879
  20858218.444    -7214440.04744  -5612474.98142  20858219.976    20858214.859
  21637078.866   -13741427.13043 -10701592.96642  21637080.758    21637076.564
  23825156.357     8401777.49843   6543686.52442  23825157.071    23825154.646
  20553303.312      -34524.37744    -25834.08842  20553305.298    20553301.273
  24053937.153    13761721.01243  10709979.89542  24053939.382    24053937.412
  22738554.706    -6460103.08643  -5029014.88042  22738557.059    22738554.670
  22213062.786    -9949685.68243  -7749497.65042  22213065.171    22213062.547
  23974114.747    -3378278.73443  -2595581.92942  23974116.588    23974116.355
  23585376.102    -2879371.14743  -2236531.53242  23585378.407    23585374.840
 04  5 23 17  4 30.0000000  0 10G22G21G18G17G 6G30G29G26G15G16
  24147770.679    -1498825.03053   -939186.80252  24147770.651    24147768.278
  20851875.399    -7247772.85744  -5638448.58942  20851876.994    20851871.844
  21622637.674   -13817316.60343 -10760727.58342  21622639.531    21622635.096
  23839425.146     8476761.09243   6602115.28342  23839425.587    23839423.245
  20560055.930         960.58944      1816.51842  20560057.928    20560053.824
  24074126.207    13867815.18843  10792650.57542  24074128.369    24074126.418
  22736528.040    -6470753.28543  -5037313.71742  22736530.424    22736528.052
  22204394.082    -9995240.46043  -7784994.82442  22204396.520    22204393.597
  23958438.410    -3460657.70743  -2659773.29142  23958440.051    23958440.036
  23576729.975    -2924806.43743  -2271935.59442  23576732.063    23576728.869
 04  5 23 17  5  0.0000000  0 10G22G21G18G17G 6G30G29G26G15G16
  24127712.559    -1604230.42943  -1021320.82642  24127712.777    24127710.421
  20845575.463    -7280879.29044  -5664245.79142  20845577.067    20845571.929
  21608268.177   -13892828.95943 -10819568.36042  21608270.062    21608265.597
  23853707.337     8551814.98943   6660598.75142  23853707.969    23853705.557
  20566896.478       36907.78944     29827.30342  20566898.466    20566894.323
  24094315.146    13973907.69143  10875319.95742  24094317.232    24094315.143
  22734606.237    -6480852.27943  -5045183.04542  22734608.622    22734606.146
  22195833.571   -10040226.14343  -7820048.58142  22195835.976    22195833.192
  23942777.192    -3542959.65343  -2723904.63942  23942778.656    23942778.357
  23568182.015    -2969726.57943  -2306938.32342  23568184.108    23568180.870
 04  5 23 17  5 30.0000000  0 10G22G21G18G17G 6G30G29G26G15G16
  24107683.856    -1709482.14843  -1103335.09042  24107684.597    24107681.562
  20839317.462    -7313765.18843  -5689871.16242  20839319.052    20839313.930
  21593969.563   -13967968.34443 -10878118.51142  21593971.428    21593967.026
  23868001.769     8626932.98443   6719132.21642  23868002.825    23867999.796
  20573823.934       73311.63044     58193.91642  20573825.888    20573821.772
  24114502.108    14079990.33743  10957981.63842  24114504.294    24114502.244
  22732788.223    -6490404.74143  -5052626.48942  22732790.628    22732788.346
  22187380.559   -10084645.89843  -7854661.35842  22187383.062    22187380.246
  23927129.219    -3625189.80043  -2787980.04942  23927130.971    23927130.414
  23559731.438    -3014135.47243  -2341542.65042  23559733.576    23559729.992
 04  5 23 17  6  0.0000000  0 10G22G21G18G17G 6G30G29G26G15G16
  24087685.096    -1814577.23943  -1185227.32342  24087686.038    24087682.669
  20833101.768    -7346428.89844  -5715323.39542  20833103.363    20833098.225
  21579742.566   -14042732.02743 -10936375.88942  21579744.449    21579739.903
  23882308.797     8702116.58043   6777716.67842  23882309.954    23882306.986
  20580838.480      110173.24244     86917.23142  20580840.435    20580836.288
  24134687.078    14186061.60243  11040634.40042  24134689.152    24134687.163
  22731075.021    -6499408.26943  -5059642.21842  22731077.348    22731075.027
  22179036.213   -10128495.74643  -7888830.02842  22179038.701    22179035.708
  23911494.839    -3707346.94243  -2851998.52842  23911496.809    23911496.627
  23551378.535    -3058030.62743  -2375746.65942  23551380.664    23551376.930
 04  5 23 17  6 30.0000000  0 10G22G21G18G17G 6G30G29G26G15G16
  24067716.679    -1919509.34543  -1266992.54742  24067718.062    24067714.445
  20826929.186    -7378865.84143  -5740598.93242  20826930.829    20826925.735
  21565588.012   -14117114.15143 -10994335.96242  21565589.989    21565585.499
  23896628.925     8777369.53343   6836355.30942  23896630.239    23896627.659
  20587940.944      147496.93344    116000.60742  20587942.907    20587938.771
  24154870.085    14292123.00643  11123279.51242  24154872.361    24154870.060
  22729467.084    -6507857.95643  -5066226.38342  22729469.368    22729467.139
  22170801.594   -10171769.12043  -7922549.51342  22170804.114    22170801.013
  23895875.714    -3789426.34643  -2915956.46742  23895877.433    23895877.586
  23543124.068    -3101406.62243  -2409546.10942  23543126.183    23543122.819
 04  5 23 17  7  0.0000000  0 11G22G21G18G17G 6G30G29G26G10G15G16
  24047778.556    -2024285.08343  -1348635.95342  24047779.845    24047775.719
  20820798.218    -7411084.42844  -5765704.32242  20820799.826    20820794.650
  21551504.777   -14191122.08343 -11052004.47142  21551506.676    21551502.236
  23910960.619     8852683.21343   6895041.19642  23910961.999    23910959.786
  20595129.729      185274.03444    145437.29342  20595131.706    20595127.505
  24175048.872    14398163.48243  11205908.30242  24175051.211    24175048.944
  22727963.156    -6515761.48643  -5072384.97242  22727965.415    22727963.121
  22162675.587   -10214472.12743  -7955824.57042  22162678.000    22162674.917
  24105921.361
  23880270.058    -3871436.23743  -2979860.22242  23880271.524    23880271.314
  23534967.000    -3144270.45343  -2442946.47842  23534969.139    23534966.354
 04  5 23 17  7 30.0000000  0 11G22G21G18G17G 6G30G29G26G10G15G16
  24027872.193    -2128894.28743  -1430149.57042  24027873.364    24027868.851
  20814710.332    -7443076.24943  -5790633.00142  20814711.974    20814706.717
  21537494.607   -14264745.94843 -11109373.69042  21537496.468    21537492.028
  23925305.441     8928065.76143   6953780.76742  23925306.816    23925305.172
  20602406.295      223512.59644    175233.55842  20602408.310    20602404.105
  24195224.892    14504188.58943  11288525.14542  24195226.976    24195225.024
  22726564.892    -6523109.58743  -5078110.75342  22726567.144    22726564.777
  22154660.022   -10256594.00343  -7988646.78042  22154662.479    22154659.332
  24126187.694
  23864678.825    -3953367.95843  -3043703.06642  23864680.493    23864680.078
  23526909.818    -3186612.40443  -2475940.18842  23526911.698    23526908.962
 04  5 23 17  8  0.0000000  0 11G22G21G18G17G 6G30G29G26G10G15G16
  24007996.916    -2233337.56243  -1511533.90842  24007998.083    24007993.438
  20808665.283    -7474843.38944  -5815386.60542  20808666.906    20808661.544
  21523557.225   -14337986.97643 -11166444.58742  21523559.138    21523554.696
  23939662.868     9003514.42043   7012571.86142  23939664.246    23939663.153
  20609770.251      262210.08344    205387.43142  20609772.257    20609768.019
  24215397.125    14610193.15543  11371125.94142  24215399.231    24215396.703
  22725272.072    -6529903.92043  -5083405.05242  22725274.361    22725271.747
  22146755.184   -10298134.88743  -8021016.23442  22146757.703    22146754.240
  24146471.584     -768931.18453   -657852.12552  24146473.158    24146474.193
  23849102.371    -4035223.90243  -3107486.88642  23849103.995    23849103.446
  23518951.443    -3228433.84443  -2508528.29942  23518953.257    23518950.478
 04  5 23 17  8 30.0000000  0 10G22G21G18G17G 6G30G29G26G15G16
  23988153.727    -2337615.33543  -1592789.25342  23988154.928    23988149.972
  20802662.490    -7506388.17544  -5839966.95342  20802664.119    20802658.762
  21509692.656   -14410846.10843 -11223217.91942  21509694.527    21509689.938
  23954032.335     9079026.71343   7071412.52042  23954033.789    23954033.144
  20617221.117      301364.18244    235897.10042  20617223.127    20617218.825
  24235564.269    14716172.18543  11453706.93542  24235566.429    24235564.105
  22724084.230    -6536146.21543  -5088269.17442  22724086.592    22724083.782
  22138960.839   -10339094.60943  -8052932.86942  22138963.340    22138959.908
  23833539.755    -4117006.07243  -3171213.20542  23833541.430    23833540.975
  23511092.025    -3269735.79543  -2540711.62642  23511093.779    23511090.810
 04  5 23 17  9  0.0000000  0 10G22G21G18G17G 6G30G29G26G15G16
  23968342.320    -2441725.14743  -1673913.66942  23968343.402    23968339.463
  20796702.173    -7537709.62644  -5864373.27542  20796703.831    20796698.495
  21495901.052   -14483321.28043 -11279692.05142  21495902.947    21495898.293
  23968414.205     9154603.15943   7130303.16642  23968415.600    23968415.071
  20624758.856      340975.28444    266762.87542  20624760.870    20624756.597
  24255726.102    14822123.57643  11536266.36342  24255728.247    24255726.504
  22723001.709    -6541834.93043  -5092701.92942  22723004.120    22723001.380
  22131277.500   -10379470.17943  -8084394.34042  22131280.011    22131276.876
  23817991.263    -4198713.46543  -3234881.24342  23817992.984    23817992.494
  23503331.722    -3310516.30243  -2572488.60742  23503333.572    23503330.500
 04  5 23 17  9 30.0000000  0 10G22G21G18G17G 6G30G29G26G15G16
  23948564.138    -2545660.03043  -1754901.81742  23948565.142    23948561.827
  20790785.297    -7568802.85944  -5888601.75942  20790786.963    20790781.661
  21482183.782   -14555406.02443 -11335861.95542  21482185.647    21482181.040
  23982809.302     9230248.66543   7189247.60142  23982810.706    23982810.148
  20632384.378      381048.28244    297988.57642  20632386.399    20632382.224
  24275883.371    14928049.91243  11618806.21242  24275885.763    24275883.917
  22722025.756    -6546964.17243  -5096698.75142  22722028.154    22722025.227
  22123706.664   -10419254.27843  -8115394.88542  22123709.119    22123706.262
  23802457.866    -4280340.83143  -3298486.91442  23802459.842    23802459.031
  23495671.815    -3350769.14343  -2603854.45442  23495673.573    23495670.713
 04  5 23 17 10  0.0000000  0 11G22G21G18G17G 6G30G29G26G10G15G16
  23928817.430    -2649428.66843  -1835760.40342  23928818.531    23928815.150
  20784909.991    -7599677.71144  -5912660.06142  20784911.699    20784906.339
  21468538.870   -14627109.71843 -11391734.94942  21468540.765    21468536.229
  23997215.332     9305952.26743   7248237.36542  23997216.775    23997216.368
  20640095.901      421572.39544    329565.78442  20640097.913    20640093.687
  24296033.260    15033937.79343  11701316.10742  24296035.758    24296033.910
  22721154.241    -6551544.05943  -5100267.48942  22721156.660    22721153.521
  22116246.891   -10458455.30143  -8145941.07742  22116249.321    22116246.529
  24227786.517    -1010414.99353   -806975.17152  24227787.117    24227781.369
  23786937.932    -4361898.54143  -3362038.32942  23786939.988    23786939.230
  23488110.429    -3390503.92243  -2634816.58142  23488112.223    23488109.464
 04  5 23 17 10 30.0000000  0 11G22G21G18G17G 6G30G29G26G10G15G16
  23909105.371    -2753017.66543  -1916479.05142  23909106.509    23909101.956
  20779078.551    -7630322.20544  -5936538.87942  20779080.249    20779074.971
  21454969.189   -14698419.35643 -11447300.86442  21454971.030    21454966.436
  24011634.671     9381725.41443   7307281.30242  24011635.956    24011635.764
  20647895.417      462558.82844    361503.22942  20647897.440    20647893.119
  24316177.073    15139796.17943  11783802.98842  24316179.598    24316178.084
  22720389.733    -6555562.28343  -5103398.56542  22720392.102    22720388.862
  22108900.778   -10497059.35243  -8176022.09442  22108903.313    22108900.345
  24248152.964     -903371.52653   -723564.73952  24248155.228    24248152.553
  23771433.470    -4443374.78543  -3425526.26942  23771435.404    23771434.818
  23480650.207    -3429707.76043  -2665365.00242  23480651.954    23480649.259
 04  5 23 17 11  0.0000000  0 11G22G21G18G17G 6G30G29G26G10G15G16
  23889425.424    -2856435.19043  -1997064.08042  23889426.862    23889422.333
  20773288.965    -7660746.82144  -5960246.37742  20773290.684    20773285.448
  21441472.722   -14769343.66543 -11502566.53242  21441474.583    21441469.871
  24026065.222     9457557.94143   7366371.51242  24026066.344    24026066.354
  20655780.869      503997.60244    393793.17042  20655782.871    20655778.752
  24336313.042    15245612.38943  11866257.02742  24336315.585    24336314.392
  22719730.099    -6559028.08843  -5106099.21242  22719732.536    22719729.332
  22101666.777   -10535074.02943  -8205643.89242  22101669.286    22101666.432
  24268536.262     -796250.61743   -640093.94342  24268539.044    24268537.625
  23755942.818    -4524779.47543  -3488958.42042  23755944.680    23755943.940
  23473289.338    -3468389.27043  -2695506.39142  23473291.109    23473288.550
 04  5 23 17 11 30.0000000  0 11G22G21G18G17G 6G30G29G26G10G15G16
  23869780.493    -2959671.93143  -2077508.18642  23869781.691    23869777.138
  20767542.655    -7690943.69744  -5983776.39542  20767544.361    20767539.133
  21428051.211   -14839873.62543 -11557524.92442  21428053.085    21428048.549
  24040508.784     9533457.27843   7425513.78142  24040509.679    24040509.829
  20663753.873      545895.72344    426441.03742  20663755.826    20663751.825
  24356442.992    15351391.51043  11948682.10642  24356444.857    24356443.857
  22719177.508    -6561933.28843  -5108363.02042  22719179.866    22719176.452
  22094546.673   -10572489.82943  -8234799.02342  22094549.148    22094546.507
  24288936.354     -689046.67353   -556558.50852  24288939.129    24288937.377
  23740467.324    -4606104.61843  -3552328.61442  23740469.038    23740468.474
  23466029.629    -3506539.88443  -2725234.11442  23466031.424    23466028.995
 04  5 23 17 12  0.0000000  0 11G22G21G18G17G 6G30G29G26G10G15G16
  23850169.230    -3062729.54943  -2157812.74542  23850170.460    23850166.001
  20761839.163    -7720916.02544  -6007131.44742  20761840.857    20761835.559
  21414704.328   -14910011.84143 -11612178.06342  21414706.235    21414701.797
  24054964.154     9609419.48443   7484704.99742  24054964.948    24054965.166
  20671813.528      588249.52244    459443.97842  20671815.511    20671811.502
  24376563.748    15457126.95943  12031073.30442  24376565.858    24376564.857
  22718730.733    -6564281.11543  -5110192.49342  22718733.115    22718729.758
  22087540.517   -10609308.13943  -8263488.58142  22087542.963    22087540.273
  24309351.813     -581765.68443   -472963.09442  24309354.064    24309351.559
  23725005.855    -4687353.49143  -3615639.36642  23725007.880    23725007.131
  23458870.533    -3544162.20643  -2754550.19842  23458872.341    23458869.781
 04  5 23 17 12 30.0000000  0 10G22G21G18G17G 6G30G29G26G15G16
  23830592.552    -3165605.02043  -2237975.31242  23830593.618    23830589.253
  20756178.549    -7750662.52043  -6030310.52742  20756180.208    20756175.080
  21401432.563   -14979755.88843 -11666524.01942  21401434.494    21401429.878
  24069431.713     9685445.78743   7543946.17842  24069432.246    24069432.653
  20679960.088      631059.81844    492802.61942  20679962.043    20679958.013
  24396676.163    15562817.63743  12113429.55042  24396678.030    24396677.026
  22718390.339    -6566069.55843  -5111586.11542  22718392.800    22718389.460
  22080648.590   -10645525.59443  -8291709.95142  22080651.089    22080648.350
  23709559.512    -4768524.86443  -3678889.67542  23709561.505    23709560.596
  23451812.191    -3581253.81843  -2783452.68942  23451814.088    23451811.581
 04  5 23 17 13  0.0000000  0 10G22G21G18G17G 6G30G29G26G15G16
  23811050.117    -3268299.72743  -2317997.16242  23811051.200    23811047.019
  20750560.379    -7780186.10843  -6053315.91142  20750561.952    20750556.958
  21388235.224   -15049107.56343 -11720564.27842  21388237.237    21388232.626
  24083910.531     9761532.36943   7603234.38642  24083911.090    24083911.580
  20688192.755      674323.01944    526514.18442  20688194.692    20688190.709
  24416778.718    15668457.40343  12195746.15342  24416780.830    24416779.841
  22718155.820    -6567301.64243  -5112546.17342  22718158.261    22718154.992
  22073870.718   -10681143.23343  -8319463.92742  22073873.220    22073870.544
  23694127.255    -4849621.62143  -3742081.95742  23694129.330    23694128.311
  23444854.279    -3617817.09343  -2811943.51742  23444856.288    23444853.691
 04  5 23 17 13 30.0000000  0 10G22G21G18G17G 6G30G29G26G15G16
  23791544.194    -3370804.32343  -2397870.75442  23791545.002    23791541.178
  20744986.181    -7809478.93943  -6076141.48742  20744987.705    20744982.599
  21375114.352   -15118058.15443 -11774291.98642  21375116.336    21375111.675
  24098402.389     9837687.15643   7662575.69742  24098402.631    24098403.480
  20696513.112      718046.62544    560584.50242  20696515.051    20696511.062
  24436872.827    15774051.33743  12278027.01142  24436875.137    24436873.782
  22718028.879    -6567968.84643  -5113066.08842  22718031.339    22718028.053
  22067208.960   -10716151.40343  -8346742.98542  22067211.433    22067208.636
  23678710.828    -4930635.91643  -3805209.89342  23678712.761    23678711.249
  23437998.666    -3653843.02643  -2840015.65942  23438000.729    23437997.981
 04  5 23 17 14  0.0000000  0 10G22G21G18G17G 6G30G29G26G15G16
  23772073.061    -3473126.04843  -2477601.95942  23772073.795    23772070.152
  20739454.078    -7838550.22243  -6098794.42142  20739455.624    20739450.401
  21362068.380   -15186615.76543 -11827713.46642  21362070.328    21362065.543
  24112905.182     9913900.22943   7721962.46342  24112905.414    24112906.224
  20704919.199      762220.69644    595005.83642  20704921.168    20704917.169
  24456956.168    15879587.53943  12360262.87042  24456957.972    24456956.870
  22718007.606    -6568080.34443  -5113152.96142  22718010.021    22718006.762
  22060661.796   -10750557.45243  -8373552.86042  22060664.288    22060661.420
  23663308.709    -5011576.68343  -3868280.54942  23663310.499    23663308.430
  23431243.731    -3689340.33043  -2867675.84642  23431245.779    23431242.777
 04  5 23 17 14 30.0000000  0 10G22G21G18G17G 6G30G29G26G15G16
  23752637.847    -3575257.82643  -2557185.06342  23752638.818    23752634.556
  20733965.380    -7867393.87244  -6121269.98642  20733966.889    20733961.598
  21349098.450   -15254773.29443 -11880823.21242  21349100.374    21349095.430
  24127420.653     9990177.28343   7781399.00742  24127420.525    24127421.160
  20713412.084      806850.75644    629782.49642  20713414.059    20713410.074
  24477028.254    15985069.10143  12442456.11342  24477030.557    24477029.435
  22718093.424    -6567629.67643  -5112801.79342  22718095.808    22718092.488
  22054230.676   -10784353.42943  -8399887.37442  22054233.116    22054230.262
  23647921.340    -5092437.93443  -3931289.28542  23647923.169    23647921.139
  23424590.524    -3724302.12243  -2894918.76342  23424592.608    23424589.662
 04  5 23 17 15  0.0000000  0 10G22G21G18G17G 6G30G29G26G15G16
  23733239.768    -3677195.27743  -2636616.76642  23733240.595    23733236.152
  20728520.415    -7896007.33643  -6143566.19042  20728521.969    20728516.709
  21336205.148   -15322527.36243 -11933618.56342  21336207.114    21336202.287
  24141947.753    11641940.78953   9068487.38652  24141949.159    24141948.538
  20721992.121      851938.78944    664916.00242  20721994.111    20721990.025
  24497090.325    16090496.06143  12524606.80542  24497092.822    24497091.700
  22718286.746    -6566614.10443  -5112010.46742  22718289.143    22718285.791
  22047916.503   -10817534.99043  -8425743.12642  22047918.904    22047915.922
  23632549.170    -5173217.28943  -3994234.11942  23632551.164    23632549.154
  23418039.619    -3758724.91843  -2921741.73842  23418041.589    23418039.098
 04  5 23 17 15 30.0000000  0 10G22G21G18G17G 6G30G29G26G15G16
  23713877.530    -3778940.60443  -2715898.77342  23713878.847    23713874.462
  20723118.564    -7924394.37544  -6165685.96442  20723120.095    20723114.936
  21323388.283   -15389880.72743 -11986101.66442  21323390.276    21323385.263
  24156487.682    11718345.97143   9128023.78042  24156489.233    24156487.749
  20730658.447      897480.28444    700402.85242  20730660.465    20730656.194
  24517140.737    16195861.17543  12606709.31242  24517143.108    24517142.098
  22718586.788    -6565037.40543  -5110781.89842  22718589.284    22718585.848
  22041718.822   -10850104.28043  -8451121.78442  22041721.246    22041718.217
  23617192.267    -5253918.53643  -4057118.14342  23617194.141    23617191.997
  23411590.945    -3792611.89343  -2948147.14842  23411592.793    23411590.573
 04  5 23 17 16  0.0000000  0 10G22G21G18G17G 6G30G29G26G15G16
  23694551.877    -3880500.41643  -2795036.19642  23694552.791    23694548.447
  20717758.198    -7952563.30944  -6187635.76442  20717759.798    20717754.554
  21310646.126   -15456840.71543 -12038278.25642  21310648.120    21310643.022
  24171037.202    11794804.67443   9187601.86142  24171038.763    24171037.357
  20739409.362      943466.50444    736236.23542  20739411.356    20739406.965
  24537177.794    16301153.80543  12688755.37542  24537179.931    24537178.735
  22718992.145    -6562907.38043  -5109122.14842  22718994.627    22718991.099
  22035636.480   -10882067.74143  -8476028.35742  22035638.919    22035635.742
  23601848.807    -5334549.75443  -4119947.58742  23601850.599    23601848.294
  23405242.958    -3825970.48243  -2974140.80742  23405244.916    23405242.625
 04  5 23 17 16 30.0000000  0 10G22G21G18G17G 6G30G29G26G15G16
  23675263.900    -3981862.47043  -2874019.52042  23675264.770    23675259.747
  20712441.457    -7980503.04344  -6209406.96342  20712443.111    20712437.728
  21297981.113   -15523395.44343 -12090139.06742  21297983.093    21297978.096
  24185598.711    11871327.23053   9247229.76352  24185600.042    24185598.850
  20748246.748      989907.61244    772424.09642  20748248.750    20748244.452
  24557202.745    16406382.04243  12770751.17042  24557204.794    24557203.067
  22719504.738    -6560213.20343  -5107022.76742  22719507.197    22719503.712
  22029671.550   -10913412.84443  -8500453.08242  22029674.015    22029670.846
  23586520.538    -5415100.02343  -4182713.98042  23586522.300    23586520.184
  23398997.884    -3858789.33843  -2999713.92442  23398999.759    23398997.237
 04  5 23 17 17  0.0000000  0 10G22G21G18G17G 6G30G29G26G15G16
  23656013.518    -4083023.27743  -2952846.05442  23656014.445    23656009.162
  20707168.574    -8008211.93743  -6230998.28942  20707170.248    20707164.904
  21285393.802   -15589542.13843 -12141681.90242  21285395.774    21285390.829
  24200173.217    11947915.11943   9306908.56042  24200174.286    24200173.225
  20757170.982     1036804.70644    808967.26242  20757173.014    20757168.827
  24577214.659    16511544.97143  12852696.23242  24577216.975    24577214.988
  22720125.090    -6556952.99443  -5104482.37742  22720127.482    22720124.120
  22023825.131   -10944136.01243  -8524393.21242  22023827.510    22023824.327
  23571207.982    -5495567.30843  -4245415.64742  23571209.834    23571207.807
  23392855.744    -3891065.95743  -3024864.51242  23392857.574    23392854.802
 04  5 23 17 17 30.0000000  0 10G22G21G18G17G 6G30G29G26G15G16
  23636800.445    -4183985.22743  -3031517.63542  23636801.493    23636797.282
  20701938.734    -8035694.12044  -6252412.98042  20701940.451    20701935.348
  21272883.625   -15655284.01043 -12192909.32042  21272885.571    21272880.523
  24214759.138    12024564.00943   9366634.86042  24214760.056    24214759.176
  20766181.176     1084153.27844    845862.23442  20766183.203    20766179.012
  24597212.483    16616635.46643  12934584.90942  24597215.022    24597213.201
  22720852.574    -6553130.38443  -5101503.70642  22720854.929    22720851.578
  22018096.531   -10974239.60843  -8547850.54942  22018098.932    22018095.708
  23555910.657    -5575955.51643  -4308055.74642  23555912.454    23555910.436
  23386816.366    -3922803.59843  -3049595.11842  23386818.133    23386815.148
 04  5 23 17 18  0.0000000  0 10G22G21G18G17G 6G30G29G26G15G16
  23617626.777    -4284746.11743  -3110032.56642  23617627.346    23617623.204
  20696752.527    -8062948.54744  -6273650.18842  20696754.167    20696748.980
  21260450.849   -15720619.03043 -12243819.69142  21260452.728    21260447.641
  24229356.426    12101274.16843   9426408.97242  24229357.440    24229356.742
  20775277.237     1131953.22844    883108.92642  20775279.274    20775275.011
  24617196.527    16721651.67043  13016415.63142  24617198.862    24617197.630
  22721687.179    -6548744.79943  -5098086.36442  22721689.600    22721686.198
  22012486.372   -11003721.26043  -8570823.26142  22012488.757    22012485.294
  23540628.247    -5656264.00343  -4370633.69142  23540630.170    23540628.311
  23380879.872    -3954000.85243  -3073904.63942  23380881.564    23380878.684
 04  5 23 17 18 30.0000000  0 10G22G21G18G17G 6G30G29G26G15G16
  23598490.629    -4385303.37143  -3188388.75742  23598491.657    23598487.551
  20691609.554    -8089974.57744  -6294709.41442  20691611.322    20691606.035
  21248095.637   -15785545.63243 -12294411.81942  21248097.585    21248092.676
  24243965.522    12178046.47243   9486231.52342  24243966.739    24243966.456
  20784459.349     1180205.12844    920707.77942  20784461.367    20784457.041
  24637165.834    16826591.99943  13098187.23842  24637168.309    24637167.330
  22722629.128    -6543794.96543  -5094229.34742  22722631.571    22722628.185
  22006995.038   -11032578.08543  -8593309.08742  22006997.409    22006994.012
  23525361.447    -5736491.66843  -4433148.64842  23525363.313    23525361.417
  23375046.677    -3984656.07343  -3097791.81642  23375048.320    23375045.266
 04  5 23 17 19  0.0000000  0 10G22G21G18G17G 6G30G29G26G15G16
  23579394.186    -4485655.56543  -3266585.26442  23579395.126    23579391.010
  20686510.151    -8116771.97944  -6315590.49042  20686511.910    20686506.669
  21235818.247   -15850063.15343 -12344685.17242  21235820.215    21235815.425
  24258586.602    12254880.18943   9546101.86342  24258587.661    24258587.431
  20793727.209     1228907.90644    958657.95642  20793729.221    20793724.897
  24657120.583    16931453.26443  13179897.16742  24657122.913    24657121.978
  22723678.355    -6538281.14143  -5089932.86842  22723680.776    22723677.566
  22001622.904   -11060808.96343  -8615307.17142  22001625.162    22001621.883
  23510109.849    -5816638.76043  -4495600.84842  23510111.822    23510109.799
  23369316.103    -4014768.92443  -3121256.34342  23369317.887    23369315.226
 04  5 23 17 19 30.0000000  0 10G22G21G18G17G 6G30G29G26G15G16
  23560336.744    -4585804.28243  -3344623.17242  23560337.440    23560333.240
  20681453.673    -8143343.78944  -6336295.80142  20681455.429    20681450.269
  21223618.439   -15914173.91843 -12394641.58742  21223620.315    21223615.523
  24273218.512    12331771.68643   9606017.25242  24273219.608    24273219.683
  20803080.057     1278057.54744    996956.37342  20803082.070    20803077.856
  24677058.946    17036229.73443  13261541.00042  24677061.052    24677060.276
  22724834.082    -6532206.43843  -5085199.34942  22724836.511    22724833.586
  21996369.504   -11088415.47643  -8636818.74542  21996371.884    21996368.458
  23494872.848    -5896708.37343  -4557992.68642  23494874.830    23494873.129
  23363688.370    -4044341.97843  -3144300.24942  23363690.195    23363687.802
 04  5 23 17 20  0.0000000  0 10G22G21G18G17G 6G30G29G26G15G16
  23541318.838    -4685744.77543  -3422498.79142  23541319.545    23541315.304
  20676440.747    -8169686.74444  -6356822.76942  20676442.516    20676437.434
  21211496.703   -15977873.53343 -12444277.63642  21211498.626    21211493.829
  24287862.098    12408724.24243   9665980.23542  24287863.448    24287863.204
  20812518.466     1327656.85844   1035605.16942  20812520.472    20812516.362
  24696981.443    17140921.86243  13343119.19442  24696983.746    24696982.807
  22726097.324    -6525567.64243  -5080026.26842  22726099.728    22726097.005
  21991235.765   -11115392.73843  -8657839.98042  21991238.135    21991234.778
  23479651.620    -5976696.99243  -4620321.40442  23479653.452    23479651.995
  23358164.363    -4073371.28843  -3166920.49442  23358166.235    23358163.601
 04  5 23 17 20 30.0000000  0 10G22G21G18G17G 6G29G26G10G15G16
  23522341.855    -4785470.29443  -3500206.92342  23522342.408    23522338.483
  20671472.310    -8195795.37144  -6377167.13242  20671474.133    20671469.129
  21199454.507   -16041156.00543 -12493588.61842  21199456.367    21199451.653
  24302518.114    12485742.66243   9725994.54342  24302519.453    24302519.510
  20822043.355     1377710.49044   1074607.97542  20822045.358    20822041.224
  22727469.185    -6518359.26543  -5074409.34442  22727471.568    22727468.711
  21986223.245   -11141733.80443  -8678365.45342  21986225.592    21986222.184
  24658252.650
  23464446.578    -6056599.19143  -4682582.77342  23464448.415    23464447.015
  23352745.125    -4101851.11043  -3189112.57342  23352746.995    23352743.863
 04  5 23 17 21  0.0000000  0 10G22G21G18G17G 6G29G26G10G15G16
  23503404.258    -4884988.41043  -3577753.42042  23503405.010    23503401.001
  20666546.720    -8221679.27344  -6397336.39942  20666548.508    20666543.554
  21187489.947   -16104029.91343 -12542581.25142  21187491.779    21187487.166
  24317184.972    12562817.14243   9786052.48842  24317186.339    24317186.745
  20831652.706     1428207.89544   1113956.57542  20831654.696    20831650.575
  22728947.640    -6510591.08543  -5068356.20942  22728949.970    22728946.838
  21981330.333   -11167446.72143  -8698401.50642  21981332.620    21981329.205
  24678859.578
  23449256.318    -6136424.25643  -4744784.00142  23449258.197    23449256.616
  23347428.669    -4129790.17043  -3210883.22742  23347430.397    23347426.985
 04  5 23 17 21 30.0000000  0  9G22G21G18G17G 6G29G26G15G16
  23484506.923    -4984291.73343  -3655132.53742  23484507.792    23484503.940
  20661665.085    -8247332.25344  -6417325.72542  20661666.836    20661661.924
  21175604.455   -16166488.47743 -12591250.23242  21175606.341    21175601.718
  24331863.575    12639953.41843   9846158.54442  24331865.051    24331865.705
  20841347.471     1479154.56743   1153655.25342  20841349.489    20841345.488
  22730533.536    -6502256.86843  -5061862.00242  22730535.945    22730532.782
  21976558.260   -11192523.91843  -8717942.16642  21976560.592    21976557.174
  23434081.950    -6216166.27543  -4806920.56942  23434083.680    23434082.084
  23342216.165    -4157182.07143  -3232227.53342  23342217.969    23342214.529
 04  5 23 17 22  0.0000000  0  9G22G21G18G17G 6G29G26G15G16
  23465649.913    -5083382.42843  -3732346.02442  23465651.067    23465647.379
  20656826.886    -8272757.83744  -6437137.85842  20656828.593    20656823.620
  21163797.431   -16228534.30043 -12639597.58942  21163799.314    21163794.708
  24346553.336    12717147.73543   9906309.94442  24346554.930    24346555.438
  20851127.015     1530546.07843   1193700.56642  20851128.994    20851125.074
  22732226.419    -6493360.62143  -5054929.87542  22732228.720    22732225.572
  21971906.645   -11216967.84643  -8736989.37042  21971909.031    21971905.773
  23418922.615    -6295828.64543  -4868995.01842  23418924.224    23418922.960
  23337106.984    -4184030.15843  -3253148.02442  23337108.736    23337105.476
 04  5 23 17 22 30.0000000  0  9G22G21G18G17G 6G29G26G15G16
  23446834.999    -5182256.78343  -3809390.90742  23446836.056    23446832.247
  20652032.185    -8297953.96344  -6456771.18742  20652033.920    20652028.937
  21152069.568   -16290164.47143 -12687621.07742  21152071.446    21152066.865
  24361254.248    12794401.73043   9966507.80042  24361255.813    24361256.574
  20860991.435     1582383.73244   1234093.51042  20860993.374    20860989.478
  22734026.641    -6483899.85743  -5047557.86342  22734028.986    22734025.785
  21967376.507   -11240774.68343  -8755540.13642  21967378.779    21967375.594
  23403779.011    -6375409.20743  -4931005.78142  23403780.446    23403779.245
  23332101.864    -4210331.40443  -3273642.48242  23332103.729    23332100.535
 04  5 23 17 23  0.0000000  0  9G22G21G18G17G 6G29G26G15G16
  23428061.995    -5280909.30643  -3886262.91842  23428063.040    23428059.179
  20647281.982    -8322916.43744  -6476222.45842  20647283.679    20647278.711
  21140421.612   -16351374.31843 -12735317.03542  21140423.528    21140418.998
  24375967.076    12871718.93843  10026754.92042  24375968.605    24375969.838
  20870941.311     1634670.71244   1274836.57342  20870943.292    20870939.358
  22735935.007    -6473871.22743  -5039743.34642  22735937.329    22735934.254
  21962968.401   -11263939.18543  -8773590.39442  21962970.771    21962967.624
  23388651.467    -6454903.95843  -4992949.65642  23388653.098    23388651.825
  23327201.847    -4236081.70843  -3293707.65842  23327203.723    23327200.424
 04  5 23 17 23 30.0000000  0  9G22G21G18G17G 6G29G26G15G16
  23409330.113    -5379347.10343  -3962967.63842  23409330.850    23409326.907
  20642574.768    -8347653.45344  -6495498.03142  20642576.447    20642571.424
  21128852.252   -16412171.85343 -12782691.71742  21128854.097    21128849.664
  24390690.571    12949090.60743  10087044.51342  24390691.853    24390693.234
  20880974.913     1687397.66443   1315922.47942  20880976.937    20880973.065
  22737949.812    -6463283.21743  -5031492.96542  22737952.112    22737949.037
  21958681.249   -11286468.48643  -8791145.68542  21958683.578    21958680.504
  23373538.863    -6534321.38643  -5054833.26042  23373540.457    23373539.193
  23322405.233    -4261289.24943  -3313349.83942  23322406.951    23322403.413
 04  5 23 17 24  0.0000000  0  9G22G21G18G17G 6G29G26G15G16
  23390640.489    -5477562.29253  -4039498.90452  23390641.154    23390637.529
  20637911.547    -8372158.97244  -6514593.22842  20637913.247    20637908.156
  21117362.765   -16472549.70443 -12829739.37442  21117364.592    21117360.129
  24405425.536    13026522.99743  10147381.31642  24405426.876    24405427.857
  20891093.348     1740570.01343   1357355.45142  20891095.350    20891091.519
  22740072.228    -6452129.72643  -5022801.94242  22740074.529    22740071.505
  21954516.369   -11308355.07243  -8808200.16442  21954518.717    21954515.597
  23358442.130    -6613655.05243  -5116651.61642  23358443.788    23358442.299
  23317712.795    -4285947.18843  -3332563.80742  23317714.548    23317711.078
 04  5 23 17 24 30.0000000  0  8G22G21G18G 6G29G26G15G16
  23371994.684    -5575544.41943  -4115848.55242  23371995.802    23371992.076
  20633294.109    -8396423.65844  -6533500.77742  20633295.804    20633290.679
  21105954.971   -16532498.08043 -12876452.35742  21105956.826    21105952.282
  20901297.909     1794195.88743   1399141.82842  20901299.916    20901296.160
  22742303.934    -6440401.99543  -5013663.45342  22742306.243    22742303.192
  21950475.695   -11329588.55243  -8824745.72742  21950478.092    21950475.071
  23343362.865    -6692895.50343  -5178397.34842  23343364.573    23343363.180
  23313126.764    -4310046.08443  -3351342.13642  23313128.446    23313125.305
 04  5 23 17 25  0.0000000  0  8G22G21G18G 6G29G26G15G16
  23353390.422    -5673306.63053  -4192026.86452  23353391.791    23353388.474
  20628719.777    -8420462.10244  -6552232.01542  20628721.465    20628716.287
  21094626.145   -16592031.08043 -12922841.68042  21094627.979    21094623.499
  20911585.977     1848259.76644   1441269.49442  20911587.930    20911584.103
  22744642.058    -6428114.88343  -5004089.08142  22744644.354    22744641.404
  21946556.715   -11350182.29043  -8840792.79642  21946559.095    21946556.212
  23328298.736    -6772057.44643  -5240081.91542  23328300.296    23328299.124
  23308644.540    -4333600.28943  -3369696.05342  23308646.316    23308643.242
 04  5 23 17 25 30.0000000  0  8G22G21G18G 6G29G26G15G16
  23334829.130    -5770849.09553  -4268033.92352  23334830.087    23334826.582
  20624188.102    -8444276.20744  -6570788.43342  20624189.850    20624184.521
  21083376.330   -16651149.51143 -12968907.94342  21083378.144    21083373.635
  20921956.903     1902759.09443   1483736.46842  20921958.876    20921954.926
  22747086.422    -6415270.34343  -4994080.35742  22747088.673    22747085.509
  21942759.523   -11370136.91543  -8856341.83542  21942761.793    21942758.926
  23313249.435    -6851142.40743  -5301706.46342  23313250.862    23313249.846
  23304265.802    -4356611.35943  -3387626.70342  23304267.544    23304264.491
 04  5 23 17 26  0.0000000  0  8G22G21G18G 6G29G26G15G16
  23316310.961    -5868158.85243  -4343859.58542  23316312.343    23316308.869
  20619701.381    -8467853.89843  -6589160.65442  20619703.113    20619697.771
  21072207.710   -16709841.10943 -13014641.64542  21072209.561    21072205.012
  20932412.733     1957704.65743   1526551.15842  20932414.679    20932410.759
  22749638.940    -6401856.90143  -4983628.28942  22749641.188    22749637.877
  21939086.322   -11389439.47843  -8871382.79942  21939088.580    21939085.596
  23298216.824    -6930138.76743  -5363261.95542  23298218.139    23298217.394
  23299992.604    -4379067.34443  -3405124.84842  23299994.415    23299991.294
 04  5 23 17 26 30.0000000  0  8G22G21G18G 6G29G26G15G16
  23297836.610    -5965239.78343  -4419507.03742  23297838.201    23297834.770
  20615258.613    -8491200.57743  -6607352.86742  20615260.223    20615255.027
  21061119.428   -16768110.65043 -13060046.44242  21061121.270    21061116.618
  20942952.137     2013089.80843   1569708.40242  20942954.113    20942950.345
  22752298.603    -6387880.85143  -4972737.85042  22752300.868    22752297.424
  21935536.353   -11408094.40743  -8885919.10142  21935538.639    21935535.713
  23283199.433    -7009052.14643  -5424752.83542  23283200.790    23283200.574
  23295824.196    -4400973.50243  -3422194.56942  23295825.964    23295822.512
 04  5 23 17 27  0.0000000  0  8G22G21G18G 6G29G26G15G16
  23279406.226    -6062094.29443  -4494977.98242  23279407.530    23279403.652
  20610859.112    -8514319.93243  -6625367.94342  20610860.663    20610855.421
  21050110.821   -16825961.06443 -13105124.65942  21050112.691    21050108.013
  20953574.415     2068910.01244   1613204.62442  20953576.343    20953572.606
  22755064.477    -6373345.79343  -4961411.84442  22755066.782    22755063.318
  21932109.271   -11426104.02243  -8899952.58342  21932111.504    21932108.593
  23268198.313    -7087885.53643  -5486181.32642  23268199.142    23268198.845
  23291759.635    -4422332.90543  -3438838.18942  23291761.574    23291757.961
 04  5 23 17 27 30.0000000  0  8G22G21G18G 6G29G26G15G16
  23261020.511    -6158710.77843  -4570263.48942  23261022.016    23261018.103
  20606504.865    -8537201.91343  -6643198.04542  20606506.337    20606501.071
  21039183.956   -16883381.82543 -13149868.07342  21039185.880    21039181.249
  20964281.216     2125174.30944   1657046.91042  20964283.163    20964279.327
  22757938.479    -6358242.31343  -4949642.90642  22757940.874    22757937.329
  21928806.887   -11443457.63543  -8913474.86642  21928809.153    21928806.373
  23253214.033    -7166629.26943  -5547539.97342  23253214.759    23253214.509
  23287800.951    -4443135.58243  -3455048.04642  23287802.995    23287799.382
 04  5 23 17 28  0.0000000  0  8G22G21G18G 6G29G26G15G16
  23242679.736    -6255094.06643  -4645367.26642  23242680.965    23242676.834
  20602194.639    -8559852.60143  -6660847.91442  20602196.097    20602190.763
  21028337.820   -16940378.60343 -13194281.10342  21028339.716    21028335.209
  20975070.970     2181875.54843   1701229.67742  20975072.989    20975069.234
  22760919.433    -6342576.86843  -4937436.05942  22760921.835    22760918.340
  21925628.528   -11460159.99243  -8926489.69342  21925630.814    21925627.933
  23238245.449    -7245289.20343  -5608833.33942  23238246.267    23238245.931
  23283947.179    -4463387.68743  -3470828.86942  23283949.269    23283945.671
 04  5 23 17 28 30.0000000  0  8G22G21G18G 6G29G26G15G16
  23224383.929    -6351239.53243  -4720285.69942  23224385.180    23224381.024
  20597929.048    -8582268.42643  -6678314.77742  20597930.523    20597925.209
  21017573.190   -16996947.25744 -13238360.53842  21017575.063    21017570.513
  20985944.544     2239016.06544   1745754.72842  20985946.511    20985942.720
  22764007.921    -6326346.69543  -4924789.20142  22764010.273    22764006.733
  21922574.860   -11476207.03643  -8938993.85842  21922577.148    21922574.316
  23223293.198    -7323862.05843  -5670058.84642  23223294.274    23223293.736
  23280198.544    -4483085.60843  -3486177.88742  23280200.771    23280197.008
 04  5 23 17 29  0.0000000  0  8G22G21G18G 6G29G26G15G16
  23206132.702    -6447150.93843  -4795021.77342  23206133.982    23206129.614
  20593707.102    -8604454.69343  -6695602.77242  20593708.550    20593703.199
  21006888.915   -17053092.86643 -13282110.32842  21006890.822    21006886.187
  20996900.387     2296589.48244   1790617.11042  20996902.433    20996898.633
  22767202.854    -6309557.53443  -4911706.73642  22767205.159    22767201.596
  21919645.152   -11491602.76443  -8950990.53342  21919647.458    21919644.594
  23208357.098    -7402353.01443  -5731220.54942  23208358.285    23208357.294
  23276554.733    -4502234.44243  -3501099.06242  23276556.780    23276552.944
 04  5 23 17 29 30.0000000  0  8G22G21G18G 6G29G26G15G16
  23187927.643    -6542819.95143  -4869568.91642  23187928.870    23187924.412
  20589530.221    -8626404.53744  -6712706.52042  20589531.650    20589526.293
  20996286.752   -17108807.67943 -13325524.44942  20996288.656    20996284.040
  21007939.747     2354601.41344   1835821.19542  21007941.763    21007938.000
  22770505.364    -6292203.01443  -4898183.70542  22770507.747    22770504.170
  21916840.821   -11506339.67443  -8962473.85042  21916843.123    21916840.184
  23193437.297    -7480755.21443  -5792313.11542  23193438.649    23193437.690
  23273016.413    -4520827.54143  -3515587.16642  23273018.415    23273014.899
 04  5 23 17 30  0.0000000  0  8G22G21G18G 6G29G26G15G16
  23169767.813    -6638250.49643  -4943930.34142  23169769.122    23169764.663
  20585397.372    -8648123.06844  -6729630.04042  20585398.833    20585393.443
  20985765.696   -17164096.28443 -13368606.42442  20985767.627    20985762.860
  21019061.359     2413045.92544   1881362.36242  21019063.387    21019059.651
  22773914.326    -6274288.86843  -4884224.62042  22773916.683    22773913.196
  21914161.119   -11520421.90243  -8973447.02542  21914163.432    21914160.401
  23178533.870    -7559073.65043  -5853340.34342  23178535.076    23178534.052
  23269582.991    -4538869.77843  -3529645.99342  23269585.011    23269581.574
 04  5 23 17 30 30.0000000  0  8G22G21G18G 6G29G26G15G16
  23151654.637    -6733435.42343  -5018100.32342  23151656.037    23151651.285
  20581309.445    -8669604.38643  -6746368.70242  20581311.038    20581305.730
  20975326.718   -17218952.53143 -13411351.51742  20975328.684    20975324.030
  21030266.052     2471927.39244   1927244.00342  21030268.083    21030264.325
  22777430.739    -6255809.80843  -4869825.33042  22777433.073    22777429.676
  21911607.144   -11533842.87843  -8983904.92042  21911609.470    21911606.367
  23163647.178    -7637302.42343  -5914297.76342  23163648.654    23163647.542
  23266255.567    -4556355.44443  -3543271.16642  23266257.552    23266254.101
 04  5 23 17 31  0.0000000  0  8G22G21G18G 6G29G26G15G16
  23133587.384    -6828378.57143  -5092081.93342  23133588.760    23133583.906
  20577265.914    -8690853.24544  -6762926.23942  20577267.548    20577262.241
  20964969.366   -17273381.08343 -13453763.35242  20964971.264    20964966.655
  21041552.920     2531239.99844   1973461.58842  21041554.923    21041551.192
  22781053.568    -6236771.46943  -4854990.27342  22781055.928    22781052.673
  21909178.356   -11546606.56643  -8993850.64842  21909180.735    21909177.610
  23148776.671    -7715446.42343  -5975189.09542  23148778.102    23148777.383
  23263032.952    -4573289.41043  -3556466.48542  23263035.008    23263031.420
 04  5 23 17 31 30.0000000  0  8G22G21G18G 6G29G26G15G16
  23115567.624    -6923073.27343  -5165869.95242  23115568.916    23115563.633
  20573267.592    -8711864.37343  -6779298.53142  20573269.240    20573263.944
  20954694.483   -17327376.25143 -13495837.47442  20954696.394    20954691.676
  21052922.542     2590987.64544   2020018.17542  21052924.502    21052920.878
  22784783.692    -6217169.38543  -4839715.90442  22784786.067    22784782.949
  21906875.776   -11558707.20143  -9003279.69342  21906878.099    21906875.067
  23133923.588    -7793500.48543  -6036010.39142  23133925.090    23133924.009
  23259916.655    -4589666.65243  -3569227.98242  23259918.520    23259914.577
 04  5 23 17 32  0.0000000  0  8G22G21G18G 6G29G26G15G16
  23097593.635    -7017527.39243  -5239470.45342  23097594.834    23097589.505
  20569312.645    -8732647.47944  -6795493.13942  20569314.339    20569309.067
  20944500.212   -17380946.85943 -13537580.75442  20944502.142    20944497.414
  21064372.826     2651159.77444   2066905.55342  21064374.825    21064371.283
  22788619.392    -6197013.20443  -4824009.78442  22788621.724    22788618.649
  21904697.643   -11570153.25343  -9012198.68442  21904699.951    21904697.095
  23119085.569    -7871473.57243  -6096768.54442  23119087.216    23119086.081
  23256904.167    -4605496.65343  -3581562.99342  23256906.163    23256902.162
 04  5 23 17 32 30.0000000  0  8G22G21G18G 6G29G26G15G16
  23079667.999    -7111727.57443  -5312873.12042  23079669.144    23079663.563
  20565403.556    -8753189.84544  -6811500.16342  20565405.236    20565399.976
  20934389.384   -17434079.88643 -13578983.07242  20934391.300    20934386.579
  21075906.229     2711767.55444   2114132.37242  21075908.154    21075904.512
  22792562.567    -6176291.55343  -4807863.03642  22792564.915    22792562.006
  21902646.498   -11580931.66243  -9020597.43542  21902648.842    21902645.959
  23104265.589    -7949353.57043  -6157454.14542  23104267.267    23104265.993
  23253998.428    -4620767.00443  -3593461.90242  23254000.398    23253996.461
 04  5 23 17 33  0.0000000  0  8G22G21G18G 6G29G26G15G16
  23061789.712    -7205676.99143  -5386080.41542  23061790.920    23061785.480
  20561539.361    -8773496.02844  -6827323.15542  20561541.029    20561535.943
  20924360.770   -17486779.86043 -13620047.95142  20924362.717    20924358.042
  21087521.250     2772804.99744   2161694.00042  21087523.208    21087519.604
  22796612.408    -6155009.97243  -4791279.97042  22796614.770    22796611.775
  21900721.566   -11591046.75043  -9028479.30242  21900723.907    21900720.989
  23089461.922    -8027145.03443  -6218070.80142  23089463.804    23089462.788
  23251198.305    -4635482.62243  -3604928.61042  23251200.321    23251196.138
 04  5 23 17 33 30.0000000  0  8G22G21G18G 6G29G26G15G16
  23043959.710    -7299375.59743  -5459092.20342  23043960.766    23043955.211
  20557719.959    -8793566.99644  -6842962.84942  20557721.604    20557716.547
  20914414.610   -17539047.30943 -13660775.79442  20914416.564    20914411.889
  21099217.738     2834269.94344   2209588.73842  21099219.709    21099216.008
  22800768.393    -6133169.85343  -4774261.68942  22800770.818    22800767.815
  21898923.068   -11600498.51443  -9035844.29442  21898925.410    21898922.425
  23074675.367    -8104848.79443  -6278619.11142  23074677.230    23074676.186
  23248503.486    -4649644.46143  -3615963.77142  23248505.587    23248501.410
 04  5 23 17 34  0.0000000  0  8G22G21G18G 6G29G26G15G16
  23026177.042    -7392824.59043  -5531909.53342  23026177.993    23026172.672
  20553944.881    -8813405.16144  -6858421.13742  20553946.567    20553941.396
  20904550.277   -17590884.36643 -13701168.27242  20904552.246    20904547.580
  21110994.829     2896158.83144   2257813.82042  21110996.859    21110993.137
  22805029.997    -6110774.73343  -4756810.94542  22805032.323    22805029.416
  21897250.360   -11609288.91043  -9042693.91242  21897252.721    21897249.527
  23059905.119    -8182467.48043  -6339101.08142  23059906.957    23059905.844
  23245913.273    -4663255.42643  -3626569.70642  23245915.319    23245911.459
 04  5 23 17 34 30.0000000  0  8G22G21G18G 6G29G26G15G16
  23008443.667    -7486013.00243  -5604523.75342  23008444.667    23008439.558
  20550215.982    -8833000.72444  -6873690.36842  20550217.706    20550212.383
  20894769.813   -17642280.82243 -13741217.41742  20894771.798    20894767.048
  21122854.090     2958479.71743   2306375.53042  21122856.075    21122852.456
  22809398.834    -6087815.71743  -4738920.79042  22809401.178    22809398.392
  21895705.435   -11617407.83643  -9049020.32842  21895707.769    21895704.418
  23045152.752    -8259991.30943  -6399509.19242  23045154.691    23045153.507
  23243429.813    -4676306.10343  -3636739.03542  23243431.836    23243427.847
 04  5 23 17 35  0.0000000  0  8G22G21G18G 6G29G26G15G16
  22990758.331    -7578946.22243  -5676939.26442  22990759.606    22990754.812
  20546531.902    -8852360.69644  -6888776.05242  20546533.654    20546528.354
  20885071.916   -17693243.15643 -13780928.29242  20885073.923    20885069.265
  21134794.076     3021224.80044   2355267.78342  21134796.044    21134792.484
  22813873.508    -6064300.35443  -4720597.12342  22813875.821    22813873.108
  21894287.068   -11624861.32443  -9054828.23442  21894289.447    21894285.928
  23030417.014    -8337427.02743  -6459848.62442  23030419.157    23030417.923
  23241051.741    -4688803.23343  -3646477.03842  23241053.761    23241049.807
 04  5 23 17 35 30.0000000  0  8G22G21G18G 6G29G26G15G16
  22973122.690    -7671621.65243  -5749153.76942  22973124.048    22973119.309
  20542892.930    -8871483.38244  -6903676.82242  20542894.700    20542889.433
  20875456.968   -17743769.61643 -13820299.52642  20875458.928    20875454.368
  21146814.862     3084394.35643   2404490.78042  21146816.796    21146813.201
  22818454.298    -6040227.86943  -4701839.34542  22818456.531    22818454.015
  21892995.743   -11631647.35843  -9060116.03442  21892998.122    21892994.687
  23015698.617    -8414772.65643  -6520117.83142  23015700.712    23015699.474
  23238779.095    -4700745.60643  -3655782.82742  23238781.222    23238777.401
 04  5 23 17 36  0.0000000  0  8G22G21G18G 6G29G26G15G16
  22955536.190    -7764040.79643  -5821168.64342  22955537.317    22955532.211
  20539298.625    -8890371.38544  -6918394.74842  20539300.413    20539295.216
  20865924.612   -17793862.75743 -13859333.12842  20865926.542    20865921.881
  21158915.687     3147984.19544   2454041.27142  21158917.645    21158914.004
  22823140.508    -6015601.93443  -4682650.33842  22823142.674    22823140.297
  21891830.985   -11637768.38343  -9064885.64642  21891833.374    21891829.950
  23000996.657    -8492031.27043  -6580319.25642  23000998.810    23000997.581
  23236611.377    -4712136.50743  -3664658.83442  23236613.490    23236609.743
 04  5 23 17 36 30.0000000  0  8G22G21G18G 6G29G26G15G16
  22937999.491    -7856198.80043  -5892980.05442  22938000.419    22937995.144
  20535749.777    -8909021.30544  -6932927.12642  20535751.507    20535746.154
  20856475.425   -17843518.62843 -13898025.97542  20856477.339    20856472.605
  21171096.806     3211996.45544   2503920.94642  21171098.839    21171095.232
  22827932.458    -5990419.87643  -4663027.95842  22827934.581    22827932.399
  21890793.548   -11643220.26643  -9069133.85242  21890795.939    21890792.462
  22986312.119    -8569198.94643  -6640449.83042  22986314.345    22986312.798
  23234549.474    -4722972.22243  -3673102.27942  23234551.503    23234547.788
 04  5 23 17 37  0.0000000  0  8G22G21G18G 6G29G26G15G16
  22920512.298    -7948094.82943  -5964587.24742  22920513.458    22920508.047
  20532246.110    -8927432.61344  -6947273.56742  20532247.845    20532242.583
  20847109.422   -17892737.02443 -13936377.93342  20847111.364    20847106.688
  21183358.014     3276429.78643   2554128.72242  21183360.082    21183356.474
  22832830.150    -5964682.88643  -4642973.14542  22832832.236    22832830.045
  21889883.448   -11648002.70943  -9072860.39042  21889885.859    21889882.392
  22971644.796    -8646275.96543  -6700509.77342  22971646.890    22971645.201
  23232592.926    -4733253.67243  -3681113.78242  23232594.957    23232591.417
 04  5 23 17 37 30.0000000  0  8G22G21G18G 6G29G26G15G16
  22903074.859    -8039726.89443  -6035988.81542  22903076.226    22903070.675
  20528787.882    -8945604.90043  -6961433.77542  20528789.638    20528784.498
  20837826.846   -17941516.88343 -13974388.19842  20837828.767    20837824.119
  21195699.274     3341283.53743   2604664.08742  21195701.311    21195697.667
  22837833.460    -5938391.06243  -4622486.03942  22837835.555    22837833.202
  21889100.975   -11652114.68543  -9076064.50142  21889103.392    21889099.935
  22956995.006    -8723261.27543  -6760498.23942  22956997.008    22956995.228
  23230741.977    -4742980.25743  -3688692.92542  23230744.030    23230740.469
 04  5 23 17 38  0.0000000  0  8G22G21G18G 6G29G26G15G16
  22885688.831    -8131091.92943  -6107182.22442  22885689.968    22885684.163
  20525375.629    -8963536.45243  -6975406.41142  20525377.255    20525372.288
  20828628.149   -17989856.42844 -14012055.32442  20828630.048    20828625.330
  21208120.651     3406558.01343   2655527.28042  21208122.663    21208118.934
  22842942.129    -5911543.70143  -4601565.99042  22842944.334    22842942.117
  21888446.492   -11655554.29443  -9078744.70442  21888448.878    21888445.365
  22942362.983    -8800153.29143  -6820414.03442  22942364.961    22942363.252
  23228996.873    -4752150.77843  -3695838.76642  23228998.822    23228995.312
 04  5 23 17 38 30.0000000  0  8G22G21G18G 6G29G26G15G16
  22868353.755    -8222188.04543  -6178166.20442  22868354.898    22868349.026
  20522009.346    -8981226.62043  -6989190.94442  20522010.920    20522006.012
  20819513.372   -18037754.91043 -14049378.79542  20819515.262    20819510.601
  21220621.967     3472252.40143   2706717.69442  21220623.972    21220620.204
  22848156.410    -5884141.14843  -4580213.37842  22848158.734    22848156.687
  21887920.113   -11658320.38643  -9080900.07842  21887922.502    21887918.987
  22927748.660    -8876951.41143  -6880256.64442  22927750.647    22927748.997
  23227357.501    -4760764.95143  -3702551.08742  23227359.437    23227356.126
 04  5 23 17 39  0.0000000  0  8G22G21G18G 6G29G26G15G16
  22851069.020    -8313020.73143  -6248944.81142  22851070.021    22851064.283
  20518687.811    -8998681.47843  -7002792.12542  20518689.381    20518684.437
  20810481.359   -18085218.47643 -14086363.36142  20810483.250    20810478.475
  21233201.626     3538358.88243   2758229.20342  21233203.645    21233199.919
  22853475.238    -5856190.91643  -4558433.95842  22853477.359    22853475.360
  21887520.812   -11660419.22443  -9082535.52942  21887523.161    21887519.585
  22913151.081    -8953661.93743  -6940030.98842  22913153.022    22913151.212
  23225823.006    -4768829.68243  -3708835.30942  23225824.695    23225821.422
 04  5 23 17 39 30.0000000  0  8G22G21G18G 6G29G26G15G16
  22833835.544    -8403582.50643  -6319512.35742  22833836.638    22833831.041
  20515412.214    -9015894.81143  -7016205.09642  20515413.797    20515408.798
  20801533.349   -18132240.40943 -14123003.81442  20801535.249    20801530.398
  21245860.525     3604882.44843   2810065.71842  21245862.563    21245858.937
  22858899.050    -5827687.66643  -4536223.60142  22858901.235    22858899.301
  21887249.710   -11661844.13143  -9083645.83042  21887252.078    21887248.371
  22898571.534    -9030278.16443  -6999731.86742  22898573.358    22898571.338
  23224393.881    -4776338.91743  -3714686.64242  23224395.671    23224392.502
 04  5 23 17 40  0.0000000  0  8G22G21G18G 6G29G26G15G16
  22816653.482    -8493875.19843  -6389870.23442  22816654.465    22816648.878
  20512182.054    -9032869.37943  -7029432.00742  20512183.605    20512178.578
  20792668.896   -18178823.45643 -14159302.26542  20792670.776    20792665.888
  21258598.161     3671818.61843   2862223.73642  21258600.159    21258596.528
  22864427.710    -5798635.30243  -4513585.42342  22864429.928    22864427.631
  21887106.218   -11662597.89043  -9084233.17242  21887108.621    21887105.079
  22884009.248    -9106802.86343  -7059361.42042  22884011.070    22884009.176
  23223070.010    -4783296.21943  -3720107.90542  23223071.781    23223068.538
 04  5 23 17 40 30.0000000  0  8G22G21G18G 6G29G26G15G16
  22799523.948    -8583890.69143  -6460012.07742  22799524.949    22799519.632
  20508998.642    -9049598.16243  -7042467.39842  20509000.171    20508995.167
  20783889.308   -18224960.61443 -14195253.26642  20783891.209    20783886.246
  21271415.263     3739172.88543   2914707.55742  21271417.297    21271413.736
  22870061.846    -5769028.08443  -4490514.87542  22870064.153    22870061.690
  21887091.767   -11662673.50243  -9084292.08942  21887094.143    21887090.712
  22869465.697    -9183229.13443  -7118914.28742  22869467.457    22869465.851
  23221852.281    -4789695.34943  -3725094.21342  23221854.119    23221850.811
 04  5 23 17 41  0.0000000  0  8G22G21G18G 6G29G26G15G16
  22782445.727    -8673635.91943  -6529943.35742  22782446.705    22782441.678
  20505860.462    -9066089.29643  -7055317.61642  20505862.040    20505857.014
  20775192.977   -18270659.88543 -14230863.05642  20775194.837    20775189.823
  21284310.070     3806935.66043   2967509.69642  21284312.114    21284308.597
  22875799.809    -5738875.45443  -4467019.33442  22875802.105    22875799.607
  21887204.927   -11662078.72243  -9083828.61342  21887207.270    21887203.845
  22854939.497    -9259565.22543  -7178396.84942  22854941.171    22854939.389
  23220739.031    -4795544.90643  -3729652.30942  23220740.928    23220737.670
 04  5 23 17 41 30.0000000  0  8G22G21G18G 6G29G26G15G16
  22765420.595    -8763103.24543  -6599658.05942  22765421.535    22765416.495
  20502768.945    -9082335.70644  -7067977.13942  20502770.507    20502765.418
  20766581.355   -18315914.35244 -14266126.24642  20766583.214    20766578.158
  21297283.665     3875112.17143   3020634.21042  21297285.660    21297282.237
  22881642.320    -5708171.49143  -4443094.19942  22881644.719    22881642.270
  21887447.013   -11660806.98743  -9082837.62942  21887449.327    21887445.788
  22840431.401    -9335804.13443  -7237803.73042  22840433.124    22840431.222
  23219731.720    -4800838.58143  -3733777.21742  23219733.542    23219730.312
 04  5 23 17 42  0.0000000  0  8G22G21G18G 6G29G26G15G16
  22748446.880    -8852301.09743  -6669162.80342  22748447.828    22748442.806
  20499722.045    -9098347.30544  -7080453.68942  20499723.660    20499718.497
  20758052.455   -18360733.86343 -14301050.51142  20758054.307    20758049.330
  21310333.920     3943691.22943   3074072.41342  21310335.858    21310332.445
  22887587.924    -5676927.06443  -4418747.88742  22887590.235    22887587.814
  21887815.964   -11658867.74243  -9081326.47642  21887818.274    21887814.759
  22825940.376    -9411955.35843  -7297142.25442  22825941.794    22825939.909
  23218828.375    -4805586.58943  -3737476.96842  23218830.113    23218826.696
 04  5 23 17 42 30.0000000  0  8G22G21G18G 6G29G26G15G16
  22731526.943    -8941213.43443  -6738445.05142  22731528.201    22731523.413
  20496722.677    -9114108.99243  -7092735.50142  20496724.327    20496719.113
  20749609.202   -18405103.06244 -14335623.87542  20749611.076    20749606.079
  21323463.219     4012686.33943   3127834.80142  21323465.165    21323461.712
  22893638.860    -5645128.66643  -4393969.89142  22893641.196    22893638.781
  21888314.689   -11656246.12443  -9079283.62042  21888317.022    21888313.692
  22811468.676    -9488003.81243  -7356400.70242  22811470.075    22811468.350
  23218031.210    -4809774.76643  -3740740.46242  23218032.957    23218029.814
 04  5 23 17 43  0.0000000  0  8G22G21G18G 6G29G26G15G16
  22714660.561    -9029847.61643  -6807510.57342  22714661.702    22714656.788
  20493769.323    -9129628.69743  -7104828.75742  20493770.988    20493765.738
  20741250.160   -18449030.17844 -14369852.77042  20741252.011    20741247.044
  21336669.805     4082087.59143   3181913.68642  21336671.670    21336668.518
  22899793.551    -5612785.54043  -4368767.46142  22899795.940    22899793.566
  21888941.633   -11652950.23143  -9076715.38542  21888944.004    21888940.995
  22797014.950    -9563957.95243  -7415585.64342  22797016.352    22797014.613
  23217338.861    -4813411.98243  -3743574.64542  23217340.685    23217337.866
 04  5 23 17 43 30.0000000  0  8G22G21G18G 6G29G26G15G16
  22697846.636    -9118204.60643  -6876360.08942  22697847.820    22697843.078
  20490861.606    -9144908.89044  -7116735.38342  20490863.238    20490857.946
  20732974.744   -18492517.57344 -14403739.01842  20732976.632    20732971.623
  21349952.896     4151891.23843   3236306.13642  21349954.790    21349951.845
  22906051.323    -5579901.23843  -4343143.33542  22906053.777    22906051.361
  21889696.596   -11648982.57143  -9073623.68142  21889698.893    21889695.991
  22782579.315    -9639819.73343  -7474698.61942  22782580.613    22782578.600
  23216751.197    -4816501.24043  -3745981.85942  23216752.916    23216750.244
 04  5 23 17 44  0.0000000  0  8G22G21G18G 6G29G26G15G16
  22681086.048    -9206280.41343  -6944990.53442  22681087.239    22681082.983
  20488000.000    -9159946.53044  -7128453.00642  20488001.644    20487996.309
  20724783.557   -18535562.37944 -14437280.39642  20724785.437    20724780.462
  21363313.074     4222098.49943   3291013.06942  21363314.968    21363311.830
  22912412.438    -5546474.24843  -4317096.32042  22912414.907    22912412.266
  21890580.016   -11644340.25643  -9070006.26042  21890582.332    21890579.375
  22768161.352    -9715586.33143  -7533737.42542  22768162.840    22768160.576
  23216268.161    -4819040.32243  -3747960.34142  23216269.793    23216267.085
 04  5 23 17 44 30.0000000  0  8G22G21G18G 6G29G26G15G16
  22664379.986    -9294067.32843  -7013395.85642  22664381.316    22664377.620
  20485185.898    -9174734.46444  -7139976.05442  20485187.572    20485182.223
  20716678.056   -18578157.35944 -14470471.26442  20716679.880    20716674.933
  21376750.937     4292714.63343   3346038.58742  21376752.876    21376749.489
  22918877.896    -5512498.97843  -4290622.10542  22918880.262    22918877.516
  21891593.171   -11639016.43143  -9065857.78942  21891595.461    21891592.382
  22753762.650    -9791250.58043  -7592696.52242  22753764.354    22753761.987
  23215890.780    -4821022.99343  -3749505.27842  23215892.575    23215889.829
 04  5 23 17 45  0.0000000  0  8G22G21G18G 6G29G26G15G16
  22647727.976    -9381577.29043  -7081585.37142  22647728.746    22647724.918
  20482416.877    -9189285.65144  -7151314.61942  20482418.538    20482413.170
  20708655.630   -18620315.66243 -14503321.83942  20708657.465    20708652.442
  21390263.695     4363725.26843   3401371.52842  21390265.670    21390262.371
  22925444.652    -5477989.70343  -4263731.76742  22925447.087    22925444.301
  21892733.284   -11633024.38243  -9061188.63942  21892735.629    21892732.614
  22739381.516    -9866825.50043  -7651585.99742  22739383.176    22739380.455
  23215616.882    -4822463.05843  -3750627.36642  23215618.708    23215615.765
 04  5 23 17 45 30.0000000  0  8G22G21G18G 6G29G26G15G16
  22631130.978    -9468794.15843  -7149546.50542  22631131.862    22631127.984
  20479695.775    -9203584.99944  -7162456.95042  20479697.463    20479692.094
  20700718.988   -18662022.35243 -14535820.54142  20700720.854    20700715.912
  21403854.275     4435143.57643   3457022.15542  21403856.177    21403852.872
  22932115.875    -5442932.66943  -4236414.58942  22932118.266    22932115.363
  21894003.409   -11626349.19543  -9055987.19842  21894005.763    21894002.818
  22725019.824    -9942296.04143  -7710394.10942  22725021.622    22725018.940
  23215448.701    -4823346.20143  -3751315.53242  23215450.692    23215447.531
 04  5 23 17 46  0.0000000  0  8G22G21G18G 6G29G26G15G16
  22614588.107    -9555727.70343  -7217286.87242  22614588.987    22614585.033
  20477020.528    -9217643.41044  -7173411.54142  20477022.245    20477016.878
  20692866.307   -18703288.04643 -14567975.59442  20692868.145    20692863.283
  21417519.978     4506957.21643   3512980.80042  21417521.896    21417518.505
  22938888.963    -5407340.09143  -4208680.11242  22938891.251    22938888.374
  21895401.460   -11619001.81743  -9050261.93742  21895403.774    21895400.876
  22710675.800   -10017672.58543  -7769129.00942  22710677.852    22710675.229
  23215384.385    -4823683.99143  -3751578.70642  23215386.517    23215383.098
 04  5 23 17 46 30.0000000  0  8G22G21G18G 6G29G26G15G16
  22598100.023    -9642373.09843  -7284802.71842  22598101.034    22598096.847
  20474391.991    -9231456.53244  -7184174.99142  20474393.728    20474388.332
  20685098.335   -18744108.90244 -14599784.02142  20685100.202    20685095.297
  21431261.215     4579168.32943   3569249.17542  21431263.111    21431259.934
  22945764.326    -5371209.45143  -4180526.34142  22945766.557    22945763.668
  21896928.263   -11610978.56643  -9044010.04142  21896930.463    21896927.585
  22696350.788   -10092951.12543  -7827787.52542  22696352.715    22696350.298
  23215424.393    -4823473.58243  -3751414.73142  23215426.580    23215422.927
 04  5 23 17 47  0.0000000  0  8G22G21G18G 6G29G26G15G16
  22581667.831    -9728723.38143  -7352088.57642  22581668.997    22581664.676
  20471811.253    -9245018.68644  -7194742.89142  20471812.974    20471807.546
  20677416.071   -18784479.21344 -14631241.37542  20677417.967    20677413.050
  21445078.983     4651781.34843   3625830.72742  21445080.894    21445077.828
  22952742.916    -5334536.07743  -4151949.67942  22952745.144    22952742.359
  21898584.579   -11602273.97743  -9037227.21642  21898586.868    21898583.986
  22682045.583   -10168125.59943  -7886364.97242  22682047.365    22682044.975
  23215569.783    -4822709.82443  -3750819.57342  23215571.911    23215568.223
 04  5 23 17 47 30.0000000  0  8G22G21G18G 6G29G26G15G16
  22565290.089    -9814789.36443  -7419152.91042  22565291.121    22565286.797
  20469276.034    -9258341.29144  -7205124.12442  20469277.768    20469272.331
  20669817.464   -18824410.46044 -14662356.60442  20669819.342    20669814.391
  21458970.794     4724782.87243   3682714.99442  21458972.745    21458969.367
  22959822.553    -5297333.24643  -4122960.48442  22959824.730    22959821.972
  21900368.294   -11592899.86043  -9029922.68542  21900370.629    21900367.762
  22667758.009   -10243207.49743  -7944870.24042  22667759.672    22667757.256
  23215817.721    -4821405.12543  -3749802.89742  23215819.866    23215816.175
 04  5 23 17 48  0.0000000  0  8G22G21G18G 6G29G26G15G16
  22548968.785    -9900557.92143  -7485985.49042  22548969.825    22548965.588
  20466788.730    -9271412.07744  -7215309.14242  20466790.466    20466785.017
  20662304.550   -18863890.84144 -14693120.49542  20662306.442    20662301.502
  21472938.335     4798183.42043   3739910.19942  21472940.294    21472936.991
  22967004.705    -5259590.09843  -4093550.24842  22967007.086    22967004.385
  21902281.634   -11582844.36043  -9022087.19642  21902283.953    21902281.194
  22653490.111   -10318184.71843  -8003293.95342  22653491.893    22653489.466
  23216171.252    -4819548.06943  -3748355.88142  23216173.357    23216169.291
 04  5 23 17 48 30.0000000  0  8G22G21G18G 6G29G26G15G16
  22532702.779    -9986037.02843  -7552592.50642  22532703.777    22532699.517
  20464347.604    -9284240.02144  -7225304.92442  20464349.345    20464343.882
  20654875.714   -18902929.72844 -14723540.38442  20654877.570    20654872.588
  21486979.799     4871972.04543   3797407.82142  21486981.769    21486978.532
  22974288.033    -5221317.43643  -4063727.38842  22974290.310    22974287.612
  21904323.002   -11572117.13143  -9013728.29742  21904325.286    21904322.533
  22639240.598   -10393066.19143  -8061643.07542  22639242.310    22639239.927
  23216627.706    -4817149.13243  -3746486.54542  23216629.917    23216626.020
 04  5 23 17 49  0.0000000  0  8G22G21G18G 6G29G26G15G16
  22516492.873   -10071219.73943  -7618968.55942  22516493.926    22516489.663
  20461953.844    -9296819.34044  -7235106.97342  20461955.580    20461950.050
  20647532.029   -18941520.90244 -14753611.38942  20647533.899    20647528.931
  21501096.007     4946152.94943   3855211.08242  21501098.045    21501094.880
  22981672.714    -5182510.54143  -4033488.24142  22981675.181    22981672.436
  21906493.317   -11560712.44043  -9004841.49942  21906495.542    21906492.802
  22625010.277   -10467845.93343  -8119912.94442  22625012.036    22625009.721
  23217188.093    -4814203.18343  -3744190.99642  23217190.160    23217186.844
 04  5 23 17 49 30.0000000  0  8G22G21G18G 6G29G26G15G16
  22500339.697   -10156104.59943  -7685112.54042  22500340.719    22500336.433
  20459607.566    -9309148.98644  -7244714.48042  20459609.314    20459603.748
  20640273.638   -18979664.05744 -14783333.30542  20640275.465    20640270.454
  21515286.640     5020725.17743   3913319.29942  21515288.645    21515285.511
  22989158.688    -5143170.46143  -4002833.62742  22989161.187    22989158.741
  21908792.498   -11548630.39143  -8995426.90242  21908794.785    21908791.896
  22610799.677   -10542523.18943  -8178102.91542  22610801.436    22610798.925
  23217852.637    -4810710.59343  -3741469.51142  23217854.534    23217851.425
 04  5 23 17 50  0.0000000  0  8G22G21G18G 6G29G26G15G16
  22484242.460   -10240696.30043  -7751028.06942  22484243.412    22484238.951
  20457307.900    -9321234.05444  -7254131.41542  20457309.637    20457304.069
  20633099.372   -19017365.00144 -14812710.63242  20633101.209    20633096.127
  21529550.440     5095681.50843   3971726.78342  21529552.301    21529548.889
  22996745.031    -5103304.01843  -3971768.85042  22996747.438    22996745.181
  21911219.528   -11535876.74643  -8985488.97342  21911221.815    21911218.787
  22596607.499   -10617103.23143  -8236217.14442  22596609.289    22596606.729
  23218620.231    -4806677.64543  -3738326.96342  23218621.972    23218618.897
 04  5 23 17 50 30.0000000  0  8G22G21G18G 6G29G26G15G16
  22468202.383   -10324986.93443  -7816709.00842  22468203.446    22468198.852
  20455055.932    -9333068.20844  -7263352.81942  20455057.685    20455052.143
  20626010.461   -19054617.03043 -14841738.15342  20626012.324    20626007.315
  21543888.486     5171026.87343   4030437.42842  21543890.380    21543886.785
  23004432.534    -5062906.20643  -3940290.03642  23004434.704    23004432.692
  21913775.516   -11522445.23843  -8975022.86042  21913777.868    21913774.569
  22582435.126   -10691579.03043  -8294250.17042  22582436.935    22582434.327
  23219491.570    -4802098.71243  -3734758.99942  23219493.223    23219490.407
 04  5 23 17 51  0.0000000  0  8G22G21G18G 6G29G26G15G16
  22452219.888   -10408977.13643  -7882155.81342  22452220.811    22452215.942
  20452851.478    -9344652.47244  -7272379.51242  20452853.266    20452847.804
  20619006.712   -19091421.33043 -14870416.80342  20619008.534    20619003.696
  21558299.470     5246758.21843   4089448.86542  21558301.457    21558298.183
  23012220.492    -5021979.82143  -3908399.34442  23012222.601    23012220.681
  21916459.996   -11508337.73043  -8964029.97242  21916462.376    21916459.073
  22568282.329   -10765951.78143  -8352202.88442  22568284.189    22568281.657
  23220466.419    -4796976.06043  -3730767.31842  23220468.096    23220465.231
 04  5 23 17 51 30.0000000  0  8G22G21G18G 6G29G26G15G16
  22436294.390   -10492665.73843  -7947367.64342  22436295.360    22436290.524
  20450694.653    -9355986.44344  -7281211.17542  20450696.424    20450691.095
  20612088.221   -19127778.35343 -14898746.90842  20612090.045    20612085.091
  21572783.934     5322873.90643   4148759.74042  21572785.855    21572782.375
  23020108.775    -4980526.38643  -3876097.93442  23020110.874    23020109.056
  21919273.155   -11493554.55243  -8952510.61242  21919275.503    21919272.235
  22554149.275   -10840221.27943  -8410075.16142  22554150.989    22554148.620
  23221544.890    -4791310.60443  -3726352.67142  23221546.507    23221543.192
 04  5 23 17 52  0.0000000  0  8G22G21G18G 6G29G26G15G16
  22420425.430   -10576057.33543  -8012348.02042  22420426.430    22420421.481
  20448584.403    -9367075.99444  -7289852.36942  20448586.131    20448580.818
  20605253.622   -19163693.69643 -14926732.85942  20605255.503    20605250.571
  21587340.275     5399366.37643   4208364.23142  21587342.266    21587338.437
  23028095.901    -4938553.08943  -3843391.49842  23028098.087    23028096.291
  21922213.684   -11478102.06243  -8940469.69542  21922216.028    21922212.838
  22540034.734   -10914393.02943  -8467871.26342  22540036.488    22540034.226
  23222725.342    -4785109.34643  -3721520.55642  23222726.896    23222723.058
 04  5 23 17 52 30.0000000  0  8G22G21G18G 6G29G26G15G16
  22404615.150   -10659140.62743  -8077088.16142  22404616.144    22404611.200
  20446522.725    -9377909.88544  -7298294.34842  20446524.478    20446519.179
  20598505.175   -19199156.86243 -14954366.46942  20598507.032    20598502.149
  21601969.611     5476244.82843   4268269.49142  21601971.648    21601967.966
  23036183.762    -4896050.86043  -3810272.83642  23036185.969    23036184.173
  21925283.461   -11461970.23043  -8927899.40242  21925285.836    21925282.698
  22525940.943   -10988456.04743  -8525582.64242  22525942.692    22525940.456
  23224008.835    -4778362.41543  -3716263.19842  23224010.537    23224006.879
 04  5 23 17 53  0.0000000  0  8G22G21G18G 6G29G26G15G16
  22388863.291   -10741916.80543  -8141588.98342  22388864.327    22388859.350
  20444509.369    -9388490.28544  -7306538.80942  20444511.065    20444505.740
  20591842.402   -19234170.18443 -14981649.53842  20591844.301    20591839.383
  21616671.635     5553504.84743   4328472.06342  21616673.642    21616669.974
  23044371.435    -4853023.42743  -3776745.00142  23044373.700    23044371.874
  21928481.951   -11445161.77343  -8914801.88642  21928484.385    21928481.212
  22511867.098   -11062412.31743  -8583210.82242  22511868.860    22511866.624
  23225396.161    -4771073.25743  -3710583.33142  23225397.745    23225394.041
 04  5 23 17 53 30.0000000  0  8G22G21G18G 6G29G26G15G16
  22373168.546   -10824393.10643  -8205856.15142  22373169.632    22373164.577
  20442542.724    -9398825.02144  -7314591.83542  20442544.424    20442539.034
  20585263.547   -19268742.16843 -15008588.72442  20585265.455    20585260.522
  21631444.752     5631136.86643   4388964.51742  21631446.656    21631442.758
  23052657.328    -4809480.77743  -3742815.60442  23052659.481    23052657.654
  21931807.579   -11427685.55243  -8901184.02542  21931809.980    21931806.760
  22497812.948   -11136269.68843  -8640761.92842  22497814.306    22497811.701
  23226884.614    -4763251.13443  -3704488.14642  23226886.349    23226882.357
 04  5 23 17 54  0.0000000  0  8G22G21G18G 6G29G26G15G16
  22357532.837   -10906558.79443  -8269881.28942  22357533.941    22357528.882
  20440624.690    -9408904.16844  -7322445.71142  20440626.433    20440621.006
  20578770.470   -19302863.33743 -15035176.61742  20578772.379    20578767.458
  21646289.627     5709148.49143   4449752.78342  21646291.547    21646287.969
  23061042.671    -4765414.58043  -3708478.35542  23061044.910    23061043.262
  21935261.991   -11409532.51843  -8887038.79342  21935264.416    21935261.163
  22483778.758   -11210018.18243  -8698228.22442  22483780.238    22483777.895
  23228476.158    -4754887.38843  -3697970.94342  23228477.949    23228473.848
 04  5 23 17 54 30.0000000  0  8G22G21G18G 6G29G26G15G16
  22341955.331   -10988418.28343  -8333667.81942  22341956.434    22341951.636
  20438754.319    -9418733.04944  -7330104.57042  20438756.055    20438750.549
  20572362.223   -19336539.03643 -15061417.40342  20572364.087    20572359.128
  21661205.868     5787532.97543   4510831.54242  21661207.703    21661204.182
  23069526.517    -4720831.92643  -3673738.60542  23069528.718    23069527.086
  21938844.026   -11390708.59843  -8872370.79442  21938846.391    21938843.282
  22469764.367   -11283662.83343  -8755613.58642  22469765.824    22469763.879
  23230169.690    -4745988.55643  -3691036.78842  23230171.440    23230167.243
 04  5 23 17 55  0.0000000  0  8G22G21G18G 6G29G26G15G16
  22326437.044   -11069967.82143  -8397212.83242  22326438.029    22326433.369
  20436932.173    -9428308.31444  -7337565.80642  20436933.887    20436928.402
  20566039.258   -19369766.55943 -15087308.94842  20566041.114    20566036.115
  21676193.353     5866291.37743   4572201.69442  21676195.252    21676191.480
  23078108.859    -4675731.38343  -3638595.33442  23078111.042    23078109.470
  21942554.241   -11371211.63643  -8857178.33642  21942556.581    21942553.418
  22455770.727   -11357200.37943  -8812915.50142  22455772.052    22455770.039
  23231965.220    -4736552.61743  -3683684.06842  23231966.974    23231962.784
 04  5 23 17 55 30.0000000  0  8G22G21G18G 6G29G26G15G16
  22310977.946   -11151205.77743  -8460515.07442  22310978.930    22310974.305
  20435158.518    -9437629.19144  -7344828.82042  20435160.196    20435154.699
  20559801.595   -19402545.62144 -15112851.06342  20559803.438    20559798.472
  21691251.288     5945422.47443   4633862.25542  21691253.255    21691249.658
  23086789.387    -4630113.99443  -3603049.31542  23086791.661    23086790.070
  21946392.534   -11351041.65543  -8841461.46042  21946394.857    21946391.626
  22441797.532   -11430630.13743  -8870133.43942  22441798.786    22441796.890
  23233862.768    -4726580.27843  -3675913.41642  23233864.555    23233860.264
 04  5 23 17 56  0.0000000  0  8G22G21G18G 6G29G26G15G16
  22295577.649   -11232133.56543  -8523575.61842  22295578.711    22295574.070
  20433432.817    -9446697.84944  -7351895.29842  20433434.533    20433428.995
  20553648.807   -19434878.89644 -15138045.79242  20553650.673    20553645.605
  21706379.536     6024922.06843   4695809.95642  21706381.492    21706378.013
  23095567.609    -4583984.02643  -3567103.87642  23095569.755    23095568.169
  21950358.241   -11330202.02943  -8825222.76742  21950360.626    21950357.238
  22427844.352   -11503954.09443  -8927268.91442  22427845.621    22427843.719
  23235861.726    -4716075.36843  -3667727.77742  23235863.610    23235859.292
 04  5 23 17 56 30.0000000  0  8G22G21G18G 6G29G26G15G16
  22280237.405   -11312747.54743  -8586391.62842  22280238.424    22280233.626
  20431755.810    -9455510.66544  -7358762.40942  20431757.551    20431751.999
  20547581.405   -19466763.27944 -15162890.73942  20547583.268    20547578.116
  21721578.076     6104791.23443   4758045.65142  21721580.120    21721576.606
  23104443.961    -4537339.94943  -3530757.81642  23104446.116    23104444.285
  21954451.732   -11308690.28943  -8808460.36842  21954454.160    21954450.718
  22413912.119   -11577168.75643  -8984319.21842  22413913.406    22413911.068
  23237962.379    -4705035.68243  -3659125.39842  23237964.349    23237960.209
 04  5 23 17 57  0.0000000  0  8G22G21G18G 6G29G26G15G16
  22264956.301   -11393049.99843  -8648964.92542  22264957.405    22264952.592
  20430126.826    -9464071.13744  -7365432.90442  20430128.563    20430122.993
  20541598.716   -19498202.62644 -15187388.91242  20541600.550    20541595.487
  21736846.393     6185025.29743   4820565.63242  21736848.378    21736844.719
  23113417.210    -4490186.75543  -3494015.02642  23113419.477    23113417.213
  21958672.276   -11286510.67243  -8791177.52742  21958674.694    21958671.400
  22399999.891   -11650277.18943  -9041286.75842  22400001.332    22399998.932
  23240164.029    -4693465.87743  -3650109.99542  23240166.031    23240161.984
 04  5 23 17 57 30.0000000  0  8G22G21G18G 6G29G26G15G16
  22249735.306   -11473037.21443  -8711292.55842  22249736.336    22249731.269
  20428546.408    -9472376.35144  -7371904.47742  20428548.152    20428542.567
  20535701.116   -19529194.42944 -15211538.34842  20535702.969    20535697.893
  21752183.735     6265624.64943   4883370.29842  21752185.755    21752182.328
  23122487.226    -4442523.64543  -3456874.91642  23122489.713    23122487.140
  21963020.462   -11263661.25843  -8773372.78942  21963022.763    21963019.528
  22386108.432   -11723276.53843  -9098169.33442  22386109.916    22386107.759
  23242466.742    -4681364.47043  -3640680.30742  23242468.698    23242464.900
 04  5 23 17 58  0.0000000  0  8G22G21G18G 6G29G26G15G16
  22234574.085   -11552709.10343  -8773374.49142  22234575.119    22234570.133
  20427014.446    -9480426.52644  -7378177.33042  20427016.203    20427010.655
  20529888.503   -19559739.75543 -15235339.87942  20529890.364    20529885.264
  21767590.454     6346587.14543   4946457.89342  21767592.351    21767588.922
  23131654.019    -4394352.84843  -3419339.26242  23131656.454    23131653.703
  21967495.622   -11240143.71943  -8755047.42442  21967498.013    21967494.851
  22372238.049   -11796166.98643  -9154967.00742  22372239.594    22372237.124
  23244870.417    -4668733.53843  -3630838.03842  23244872.294    23244868.317
 04  5 23 17 58 30.0000000  0  8G22G21G18G 6G29G26G15G16
  22219473.918   -11632061.24543  -8835207.26642  22219474.815    22219469.799
  20425531.765    -9488217.79144  -7384248.44842  20425533.498    20425528.000
  20524161.477   -19589835.45043 -15258791.05742  20524163.354    20524158.273
  21783066.153     6427914.25343   5009829.66542  21783068.191    21783064.949
  23140917.190    -4345672.52743  -3381406.58542  23140920.009    23140917.164
  21972098.539   -11215955.13143  -8736199.16242  21972100.942    21972097.722
  22358388.889   -11868944.55543  -9211676.73042  22358390.566    22358387.974
  23247375.205    -4655570.60843  -3620581.22742  23247377.147    23247373.254
 04  5 23 17 59  0.0000000  0  8G22G21G18G 6G29G26G15G16
  22204433.263   -11711100.07243  -8896795.89842  22204434.313    22204428.953
  20424097.059    -9495757.16444  -7390123.28042  20424098.747    20424093.264
  20518518.709   -19619488.86243 -15281897.59642  20518520.524    20518515.373
  21798610.025     6509596.92943   5073478.44342  21798612.108    21798608.783
  23150276.506    -4296491.97043  -3343084.07942  23150279.003    23150275.702
  21976827.615   -11191103.96343  -8716834.61842  21976829.989    21976826.708
  22344559.801   -11941616.27043  -9268303.98242  22344561.665    22344559.054
  23249979.656    -4641884.46943  -3609916.72542  23249981.606    23249977.811
 04  5 23 17 59 30.0000000  0  8G22G21G18G 6G29G26G15G16
  22189453.760   -11789817.36843  -8958133.98542  22189454.836    22189449.312
  20422711.720    -9503037.13144  -7395795.97642  20422713.437    20422707.912
  20512961.286   -19648692.90643 -15304653.97642  20512963.112    20512957.937
  21814222.560     6591640.56143   5137408.49742  21814224.634    21814221.180
  23159731.643    -4246805.53943  -3304367.40242  23159734.178    23159730.547
  21981683.996   -11165583.87343  -8696948.80642  21981686.306    21981683.067
  22330752.480   -12014174.57243  -9324842.86442  22330754.345    22330751.447
  23252684.516    -4627669.11143  -3598839.81742  23252686.480    23252683.193
 04  5 23 18  0  0.0000000  0  8G22G21G18G 6G29G26G15G16
  22174534.997   -11868216.58243  -9019224.22842  22174536.032    22174530.255
  20421375.048    -9510061.57444  -7401269.54942  20421376.761    20421371.185
  20507488.567   -19677452.03643 -15327063.67442  20507490.403    20507485.277
  21829902.583     6674039.12643   5201615.12642  21829904.637    21829901.140
  23169281.924    -4196618.99443  -3265261.02842  23169284.500    23169280.530
  21986666.620   -11139399.73943  -8676545.57942  21986668.980    21986665.789
  22316966.101   -12086623.11543  -9381296.22742  22316968.019    22316965.069
  23255489.383    -4612929.86743  -3587354.71442  23255491.294    23255488.120
 04  5 23 18  0 30.0000000  0  8G22G21G18G 6G29G26G15G16
  22159677.936   -11946291.18143  -9080061.50742  22159679.062    22159673.121
  20420088.049    -9516824.87844  -7406539.64442  20420089.768    20420084.221
  20502101.482   -19705761.15843 -15349122.71642  20502103.308    20502098.247
  21845650.660     6756796.43443   5266101.32242  21845652.636    21845649.201
  23178927.956    -4145928.89943  -3225762.27542  23178930.574    23178926.617
  21991776.300   -11112547.37843  -8655621.65942  21991778.691    21991775.516
  22303201.263   -12158955.87043  -9437659.38142  22303203.282    22303200.578
  23258394.895    -4597662.64543  -3575458.19542  23258396.852    23258393.590
 04  5 23 18  1  0.0000000  0  8G22G21G18G 6G29G26G15G16
  22144880.990   -12024048.67343  -9140651.69742  22144882.126    22144876.108
  20418849.298    -9523334.59544  -7411612.14942  20418851.037    20418845.460
  20496798.376   -19733629.00243 -15370837.90842  20496800.190    20496795.105
  21861465.229     6839902.06343   5330858.89542  21861467.232    21861463.533
  23188668.079    -4094745.17043  -3185878.87442  23188670.528    23188666.754
  21997011.649   -11085035.87043  -8634184.12442  21997013.927    21997010.795
  22289457.211   -12231180.81143  -9493938.50942  22289459.181    22289456.435
  23261398.593    -4581877.35543  -3563157.98742  23261400.490    23261397.490
 04  5 23 18  1 30.0000000  0  8G22G21G18G 6G29G26G15G16
  22130145.878   -12101482.24743  -9200989.48142  22130146.956    22130140.947
  20417659.980    -9529584.63544  -7416482.29142  20417661.698    20417656.100
  20491580.370   -19761049.94143 -15392204.85042  20491582.140    20491577.022
  21877346.927     6923360.04843   5395891.07942  21877349.038    21877345.182
  23198502.639    -4043063.95043  -3145607.82042  23198505.193    23198501.636
  22002373.281   -11056860.51543  -8612229.29142  22002375.573    22002372.409
  22275734.926   -12303291.88343  -9550128.91742  22275736.792    22275734.107
  23264501.994    -4565569.37243  -3550450.46242  23264503.781    23264500.958
 04  5 23 18  2  0.0000000  0  8G22G21G18G 6G29G26G15G16
  22115472.833   -12178589.28243  -9261072.81042  22115473.883    22115468.000
  20416520.488    -9535572.65944  -7421148.27942  20416522.212    20416516.584
  20486447.686   -19788022.26143 -15413222.23842  20486449.463    20486444.390
  21893295.354     7007170.63143   5461197.98242  21893297.507    21893294.030
  23208432.037    -3990884.82743  -3104948.77642  23208434.474    23208431.231
  22007861.374   -11028020.40643  -8589756.49542  22007863.720    22007860.444
  22262034.732   -12375286.54843  -9606228.61642  22262036.509    22262033.984
  23267705.015    -4548737.97843  -3537335.15042  23267706.935    23267703.735
 04  5 23 18  2 30.0000000  0  8G22G21G18G 6G29G26G15G16
  22100861.615   -12255370.63743  -9320902.36942  22100862.651    22100857.041
  20415430.526    -9541300.24744  -7425611.32742  20415432.238    20415426.613
  20481399.923   -19814548.28743 -15433891.85142  20481401.729    20481396.684
  21909310.544     7091329.99743   5526776.67542  21909312.674    21909309.134
  23218455.462    -3938211.74543  -3063904.86242  23218457.899    23218454.981
  22013475.479   -10998518.51543  -8566768.00342  22013477.780    22013474.457
  22248356.461   -12447166.37643  -9662238.85042  22248358.068    22248355.708
  23271006.605    -4531386.60843  -3523814.60442  23271008.613    23271005.604
 04  5 23 18  3  0.0000000  0  9G22G21G18G 3G 6G29G26G15G16
  22086311.798   -12331830.55143  -9380481.45242  22086312.806    22086307.077
  20414389.194    -9546772.19044  -7429875.18242  20414390.893    20414385.305
  20476436.093   -19840633.34743 -15454217.85442  20476437.885    20476432.890
  24199487.460    -1034741.54553   -769229.97652  24199488.654    24199484.962
  21925390.690     7175831.42243   5592621.87642  21925392.861    21925389.420
  23228571.356    -3885051.29943  -3022481.16142  23228573.912    23228571.214
  22019214.216   -10968360.83543  -8543268.52242  22019216.549    22019213.161
  22234699.261   -12518935.74343  -9718162.98542  22234700.717    22234698.524
  23274406.420    -4513521.40243  -3509893.67442  23274408.273    23274405.143
 04  5 23 18  3 30.0000000  0  9G22G21G18G 3G 6G29G26G15G16
  22071824.564   -12407960.12543  -9439803.13042  22071825.612    22071820.016
  20413398.145    -9551980.23144  -7433933.39242  20413399.785    20413394.269
  20471557.572   -19866269.99943 -15474194.44642  20471559.363    20471554.345
  24180795.196    -1132959.14543   -845763.09442  24180797.437    24180794.388
  21941536.801     7260680.93043   5658738.35542  21941538.979    21941535.808
  23238781.548    -3831397.46343  -2980673.00642  23238783.855    23238781.088
  22025079.192   -10937540.46843  -8519252.65142  22025081.509    22025077.821
  22221064.506   -12590586.14343  -9773994.43342  22221065.877    22221063.895
  23277904.646    -4495136.03943  -3495567.42142  23277906.657    23277903.518
 04  5 23 18  4  0.0000000  0  9G22G21G18G 3G 6G29G26G15G16
  22057399.865   -12483763.05043  -9498870.27442  22057400.776    22057395.326
  20412456.701    -9556927.74544  -7437788.59342  20412458.328    20412452.832
  20466763.600   -19891462.88443 -15493825.25542  20466765.374    20466760.337
  24162137.720    -1230999.45153   -922158.04152  24162140.336    24162138.147
  21957748.319     7345872.21743   5725121.13642  21957750.402    21957747.163
  23249084.155    -3777256.45543  -2938485.19142  23249086.593    23249083.529
  22031069.222   -10906062.91743  -8494724.69842  22031071.516    22031067.721
  22207451.873   -12662121.53043  -9829736.25542  22207453.075    22207451.165
  23281501.201    -4476236.23743  -3480840.27142  23281503.104    23281499.978
 04  5 23 18  4 30.0000000  0  9G22G21G18G 3G 6G29G26G15G16
  22043037.623   -12559236.89443  -9557681.00342  22043038.575    22043033.259
  20411565.039    -9561613.46044  -7441439.79042  20411566.682    20411561.223
  20462054.167   -19916210.61443 -15513109.18342  20462055.978    20462050.966
  24143515.223    -1328859.06143   -998412.19442  24143517.858    24143515.685
  21974024.989     7431404.73443   5791769.80942  21974027.138    21974023.208
  23259479.664    -3722628.79643  -2895918.30742  23259481.885    23259478.259
  22037184.116   -10873928.25043  -8469684.70542  22037186.465    22037182.698
  22193861.219   -12733539.97343  -9885386.94542  22193862.369    22193860.602
  23285195.471    -4456822.19343  -3465712.45142  23285197.273    23285194.462
 04  5 23 18  5  0.0000000  0  9G22G21G18G 3G 6G29G26G15G16
  22028738.552   -12634378.67043  -9616232.97642  22028739.531    22028734.051
  20410723.760    -9566034.60044  -7444884.82242  20410725.374    20410719.937
  20457429.959   -19940511.40543 -15532044.84942  20457431.743    20457426.681
  24124928.082    -1426533.08343  -1074521.72442  24124930.591    24124928.534
  21990366.391     7517279.05843   5858684.80242  21990368.535    21990364.319
  23269967.627    -3667513.76643  -2852971.58942  23269969.954    23269966.242
  22043424.549   -10841135.10243  -8444131.59242  22043426.886    22043422.975
  22180293.553   -12804838.59843  -9940944.26542  22180294.659    22180292.861
  23288988.197    -4436892.84643  -3450183.11442  23288989.886    23288986.759
 04  5 23 18  5 30.0000000  0  9G22G21G18G 3G 6G29G26G15G16
  22014502.008   -12709190.91843  -9674528.16542  22014503.075    22014497.831
  20409932.196    -9570194.12544  -7448126.01142  20409933.832    20409928.397
  20452889.994   -19964369.23943 -15550635.35642  20452891.759    20452886.672
  24106376.220    -1524022.55043  -1150487.51042  24106378.710    24106376.372
  22006771.358     7603489.72143   5925861.92542  22006773.564    22006769.683
  23280547.073    -3611917.06843  -2809649.55942  23280549.464    23280546.239
  22049789.204   -10807688.33643  -8418069.17342  22049791.631    22049787.615
  22166748.142   -12876020.57643  -9996410.69642  22166749.177    22166747.488
  23292877.423    -4416453.52043  -3434256.38142  23292879.151    23292875.773
 04  5 23 18  6  0.0000000  0  9G22G21G18G 3G 6G29G26G15G16
  22000329.184   -12783670.89743  -9732564.46442  22000330.102    22000324.722
  20409190.853    -9574089.89044  -7451161.67242  20409192.482    20409187.014
  20448434.556   -19987782.44743 -15568879.40742  20448436.343    20448431.156
  24087860.655    -1621323.59543  -1226306.43442  24087862.900    24087860.297
  22023240.795     7690036.73443   5993301.09542  22023242.758    22023239.333
  23291218.341    -3555838.70743  -2765952.15042  23291220.543    23291217.694
  22056278.495   -10773587.19443  -8391496.85742  22056280.906    22056276.833
  22153225.573   -12947083.40343 -10051784.28142  22153226.648    22153224.731
  23296864.088    -4395503.42043  -3417931.62842  23296865.807    23296862.148
 04  5 23 18  6 30.0000000  0  9G22G21G18G 3G 6G29G26G15G16
  21986219.149   -12857820.04643  -9790342.95642  21986220.094    21986214.464
  20408499.424    -9577723.74544  -7453993.24442  20408501.037    20408495.482
  20444063.305   -20010753.76843 -15586779.11842  20444065.089    20444059.834
  24069380.994    -1718435.97943  -1301978.38642  24069383.146    24069379.810
  22039773.546     7776916.13443   6060999.27842  22039775.497    22039771.957
  23301980.663    -3499282.41543  -2721882.34942  23301982.682    23301980.203
  22062891.671   -10738835.01943  -8364417.24742  22062894.030    22062890.080
  22139725.054   -13018028.50643 -10107066.10742  22139726.320    22139724.410
  23300947.679    -4374046.46243  -3401211.95942  23300949.396    23300945.360
 04  5 23 18  7  0.0000000  0  9G22G21G18G 3G 6G29G26G15G16
  21972172.180   -12931636.17643  -9847861.94342  21972173.230    21972167.610
  20407858.169    -9581093.49844  -7456619.02142  20407859.834    20407854.230
  20439776.324   -20033282.15343 -15604333.68842  20439778.065    20439772.836
  24050937.492    -1815356.02343  -1377500.44242  24050939.995    24050936.383
  22056369.078     7864127.21743   6128955.92742  22056371.262    22056367.687
  23312833.659    -3442249.06543  -2677440.78542  23312835.760    23312833.559
  22069628.588   -10703431.75843  -8336830.29742  22069631.073    22069627.218
  22126247.106   -13088854.10043 -10162254.82642  22126248.475    22126246.713
  23305127.093    -4352083.02143  -3384097.59542  23305128.992    23305125.034
 04  5 23 18  7 30.0000000  0  9G22G21G18G 3G 6G29G26G15G16
  21958189.188   -13005116.50143  -9905119.29042  21958190.307    21958184.710
  20407267.607    -9584196.92644  -7459037.27742  20407269.285    20407263.646
  20435573.787   -20055365.94443 -15621541.83242  20435575.592    20435570.413
  24032531.536    -1912079.25443  -1452869.16342  24032534.095    24032530.309
  22073028.048     7951670.22443   6197171.22742  22073030.021    22073026.641
  23323777.693    -3384738.39343  -2632627.28942  23323779.809    23323777.600
  22076489.593   -10667376.77143  -8308735.52442  22076492.094    22076488.383
  22112792.671   -13159557.60943 -10217348.42842  22112793.974    22112792.077
  23309403.078    -4329612.27343  -3366587.96642  23309405.153    23309401.196
 04  5 23 18  8  0.0000000  0  9G22G21G18G 3G 6G29G26G15G16
  21944269.802   -13078263.60143  -9962116.96842  21944270.817    21944265.278
  20406727.232    -9587036.71444  -7461250.10442  20406728.889    20406723.234
  20431455.205   -20077009.16643 -15638406.67742  20431456.946    20431451.819
  24014162.772    -2008606.88243  -1528085.38442  24014165.133    24014161.641
  22089748.954     8039539.63343   6265640.85842  22089751.080    22089747.761
  23334811.240    -3326755.75443  -2587446.05042  23334813.464    23334811.331
  22083473.854   -10630674.84643  -8280136.63342  22083476.351    22083472.556
  22099360.957   -13230141.79943 -10272349.05942  22099362.340    22099360.213
  23313774.764    -4306639.37843  -3348687.04242  23313776.600    23313773.057
 04  5 23 18  8 30.0000000  0  9G22G21G18G 3G 6G29G26G15G16
  21930415.390   -13151068.74343 -10018848.19142  21930416.422    21930411.067
  20406238.511    -9589604.61344  -7463251.06442  20406240.194    20406234.603
  20427421.940   -20098204.35343 -15654922.39542  20427423.676    20427418.475
  23995832.825    -2104928.71243  -1603141.32642  23995835.548    23995832.157
  22106533.418     8127741.56543   6334369.60142  22106535.386    22106532.040
  23345936.020    -3268295.27343  -2541892.47342  23345938.333    23345935.918
  22090582.293   -10593319.47743  -8251028.57442  22090584.788    22090581.099
  22085953.499   -13300598.28743 -10327250.17842  22085954.994    22085952.798
  23318243.328    -4283158.10343  -3330389.99042  23318245.156    23318241.491
 04  5 23 18  9  0.0000000  0  9G22G21G18G 3G 6G29G26G15G16
  21916623.340   -13223545.90243 -10075323.83442  21916624.354    21916618.965
  20405798.772    -9591915.09843  -7465051.44442  20405800.463    20405794.929
  20423470.945   -20118966.83743 -15671100.95342  20423472.678    20423467.459
  23977540.228    -2201057.25443  -1678046.59642  23977542.822    23977539.691
  22123377.922     8216259.48543   6403344.53542  22123380.057    22123376.596
  23357148.556    -3209373.64143  -2495979.53442  23357150.795    23357148.005
  22097811.801   -10555326.87143  -8221423.96342  22097814.354    22097810.853
  22072567.788   -13370941.03443 -10382062.67142  22072569.282    22072567.042
  23322805.427    -4259184.49043  -3311709.29042  23322807.254    23322803.540
 04  5 23 18  9 30.0000000  0  9G22G21G18G 3G 6G29G26G15G16
  21902896.963   -13295678.10443 -10131530.70942  21902897.949    21902892.600
  20405411.335    -9593951.39044  -7466638.16642  20405412.936    20405407.462
  20419605.474   -20139280.33043 -15686929.63242  20419607.175    20419601.966
  23959288.319    -2296973.50843  -1752786.40142  23959290.869    23959287.488
  22140284.925     8305107.45643   6472576.67142  22140287.069    22140283.700
  23368451.206    -3149976.57443  -2449696.13942  23368453.487    23368450.851
  22105165.714   -10516682.03143  -8191311.10742  22105168.160    22105164.854
  22059206.801   -13441153.34943 -10436773.52142  22059208.372    22059206.019
  23327463.907    -4234704.17743  -3292633.73342  23327465.627    23327462.233
 04  5 23 18 10  0.0000000  0  9G22G21G18G 3G 6G29G26G15G16
  21889234.382   -13367475.15843 -10187476.42142  21889235.345    21889230.093
  20405074.082    -9595723.82444  -7468019.27442  20405075.679    20405070.238
  20415823.056   -20159156.43143 -15702417.50642  20415824.840    20415819.762
  23941074.923    -2392685.83643  -1827367.35742  23941077.340    23941074.346
  22157252.541     8394273.06643   6542056.34142  22157254.629    22157251.352
  23379842.224    -3090116.62243  -2403052.05142  23379844.488    23379841.900
  22112641.529   -10477396.94543  -8160699.38442  22112643.986    22112640.489
  22045868.779   -13511245.31443 -10491390.57942  22045870.383    22045867.628
  23332216.512    -4209729.45143  -3273172.92542  23332218.241    23332214.835
 04  5 23 18 10 30.0000000  0  9G22G21G18G 3G 6G29G26G15G16
  21875636.212   -13438934.21943 -10243158.74542  21875637.180    21875631.918
  20404787.504    -9597229.59544  -7469192.59042  20404789.145    20404783.748
  20412124.361   -20178592.94443 -15717562.83042  20412126.120    20412121.082
  23922900.872    -2488189.87243  -1901786.01642  23922903.299    23922900.955
  22174280.815     8483756.48843   6611783.61842  22174282.807    22174279.319
  23391321.346    -3029793.57343  -2356047.11442  23391323.642    23391321.095
  22120239.308   -10437470.89043  -8129588.19142  22120241.723    22120238.262
  22032554.221   -13581213.95243 -10545911.56442  22032555.893    22032552.890
  23337063.444    -4184259.52743  -3253326.27642  23337065.198    23337061.527
 04  5 23 18 11  0.0000000  0  9G22G21G18G 3G 6G29G26G15G16
  21862102.738   -13510052.70243 -10298575.68542  21862103.707    21862098.262
  20404552.087    -9598466.64544  -7470156.52842  20404553.730    20404548.362
  20408509.622   -20197588.87643 -15732364.84442  20408511.376    20408506.274
  23904767.005    -2583481.38443  -1976039.10242  23904769.445    23904767.943
  22191369.564     8573557.45343   6681758.36642  22191371.563    22191368.014
  23402888.224    -2969007.78643  -2308681.59042  23402890.629    23402888.407
  22127958.990   -10396903.74943  -8097977.44042  22127961.412    22127958.048
  22019263.472   -13651057.04243 -10600334.71442  22019265.193    22019262.042
  23342004.190    -4158294.70743  -3233093.96842  23342006.002    23342002.414
 04  5 23 18 11 30.0000000  0  9G22G21G18G 3G 6G29G26G15G16
  21848633.850   -13580831.71543 -10353728.10842  21848634.829    21848629.344
  20404367.593    -9599436.01644  -7470911.88542  20404369.232    20404363.887
  20404978.224   -20216146.57043 -15746825.37542  20404979.973    20404974.923
  23886673.974    -2678559.97443  -2050126.25742  23886676.208    23886675.177
  22208518.208     8663672.29843   6751977.66242  22208520.157    22208516.781
  23414542.761    -2907763.27143  -2260958.62242  23414545.058    23414542.936
  22135799.857   -10355698.98143  -8065869.83542  22135802.264    22135799.205
  22005996.324   -13720775.81243 -10654660.99342  22005998.081    22005994.776
  23347038.759    -4131838.38543  -3212478.70342  23347040.538    23347037.101
 04  5 23 18 12  0.0000000  0  9G22G21G18G 3G 6G29G26G15G16
  21835230.256   -13651268.11443 -10408613.56242  21835231.228    21835225.868
  20404234.635    -9600134.87044  -7471456.45242  20404236.257    20404230.859
  20401530.527   -20234263.81043 -15760942.70142  20401532.326    20401527.329
  23868622.677    -2773420.65643  -2124043.63342  23868624.617    23868623.853
  22225726.161     8754101.40943   6822441.87142  22225728.260    22225724.964
  23426285.096    -2846059.24443  -2212877.59942  23426287.233    23426285.082
  22143762.563   -10313855.36043  -8033264.44942  22143764.917    22143761.862
  21992753.473   -13790367.08743 -10708887.92042  21992755.275    21992751.921
  23352166.742    -4104889.64943  -3191479.74642  23352168.664    23352165.243
 04  5 23 18 12 30.0000000  0  9G22G21G18G 3G 6G29G26G15G16
  21821892.528   -13721358.16843 -10463229.14642  21821893.445    21821888.205
  20404153.850    -9600559.68844  -7471787.49042  20404155.456    20404149.989
  20398167.234   -20251938.29543 -15774715.01742  20398168.983    20398163.927
  23850613.906    -2868057.94843  -2197786.91042  23850615.848    23850615.081
  22242994.247     8844846.05243   6893151.91542  22242996.152    22242992.625
  23438114.619    -2783894.67443  -2164437.69242  23438116.886    23438114.702
  22151847.136   -10271371.43443  -8000160.10242  22151849.413    22151846.358
  21979535.723   -13859826.96943 -10763012.48742  21979537.370    21979533.967
  23357389.006    -4077447.16343  -3170095.99842  23357390.711    23357387.436
 04  5 23 18 13  0.0000000  0  9G22G21G18G 3G 6G29G26G15G16
  21808618.803   -13791111.85543 -10517582.59842  21808619.754    21808614.432
  20404123.163    -9600720.72844  -7471912.98042  20404124.805    20404119.327
  20394886.005   -20269181.14743 -15788150.99742  20394887.776    20394882.702
  23832646.021    -2962480.29143  -2271362.69942  23832648.058    23832647.281
  22260320.297     8935893.42643   6964097.85542  22260322.211    22260318.052
  23450029.404    -2721282.66743  -2115649.12942  23450031.599    23450029.596
  22160051.006   -10228259.71943  -7966566.57342  22160053.324    22160050.272
  21966341.033   -13929165.65943 -10817042.60542  21966342.666    21966339.056
  23362702.764    -4049523.55943  -3148337.38242  23362704.573    23362701.352
 04  5 23 18 13 30.0000000  0  9G22G21G18G 3G 6G29G26G15G16
  21795411.079   -13860518.76643 -10571665.86142  21795412.031    21795406.643
  20404144.741    -9600607.50644  -7471824.76342  20404146.360    20404140.837
  20391688.581   -20285983.47243 -15801243.71142  20391690.369    20391685.320
  23814721.530    -3056675.40843  -2344761.42542  23814723.564    23814722.587
  22277705.194     9027251.05843   7035285.52442  22277707.185    22277703.010
  23462030.612    -2658215.45643  -2066505.89742  23462032.829    23462030.955
  22168375.809   -10184512.10943  -7932477.54642  22168378.230    22168375.295
  21953171.270   -13998372.82243 -10870970.23842  21953172.921    21953169.444
  23368109.297    -4021111.01143  -3126197.78042  23368111.169    23368108.226
 04  5 23 18 14  0.0000000  0  9G22G21G18G 3G 6G29G26G15G16
  21782269.008   -13929579.99043 -10625479.76742  21782270.054    21782264.563
  20404218.059    -9600222.04344  -7471524.40342  20404219.692    20404214.151
  20388574.562   -20302347.65243 -15813995.01642  20388576.303    20388571.310
  23796840.477    -3150642.89943  -2417982.75742  23796842.464    23796840.987
  22295148.421     9118915.14243   7106712.06942  22295150.471    22295146.338
  23474117.924    -2594697.08243  -2017011.12942  23474119.981    23474117.843
  22176821.058   -10140132.12643  -7897895.77842  22176823.505    22176820.470
  21940026.394   -14067449.78443 -10924796.40842  21940027.979    21940024.397
  23373608.254    -3992213.16243  -3103680.03742  23373610.113    23373607.569
 04  5 23 18 14 30.0000000  0  9G22G21G18G 3G 6G29G26G15G16
  21769192.701   -13998296.63143 -10679025.15442  21769193.721    21769188.220
  20404343.007    -9599565.43044  -7471012.75642  20404344.616    20404339.090
  20385543.635   -20318275.78643 -15826406.53742  20385545.359    20385540.230
  23779002.586    -3244382.08543  -2491026.20042  23779004.546    23779002.814
  22312648.931     9210882.05043   7178374.54142  22312650.966    22312647.520
  23486290.234    -2530731.16743  -1967167.64242  23486292.464    23486290.000
  22185386.088   -10095123.11743  -7862823.84442  22185388.451    22185385.474
  21926905.895   -14136397.26943 -10978521.70342  21926907.472    21926904.183
  23379199.027    -3962833.43743  -3080786.78742  23379200.727    23379198.564
 04  5 23 18 15  0.0000000  0  8G22G21G18G 3G 6G26G15G16
  21756182.165   -14066667.18143 -10732300.85642  21756183.187    21756177.700
  20404519.913    -9598635.86144  -7470288.41642  20404521.542    20404516.013
  20382595.562   -20333767.44243 -15838477.95442  20382597.333    20382592.235
  23761208.433    -3337889.71643  -2563889.21842  23761210.405    23761208.722
  22330206.983     9303150.69343   7250272.11342  22330208.977    22330205.451
  22194070.533   -10049485.74843  -7827262.28042  22194072.984    22194070.057
  21913810.725   -14205213.68043 -11032144.84542  21913812.169    21913808.962
  23384881.534    -3932972.68443  -3057518.70042  23384883.216    23384880.983
 04  5 23 18 15 30.0000000  0  9G22G21G18G 3G 6G29G26G15G16
  21743237.224   -14134693.25943 -10785308.14142  21743238.181    21743232.640
  20404748.376    -9597435.31244  -7469352.92242  20404750.026    20404744.502
  20379730.059   -20348825.68343 -15850211.65242  20379731.822    20379726.780
  23743458.520    -3431165.56243  -2636571.63642  23743460.502    23743458.774
  22347822.074     9395716.71243   7322401.41542  22347824.001    22347820.294
  23510888.908      749375.14753    588759.26452  23510890.869    23510888.664
  22202873.941   -10003224.07443  -7791214.24042  22202876.212    22202873.343
  21900739.964   -14273901.12043 -11085667.48942  21900741.346    21900738.187
  23390654.798    -3902635.32543  -3033879.24342  23390656.463    23390653.802
 04  5 23 18 16  0.0000000  0  8G22G21G18G 3G 6G26G15G16
  21730359.034   -14202368.91543 -10838042.36742  21730359.931    21730354.382
  20405029.516    -9595957.85244  -7468201.65342  20405031.196    20405025.691
  20376947.991   -20363445.85643 -15861603.99042  20376949.763    20376944.631
  23725754.072    -3524202.11743  -2709067.59842  23725756.087    23725754.415
  22365493.994     9488583.29843   7394764.92942  22365496.015    22365492.320
  22211796.693    -9956334.69643  -7754677.06442  22211799.057    22211795.924
  21887694.513   -14342453.48943 -11139084.90242  21887695.902    21887693.105
  23396519.223    -3871817.70243  -3009865.52042  23396521.038    23396518.208
 04  5 23 18 16 30.0000000  0  8G22G21G18G 3G 6G26G15G16
  21717547.134   -14269694.65843 -10890503.94142  21717548.197    21717542.675
  20405363.079    -9594204.53644  -7466835.43542  20405364.789    20405359.411
  20374248.930   -20377629.52043 -15872656.18642  20374250.702    20374245.499
  23708095.384    -3616997.82543  -2781375.87842  23708097.412    23708095.870
  22383222.536     9581747.39743   7467360.29242  22383224.474    22383220.957
  22220838.290    -9908820.25243  -7717652.82942  22220840.755    22220837.524
  21874675.310   -14410870.90443 -11192397.15042  21874676.501    21874673.689
  23402474.125    -3840522.58043  -2985479.72042  23402476.256    23402473.195
 04  5 23 18 17  0.0000000  0  8G22G21G18G 3G 6G26G15G16
  21704801.458   -14336674.08343 -10942695.65942  21704802.467    21704796.758
  20405748.556    -9592178.92944  -7465257.04342  20405750.201    20405744.916
  20371631.959   -20391381.84943 -15883372.28642  20371633.727    20371628.543
  23690482.005    -3709554.66343  -2853497.98042  23690484.101    23690482.613
  22401006.437     9675202.61843   7540182.41842  22401008.409    22401004.941
  22229997.886    -9860686.98043  -7680146.38342  22230000.276    22229996.888
  21861680.859   -14479156.98043 -11245607.04542  21861682.020    21861679.407
  23408519.148    -3808756.42443  -2960726.87442  23408521.094    23408517.945
 04  5 23 18 17 30.0000000  0  8G22G21G18G 3G 6G26G15G16
  21692122.304   -14403303.65243 -10994614.76742  21692123.272    21692117.529
  20406186.430    -9589877.53643  -7463463.76042  20406188.088    20406182.853
  20369097.456   -20404700.68443 -15893750.60242  20369099.245    20369094.094
  23672915.316    -3801867.43043  -2925429.95442  23672917.411    23672915.890
  22418845.860     9768949.65743   7613231.98442  22418847.722    22418844.678
  22239275.383    -9811933.78343  -7642156.87242  22239277.774    22239274.288
  21848712.058   -14547307.86043 -11298711.59042  21848713.204    21848710.701
  23414653.755    -3776518.31643  -2935606.29542  23414655.734    23414652.702
 04  5 23 18 18  0.0000000  0  8G22G21G18G 3G 6G26G15G16
  21679509.369   -14469584.74143 -11046262.32842  21679510.403    21679504.660
  20406676.612    -9587301.77143  -7461456.67742  20406678.221    20406672.973
  20366645.012   -20417588.37643 -15903792.95742  20366646.814    20366641.606
  23655395.392    -3893935.36943  -2997171.14142  23655397.452    23655395.829
  22436740.348     9862984.79043   7686506.06542  22436742.103    22436738.793
  22248669.941    -9762564.53843  -7603687.34542  22248672.442    22248668.891
  21835768.568   -14615325.10143 -11351711.99642  21835769.836    21835767.447
  23420877.642    -3743812.21343  -2910121.02242  23420879.550    23420876.616
 04  5 23 18 18 30.0000000  0  8G22G21G18G 3G 6G26G15G16
  21666963.135   -14535515.72643 -11097637.08042  21666964.150    21666958.456
  20407219.294    -9584450.05743  -7459234.55642  20407220.896    20407215.563
  20364274.648   -20430044.46643 -15913498.99442  20364276.475    20364271.200
  23637922.791    -3985755.04943  -3068718.89642  23637924.685    23637923.045
  22454689.341     9957306.78943   7760003.59342  22454691.243    22454687.440
  22258181.595    -9712579.77943  -7564738.19042  22258184.078    22258180.600
  21822851.148   -14683206.90243 -11404606.85842  21822852.260    21822849.924
  23427190.382    -3710638.82943  -2884271.67742  23427192.271    23427189.271
 04  5 23 18 19  0.0000000  0  8G22G21G18G 3G 6G26G15G16
  21654484.158   -14601092.94743 -11148736.17242  21654485.148    21654479.447
  20407815.113    -9581319.04444  -7456794.81842  20407816.754    20407811.327
  20361986.997   -20442066.33243 -15922866.67442  20361988.791    20361983.484
  23620498.358    -4077320.97043  -3140068.92842  23620500.285    23620498.505
  22472692.954    10051916.86943   7833725.73542  22472694.881    22472691.235
  22267810.795    -9661978.32243  -7525308.50442  22267813.259    22267809.738
  21809960.189   -14750949.30143 -11457393.13342  21809961.362    21809958.930
  23433592.226    -3676996.83443  -2858057.16442  23433594.166    23433590.725
 04  5 23 18 19 30.0000000  0  8G22G21G18G 3G 6G26G15G16
  21642072.112   -14666318.38643 -11199561.15442  21642073.121    21642067.303
  20408463.667    -9577910.82944  -7454139.06442  20408465.346    20408459.874
  20359781.247   -20453657.76543 -15931898.95842  20359783.044    20359777.709
  23603122.150    -4168633.66243  -3211221.52642  23603124.182    23603122.405
  22490750.530    10146810.19243   7907668.48442  22490752.490    22490749.289
  22277556.348    -9610764.97143  -7485402.00042  22277558.753    22277555.264
  21797095.354   -14818554.25443 -11510072.29642  21797096.620    21797094.045
  23440082.137    -3642891.36643  -2831481.51042  23440084.014    23440080.653
 04  5 23 18 20  0.0000000  0  8G22G21G18G 3G 6G26G15G16
  21629726.398   -14731195.60643 -11250114.77442  21629727.402    21629721.591
  20409164.410    -9574228.49944  -7451269.70442  20409166.076    20409160.603
  20357656.589   -20464823.08243 -15940599.20142  20357658.340    20357652.998
  23585794.092    -4259694.31643  -3282177.80842  23585796.076    23585793.952
  22508861.134    10241980.68143   7981827.23442  22508863.183    22508859.545
  22287416.973    -9558945.56043  -7445023.23542  22287419.404    22287416.152
  21784256.180   -14886025.09243 -11562646.93042  21784257.407    21784254.564
  23446659.248    -3608328.00343  -2804549.04242  23446661.024    23446657.828
 04  5 23 18 20 30.0000000  0  8G22G21G18G 3G 6G26G15G16
  21617448.646   -14795714.84343 -11300389.46642  21617449.701    21617444.005
  20409919.010    -9570262.76344  -7448179.52742  20409920.721    20409915.274
  20355614.578   -20475554.21843 -15948961.12442  20355616.322    20355610.904
  23568515.396    -4350491.41043  -3352928.77142  23568517.672    23568515.482
  22527025.210    10337435.19743   8056207.27942  22527027.420    22527023.677
  22297394.410    -9506513.08043  -7404166.77442  22297396.789    22297393.825
  21771444.327   -14953352.02643 -11615109.46742  21771445.637    21771442.716
  23453325.149    -3573299.88443  -2777254.48542  23453326.871    23453323.296
 04  5 23 18 21  0.0000000  0  7G22G21G18G 3G26G15G16
  21605239.245   -14859875.20843 -11350384.51542  21605240.321    21605234.617
  20410727.710    -9566013.05144  -7444868.06342  20410729.419    20410723.992
  20353655.054   -20485851.41143 -15956984.91042  20353656.808    20353651.396
  23551287.806    -4441022.35743  -3423472.29142  23551289.975    23551287.811
  22307488.411    -9453468.88543  -7362833.63342  22307490.760    22307487.763
  21758660.110   -15020533.75943 -11667458.83142  21758661.540    21758658.442
  23460079.016    -3537808.62043  -2749599.01142  23460080.975    23460077.086
 04  5 23 18 21 30.0000000  0  8G22G21G18G 3G 6G26G15G16
  21593094.770   -14923694.89443 -11400114.11042  21593095.854    21593090.124
  20411587.067    -9561496.88644  -7441348.97542  20411588.804    20411583.402
  20351774.407   -20495733.95443 -15964685.59742  20351776.176    20351770.788
  23534107.528    -4531303.22343  -3493821.02542  23534109.703    23534108.060
  22563511.673    13680011.01753  10660811.66952  22563513.233    22563511.813
  22317694.991    -9399833.73943  -7321040.02342  22317697.227    22317694.053
  21745899.962   -15087588.13543 -11719708.95842  21745901.544    21745898.295
  23466916.885    -3501875.01743  -2721598.83642  23466918.800    23466915.198
 04  5 23 18 22  0.0000000  0  9G22G21G18G 3G 6G29G26G15G16
  21581018.539   -14987156.53543 -11449564.70942  21581019.538    21581013.778
  20412500.414    -9556697.10844  -7437608.89342  20412502.143    20412496.793
  20349975.848   -20505185.63143 -15972050.53342  20349977.607    20349972.172
  23516978.794    -4621314.73343  -3563959.80742  23516980.771    23516979.217
  22581832.399    13776286.21443  10735831.18442  22581833.987    22581831.721
  23678839.200
  22328016.716    -9345592.74743  -7278774.34342  22328018.903    22328015.596
  21733167.533   -15154497.50443 -11771846.12142  21733169.177    21733165.840
  23473841.959    -3465484.20043  -2693242.44642  23473843.753    23473839.909
 04  5 23 18 22 30.0000000  0  9G22G21G18G 3G 6G29G26G15G16
  21569009.790   -15050262.63243 -11498738.25542  21569010.821    21569004.965
  20413467.230    -9551616.48644  -7433649.97242  20413468.946    20413463.616
  20348258.479   -20514210.43143 -15979082.84642  20348260.236    20348254.810
  23499901.487    -4711057.65343  -3633889.29042  23499903.257    23499901.849
  22600204.819    13872832.37843  10811061.91742  22600206.316    22600203.917
  23692321.063    -1158922.65053   -943604.53552  23692322.318    23692319.102
  22338452.620    -9290751.28043  -7236040.75742  22338454.803    22338451.497
  21720462.180   -15221264.26943 -11823872.13542  21720463.835    21720460.683
  23480853.146    -3428641.53743  -2664533.92442  23480854.837    23480851.028
 04  5 23 18 23  0.0000000  0  9G22G21G18G 3G 6G29G26G15G16
  21557068.899   -15113011.93043 -11547633.78242  21557069.999    21557064.051
  20414487.792    -9546253.50544  -7429471.03842  20414489.488    20414484.178
  20346622.291   -20522808.09243 -15985782.30942  20346624.088    20346618.726
  23482875.900    -4800528.70443  -3703606.95742  23482877.898    23482876.549
  22618628.264    13969648.51843  10886502.96942  22618629.992    22618627.632
  23705880.595    -1087664.47643   -888078.66242  23705882.806    23705879.554
  22349002.770    -9235310.32643  -7192840.04342  22349004.918    22349001.433
  21707784.417   -15287886.69743 -11875785.69442  21707786.043    21707782.976
  23487949.726    -3391347.98443  -2635474.07242  23487951.515    23487948.056
 04  5 23 18 23 30.0000000  0  9G22G21G18G 3G 6G29G26G15G16
  21545196.998   -15175401.36843 -11596248.89742  21545197.919    21545191.569
  20415562.655    -9540604.90844  -7425069.53342  20415564.355    20415559.089
  20345067.780   -20530976.90643 -15992147.62242  20345069.557    20345064.296
  23465902.861    -4889722.87443  -3773108.83642  23465905.041    23465903.795
  22637102.972    14066735.13453  10962154.81852  22637104.803    22637102.381
  23719518.750    -1015993.53743   -832231.29142  23719521.326    23719516.323
  22359667.077    -9179269.54643  -7149171.93042  22359669.292    22359665.418
  21695134.625   -15354361.53843 -11927584.24042  21695136.331    21695133.229
  23495132.534    -3353603.34643  -2606062.75042  23495134.253    23495130.816
 04  5 23 18 24  0.0000000  0  9G22G21G18G 3G 6G29G26G15G16
  21533391.780   -15237436.83743 -11644588.17342  21533392.837    21533386.650
  20416690.759    -9534677.03344  -7420450.43042  20416692.428    20416687.142
  20343593.611   -20538724.12843 -15998184.41442  20343595.318    20343590.025
  23448981.856    -4978644.04443  -3842398.04942  23448984.071    23448982.695
  22655628.045    14164083.36953  11038010.49652  22655629.776    22655626.900
  23733234.236     -943918.48243   -776069.12642  23733236.701    23733231.089
  22370443.686    -9122637.47843  -7105043.03642  22370446.023    22370442.249
  21682511.797   -15420694.36743 -11979272.12742  21682513.502    21682510.576
  23502399.555    -3315416.18843  -2576306.56342  23502401.101    23502397.624
 04  5 23 18 24 30.0000000  0  9G22G21G18G 3G 6G29G26G15G16
  21521654.396   -15299116.32443 -11692650.05042  21521655.455    21521649.587
  20417872.435    -9528467.49744  -7415611.83442  20417874.120    20417868.815
  20342199.748   -20546048.87743 -16003892.00542  20342201.484    20342196.187
  23432113.674    -5067288.16643  -3911471.32842  23432116.025    23432114.104
  22674202.155    14261692.71743  11114069.60342  22674204.336    22674201.147
  23747026.308     -871439.79743   -719592.30242  23747028.798    23747022.187
  22381332.880    -9065414.48943  -7060453.72542  22381335.208    22381331.627
  21669916.525   -15486882.88143 -12030847.56942  21669918.181    21669915.357
  23509750.615    -3276786.86343  -2546205.83442  23509752.171    23509748.722
 04  5 23 18 25  0.0000000  0  9G22G21G18G 3G 6G29G26G15G16
  21509985.886   -15360435.28543 -11740431.03142  21509986.869    21509980.966
  20419108.512    -9521971.90144  -7410550.34242  20419110.235    20419104.909
  20340886.834   -20552948.22043 -16009268.11942  20340888.567    20340883.377
  23415298.971    -5155648.86643  -3980323.72042  23415301.414    23415299.707
  22692826.536    14359565.30353  11190333.83652  22692828.691    22692825.458
  23760895.862     -798556.26043   -662799.99242  23760897.881    23760891.538
  22392335.020    -9007598.92143  -7015402.67642  22392337.346    22392333.810
  21657349.735   -15552922.29343 -12082306.82542  21657351.296    21657348.577
  23517185.947    -3237713.49143  -2515759.10842  23517187.618    23517184.043
 04  5 23 18 25 30.0000000  0  9G22G21G18G 3G 6G29G26G15G16
  21498385.286   -15421396.25543 -11787933.02442  21498386.357    21498380.472
  20420398.566    -9515192.61844  -7405267.79242  20420400.327    20420395.004
  20339654.156   -20559425.77043 -16014315.56742  20339655.902    20339650.809
  23398538.371    -5243726.62343  -4048955.66742  23398540.601    23398539.037
  22711500.027    14457695.85953  11266799.15052  22711502.163    22711499.699
  23774841.428     -725272.85543   -605696.02342  23774843.695    23774836.895
  22403448.758    -8949195.80643  -6969893.76142  22403451.086    22403447.646
  21644810.789   -15618814.44243 -12133651.34042  21644812.321    21644809.744
  23524704.608    -3198201.49943  -2484970.58242  23524706.126    23524702.746
 04  5 23 18 26  0.0000000  0  9G22G21G18G 3G 6G29G26G15G16
  21486853.050   -15481998.44143 -11835155.46242  21486854.125    21486848.317
  20421742.797    -9508128.82344  -7399763.54742  20421744.536    20421739.205
  20338501.770   -20565481.87943 -16019034.61542  20338503.515    20338498.366
  23381831.971    -5331518.76143  -4117365.06842  23381834.167    23381832.624
  22730222.714    14556082.55443  11343464.06342  22730224.537    22730222.008
  23788862.208     -651591.60543   -548282.11942  23788864.732    23788858.766
  22414674.033    -8890206.89443  -6923928.39442  22414676.257    22414673.008
  21632300.228   -15684558.38643 -12184880.36142  21632301.714    21632299.082
  23532306.557    -3158252.54643  -2453841.60142  23532308.323    23532305.054
 04  5 23 18 26 30.0000000  0  9G22G21G18G 3G 6G29G26G15G16
  21475389.393   -15542240.59543 -11882097.36142  21475390.416    21475384.605
  20423141.456    -9500778.77544  -7394036.24042  20423143.181    20423137.836
  20337429.508   -20571116.49843 -16023425.22742  20337431.275    20337426.214
  23365180.593    -5419021.57543  -4185549.04142  23365182.948    23365181.270
  22748993.122    14654724.15553  11420327.53352  22748995.592    22748993.271
  23802958.731     -577513.80743   -490559.10642  23802961.166    23802955.887
  22426010.530    -8830633.63143  -6877507.69942  22426012.693    22426009.422
  21619818.259   -15750152.09243 -12235992.31842  21619819.737    21619816.964
  23539991.390    -3117867.99943  -2422373.18342  23539993.374    23539989.939
 04  5 23 18 27  0.0000000  0  9G22G21G18G 3G 6G29G26G15G16
  21463993.316   -15602127.10343 -11928762.12742  21463994.277    21463988.550
  20424593.789    -9493146.73344  -7388089.20142  20424595.520    20424590.142
  20336436.371   -20576335.41143 -16027491.91942  20336438.153    20336433.150
  23348583.939    -5506237.69243  -4253509.63742  23348586.058    23348584.252
  22767811.984    14753613.63243  11497384.17642  22767813.869    22767811.249
  23817129.101     -503046.83143   -432532.95842  23817131.710    23817127.260
  22437456.851    -8770483.07843  -6830637.17042  22437459.050    22437455.716
  21607363.889   -15815599.65143 -12286990.39242  21607365.435    21607362.602
  23547757.685    -3077054.77543  -2390570.72442  23547759.875    23547756.716
 04  5 23 18 27 30.0000000  0  9G22G21G18G 3G 6G29G26G15G16
  21452666.203   -15661651.30543 -11975144.57242  21452667.204    21452661.342
  20426100.999    -9485226.31944  -7381917.46242  20426102.732    20426097.354
  20335523.425   -20581133.22643 -16031230.48042  20335525.223    20335520.121
  23332043.463    -5593158.43643  -4321240.01242  23332045.437    23332043.467
  22786677.407    14852755.03853  11574637.13052  22786679.429    22786677.583
  23831374.783     -428186.80943   -374200.49442  23831377.115    23831373.352
  22449014.006    -8709751.22143  -6783313.69142  22449016.185    22449012.628
  21594938.701   -15880894.09943 -12337869.15842  21594940.112    21594937.408
  23555606.771    -3035809.14343  -2358431.31742  23555608.729    23555605.755
 04  5 23 18 28  0.0000000  0  9G22G21G18G 3G 6G29G26G15G16
  21441407.516   -15720815.57243 -12021246.56242  21441408.537    21441402.631
  20427662.680    -9477019.61344  -7375522.63742  20427664.404    20427659.012
  20334689.880   -20585513.64043 -16034643.79042  20334691.699    20334686.489
  23315559.216    -5679784.15243  -4388740.52242  23315561.133    23315558.699
  22805590.512    14952143.57453  11652082.58952  22805592.377    22805590.627
  23845693.791     -352938.74343   -315565.70142  23845696.350    23845692.970
  22460680.475    -8648443.26143  -6735541.26742  22460682.823    22460679.206
  21582542.465   -15946037.35643 -12388630.10642  21582543.741    21582540.982
  23563537.128    -2994136.19143  -2325958.94942  23563538.707    23563535.844
 04  5 23 18 28 30.0000000  0  9G22G21G18G 3G 6G29G26G15G16
  21430217.517   -15779618.65843 -12067067.11542  21430218.553    21430212.700
  20429279.158    -9468525.10944  -7368903.55042  20429280.895    20429275.441
  20333935.811   -20589476.26343 -16037731.54942  20333937.630    20333932.415
  23299131.719    -5766111.32143  -4456008.40842  23299133.756    23299130.894
  22824550.143    15051777.72153  11729719.51852  22824552.104    22824550.329
  23860086.447     -277304.05643   -256629.56642  23860088.861    23860085.907
  22472456.481    -8586560.30343  -6687320.86742  22472458.795    22472455.125
  21570175.238   -16011027.44843 -12439271.74242  21570176.495    21570173.704
  23571548.144    -2952037.02843  -2293154.46342  23571549.918    23571547.370
 04  5 23 18 29  0.0000000  0  9G22G21G18G 3G 6G29G26G15G16
  21419096.761   -15838058.74343 -12112604.80342  21419097.777    21419091.800
  20430950.685    -9459741.23144  -7362058.97942  20430952.422    20430946.917
  20333261.315   -20593020.89543 -16040493.60942  20333263.113    20333257.911
  23282761.619    -5852136.29443  -4523040.79442  23282763.680    23282760.629
  22843556.410    15151656.68953  11807547.19952  22843558.153    22843556.643
  23874552.641     -201283.96143   -197393.12842  23874554.979    23874552.246
  22484341.636    -8524103.36743  -6638653.18842  22484343.989    22484340.349
  21557837.619   -16075862.32943 -12489792.40242  21557838.745    21557835.954
  23579640.618    -2909512.60443  -2260018.61642  23579642.351    23579639.821
 04  5 23 18 29 30.0000000  0  9G22G21G18G 3G 6G29G26G15G16
  21408043.588   -15896142.79243 -12157865.06942  21408044.650    21408038.694
  20432676.048    -9450674.41344  -7354993.94342  20432677.785    20432672.289
  20332664.808   -20596155.54543 -16042936.19642  20332666.615    20332661.329
  23266447.988    -5937863.73943  -4589841.33542  23266449.996    23266447.114
  22862607.947    15251770.96543  11885558.20742  22862609.323    22862607.838
  23889090.628     -124888.01043   -137863.86742  23889092.961    23889090.316
  22496334.241    -8461082.19343  -6589545.82242  22496336.586    22496332.963
  21545528.305   -16140548.41743 -12540197.09942  21545529.448    21545526.526
  23587812.092    -2866572.61843  -2226558.94542  23587813.784    23587811.101
 04  5 23 18 30  0.0000000  0  9G22G21G18G 3G 6G29G26G15G16
  21397059.874   -15953862.40343 -12202841.33842  21397060.903    21397054.967
  20434456.908    -9441315.98944  -7347701.66442  20434458.628    20434453.092
  20332147.665   -20598873.01043 -16045053.70542  20332149.457    20332144.155
  23250193.183    -6023283.23843  -4656401.92742  23250195.071    23250192.295
  22881705.641    15352126.67543  11963757.34942  22881707.014    22881705.037
  23903700.955      -48110.28653    -78037.12852  23903703.381    23903700.411
  22508435.284    -8397491.03443  -6539994.28842  22508437.620    22508433.997
  21533248.822   -16205076.31343 -12590478.57742  21533250.067    21533247.204
  23596063.391    -2823211.11643  -2192770.80342  23596065.216    23596062.447
 04  5 23 18 30 30.0000000  0  8G22G21G18G 3G 6G26G15G16
  21386145.745   -16011216.36143 -12247532.70242  21386146.744    21386140.868
  20436293.471    -9431664.92844  -7340181.36442  20436295.169    20436289.601
  20331709.861   -20601173.61543 -16046846.38342  20331711.658    20331706.377
  23233997.495    -6108391.85143  -4722720.26242  23233999.400    23233996.646
  22900848.390    15452722.28943  12042143.47242  22900850.019    22900847.471
  22520644.333    -8333331.37043  -6489999.76342  22520646.681    22520643.175
  21520999.836   -16269444.73243 -12640635.75542  21521001.008    21520998.163
  23604394.996    -2779429.84743  -2158655.60842  23604396.723    23604393.887
 04  5 23 18 31  0.0000000  0  8G22G21G18G 3G 6G26G15G16
  21375299.833   -16068212.15643 -12291944.97442  21375300.810    21375294.934
  20438184.343    -9421728.41644  -7332438.64742  20438185.986    20438180.454
  20331349.704   -20603066.12043 -16048321.07542  20331351.496    20331346.251
  23217859.985    -6193194.73143  -4788800.38842  23217861.906    23217859.206
  22920035.185    15553547.54143  12120708.53342  22920036.975    22920033.480
  22532959.674    -8268613.63943  -6439570.40442  22532962.031    22532958.733
  21508780.063   -16333660.55543 -12690674.04142  21508781.227    21508778.290
  23612804.346    -2735239.20243  -2124221.40642  23612806.105    23612802.956
 04  5 23 18 31 30.0000000  0  8G22G21G18G 3G 6G26G15G16
  21364524.097   -16124838.98843 -12336069.74242  21364525.076    21364519.111
  20440131.708    -9411495.01244  -7324464.57542  20440133.318    20440127.831
  20331069.166   -20604540.39343 -16049469.86342  20331070.948    20331065.645
  23201783.060    -6277678.54943  -4854631.88942  23201785.109    23201782.372
  22939266.644    15654611.03343  12199459.20142  22939268.776    22939265.716
  22545382.750    -8203329.47243  -6388699.60642  22545385.149    22545382.059
  21496591.608   -16397712.08543 -12740584.30542  21496592.831    21496589.641
  23621292.965    -2690630.53643  -2089461.46942  23621294.859    23621291.716
 04  5 23 18 32  0.0000000  0  8G22G21G18G 3G 6G26G15G16
  21353815.848   -16181110.45843 -12379917.60742  21353816.889    21353810.910
  20442132.923    -9400978.35644  -7316269.79742  20442134.539    20442129.103
  20330865.322   -20605611.75843 -16050304.69442  20330867.087    20330861.740
  23185764.944    -6361854.84943  -4920223.74242  23185767.013    23185764.236
  22958541.061    15755896.69643  12278383.02842  22958543.072    22958539.930
  22557910.613    -8137495.29143  -6337400.29142  22557913.063    22557909.816
  21484431.578   -16461612.33543 -12790376.68542  21484432.971    21484429.877
  23629858.228    -2645620.19243  -2054388.54142  23629860.019    23629857.174
 04  5 23 18 32 30.0000000  0  8G22G21G18G 3G 6G26G15G16
  21343178.125   -16237012.33843 -12423477.49242  21343179.124    21343172.981
  20444190.864    -9390163.90344  -7307842.96842  20444192.462    20444187.070
  20330740.728   -20606266.72543 -16050815.05242  20330742.485    20330737.093
  23169808.435    -6445707.24343  -4985563.26342  23169810.386    23169807.757
  22977859.424    15857416.35243  12357489.13942  22977861.625    22977858.631
  22570545.326    -8071099.23343  -6285663.15442  22570547.719    22570544.640
  21472303.313   -16525346.27343 -12840039.47142  21472304.732    21472301.711
  23638502.069    -2600196.61843  -2018993.62042  23638503.799    23638500.920
 04  5 23 18 33  0.0000000  0  8G22G21G18G 3G 6G26G15G16
  21332609.024   -16292553.59243 -12466756.36742  21332609.995    21332603.783
  20446303.814    -9379060.72144  -7299191.14742  20446305.390    20446300.024
  20330693.255   -20606516.20043 -16051009.46342  20330695.023    20330689.655
  23153912.018    -6529243.13543  -5050656.11942  23153913.960    23153911.624
  22997220.768    15959158.03543  12436768.26542  22997222.477    22997219.488
  22583284.669    -8004153.52443  -6233497.70342  22583287.016    22583284.143
  21460205.159   -16588922.70143 -12889579.52042  21460206.605    21460203.601
  23647222.249    -2554371.73743  -1983286.00242  23647224.106    23647221.252
 04  5 23 18 33 30.0000000  0  8G22G21G18G 3G 6G26G15G16
  21322109.170   -16347730.20043 -12509751.11142  21322110.150    21322103.958
  20448472.508    -9367664.16144  -7290310.72242  20448474.098    20448468.771
  20330723.533   -20606357.07243 -16050885.46742  20330725.318    20330719.955
  23138076.924    -6612455.96843  -5115497.24042  23138078.791    23138076.831
  23016624.131    16061123.37943  12516221.70542  23016626.123    23016623.158
  22596128.958    -7936656.68343  -6180902.77442  22596131.311    22596128.447
  21448137.867   -16652336.62043 -12938992.92942  21448139.345    21448136.342
  23656019.325    -2508144.04343  -1947264.50842  23656021.135    23656017.999
 04  5 23 18 34  0.0000000  0  8G22G21G18G 3G 6G26G15G16
  21311680.344   -16402534.72543 -12552455.89642  21311681.263    21311675.056
  20450698.464    -9355966.66244  -7281195.79442  20450700.084    20450694.717
  20330832.768   -20605782.97143 -16050438.11342  20330834.572    20330829.181
  23122305.278    -6695336.19243  -5180079.18242  23122307.119    23122305.317
  23036068.505    17738737.58553  13823453.41552  23036073.444    23036071.636
  22609078.894    -7868604.05843  -6127874.78942  22609081.183    22609078.604
  21436102.956   -16715579.93543 -12988273.41942  21436104.451    21436101.539
  23664893.624    -2461508.93143  -1910925.50642  23664895.428    23664892.525
 04  5 23 18 34 30.0000000  0  8G22G21G18G 3G 6G26G15G16
  21301318.559   -16456985.46743 -12594885.01242  21301319.523    21301313.424
  20452978.183    -9343986.41644  -7271860.54542  20452979.809    20452974.489
  20331017.257   -20604813.63443 -16049682.79442  20331019.034    20331013.638
  23106593.802    -6777900.20543  -5244414.71342  23106595.700    23106593.997
  23055556.974    17841139.45843  13903246.96042  23055559.592    23055556.833
  22622130.704    -7800016.95643  -6074430.33142  22622133.074    22622130.352
  21424097.223   -16778670.45343 -13037434.83342  21424098.731    21424095.784
  23673841.403    -2414487.33143  -1874285.39242  23673843.150    23673840.464
 04  5 23 18 35  0.0000000  0  8G22G21G18G 3G 6G26G15G16
  21291027.049   -16511067.48743 -12637026.80842  21291028.054    21291021.885
  20455314.709    -9331707.51644  -7262292.57642  20455316.318    20455311.031
  20331279.552   -20603434.98943 -16048608.53742  20331281.327    20331275.957
  23090945.937    -6860130.28143  -5308490.04642  23090947.738    23090946.066
  23075085.550    17943761.93443  13983212.41542  23075087.973    23075085.504
  22635286.385    -7730882.77243  -6020559.57642  22635288.877    22635286.142
  21412123.646   -16841592.08743 -13086464.66342  21412125.141    21412122.202
  23682865.385    -2367066.82543  -1837334.40842  23682866.991    23682864.296
 04  5 23 18 35 30.0000000  0  8G22G21G18G 3G 6G26G15G16
  21280804.865   -16564784.99043 -12678884.59642  21280805.872    21280799.880
  20457707.337    -9319134.62144  -7252495.53342  20457708.893    20457703.499
  20331618.678   -20601652.80543 -16047219.82142  20331620.455    20331615.058
  23075361.249    -6942028.64043  -5372306.95742  23075363.059    23075361.206
  23094654.604    18046597.99953  14063344.32452  23094657.049    23094655.020
  22648544.937    -7661208.69843  -5966268.12542  22648547.444    22648544.571
  21400181.420   -16904348.71543 -13135365.91442  21400182.960    21400179.976
  23691963.989    -2319254.42643  -1800078.09142  23691965.567    23691962.575
 04  5 23 18 36  0.0000000  0  8G22G21G18G 3G 6G26G15G16
  21270652.275   -16618137.10143 -12720457.65542  21270653.212    21270647.330
  20460156.126    -9306266.27944  -7242468.25442  20460157.715    20460152.227
  20332034.673   -20599467.14243 -16045516.71242  20332036.432    20332030.998
  23059839.969    -7023592.16943  -5435862.92642  23059841.956    23059840.177
  23114264.769    18149646.14443  14143641.43042  23114267.178    23114264.641
  22661906.241    -7590996.55743  -5911557.39842  22661908.776    22661905.603
  21388270.899   -16966938.63743 -13184137.24242  21388272.446    21388269.378
  23701135.923    -2271051.82943  -1762517.65742  23701137.994    23701135.118
 04  5 23 18 36 30.0000000  0  8G22G21G18G 3G 6G26G15G16
  21260569.483   -16671123.08043 -12761745.39842  21260570.364    21260564.393
  20462661.270    -9293101.49044  -7232209.98642  20462662.900    20462657.377
  20332527.240   -20596878.70943 -16043499.76142  20332528.982    20332523.605
  23044383.262    -7104818.20543  -5499155.88142  23044385.098    23044383.421
  23133914.153    18252904.43843  14224102.29242  23133916.626    23133914.139
  22675369.572    -7520248.67143  -5856429.19842  22675372.071    22675368.455
  21376392.365   -17029360.24443 -13232777.45042  21376393.909    21376390.778
  23710382.194    -2222461.30543  -1724654.98542  23710384.142    23710381.312
 04  5 23 18 37  0.0000000  0  8G22G21G18G 3G 6G26G15G16
  21250555.790   -16723745.77143 -12802750.06342  21250556.670    21250550.568
  20465222.483    -9279642.31844  -7221722.34742  20465224.105    20465218.597
  20333095.603   -20593891.63643 -16041172.17242  20333097.385    20333092.095
  23028990.595    -7185707.17243  -5562186.22542  23028992.436    23028990.633
  23153602.886    18356367.94953  14304723.17452  23153605.124    23153602.812
  22688933.504    -7448970.18443  -5800887.56342  22688935.940    22688932.352
  21364545.565   -17091615.68743 -13281288.16642  21364547.082    21364543.881
  23719701.687    -2173488.04043  -1686494.05542  23719703.654    23719700.584
 04  5 23 18 37 30.0000000  0  8G22G21G18G 3G 6G26G15G16
  21240612.283   -16775999.12843 -12843466.94642  21240613.174    21240607.146
  20467840.837    -9265882.92344  -7211000.74542  20467842.472    20467836.925
  20333740.827   -20590501.12543 -16038530.21442  20333742.641    20333737.306
  23013663.659    -7266251.07243  -5624947.65442  23013665.553    23013663.516
  23173331.404    18460040.13143  14385506.52842  23173333.359    23173331.255
  22702598.681    -7377158.47443  -5744930.41242  22702601.301    22702597.607
  21352731.675   -17153698.18043 -13329664.11242  21352733.217    21352730.031
  23729094.832    -2124129.16943  -1648032.69542  23729096.568    23729092.770
 04  5 23 18 38  0.0000000  0  8G22G21G18G 3G 6G26G15G16
  21230738.207   -16827887.97044 -12883899.78642  21230739.124    21230733.145
  20470515.504    -9251827.62444  -7200048.58542  20470517.119    20470511.622
  20334461.709   -20586713.01343 -16035578.43942  20334463.543    20334458.162
  22998401.685    -7346452.26643  -5687442.00842  22998403.640    22998401.546
  23193097.952    18563913.29753  14466446.52152  23193100.490    23193098.032
  22716364.235    -7304820.62243  -5688563.30042  22716366.775    22716363.206
  21340949.982   -17215611.67443 -13377908.37942  21340951.515    21340948.329
  23738559.547    -2074391.89943  -1609276.37942  23738561.257    23738557.911
 04  5 23 18 38 30.0000000  0  8G22G21G18G 3G 6G26G15G16
  21220934.760   -16879405.43544 -12924043.24742  21220935.692    21220929.708
  20473247.818    -9237469.20444  -7188860.21142  20473249.440    20473243.972
  20335259.224   -20582521.78943 -16032312.55542  20335261.093    20335255.722
  22983206.665    -7426301.96443  -5749662.50242  22983208.707    22983206.657
  23212903.522    18667992.45943  14547547.06042  23212906.340    23212903.930
  22730230.462    -7231952.85243  -5631783.23442  22730232.887    22730229.588
  21329201.872   -17277348.43343 -13426014.92242  21329203.378    21329200.279
  23748096.938    -2024272.16543  -1570222.10442  23748098.806    23748095.477
 04  5 23 18 39  0.0000000  0  8G22G21G18G 3G 6G26G15G16
  21211200.124   -16930561.26043 -12963904.90642  21211201.017    21211195.032
  20476036.057    -9222817.04944  -7177442.96442  20476037.650    20476032.216
  20336131.440   -20577938.33843 -16028741.03642  20336133.296    20336127.927
  22968077.333    -7505807.25543  -5811614.61142  22968079.303    22968077.167
  23232746.120    18772265.09843  14628798.28842  23232748.746    23232746.317
  22744194.724    -7158567.64943  -5574600.00042  22744197.302    22744194.360
  21317485.664   -17338917.48543 -13473990.77542  21317487.117    21317484.056
  23757704.802    -1973782.47743  -1530879.51242  23757706.787    23757703.488
 04  5 23 18 39 30.0000000  0  8G22G21G18G 3G 6G26G15G16
  21201536.092   -16981345.25044 -13003476.82542  21201537.022    21201531.094
  20478882.096    -9207860.73244  -7165788.69242  20478883.698    20478878.338
  20337079.996   -20572953.67443 -16024856.88442  20337081.847    20337076.477
  22953015.684    -7584955.64843  -5873288.64242  22953017.628    22953015.412
  23252626.419    18876738.92543  14710206.32942  23252628.796    23252626.763
  22758258.967    -7084657.74543  -5517007.90042  22758261.454    22758258.844
  21305803.433   -17400307.67043 -13521827.25942  21305804.916    21305801.814
  23767384.738    -1922915.51343  -1491243.02842  23767386.727    23767383.404
 04  5 23 18 40  0.0000000  0  8G22G21G18G 3G 6G26G15G16
  21191940.938   -17031768.64044 -13042767.74442  21191941.807    21191935.813
  20481784.069    -9192610.81244  -7153905.64642  20481785.636    20481780.314
  20338102.420   -20567580.44643 -16020669.96542  20338104.272    20338098.974
  22938020.530    -7663756.39843  -5934691.79542  22938022.289    22938019.715
  23272543.009    18981400.27843  14791760.44842  23272545.137    23272543.054
  22772421.119    -7010237.17743  -5459017.88542  22772423.527    22772420.133
  21294153.418   -17461529.21943 -13569532.33842  21294154.868    21294151.723
  23777133.801    -1871684.85943  -1451323.12942  23777135.898    23777132.519
 04  5 23 18 40 30.0000000  0  8G22G21G18G 3G 6G26G15G16
  21182415.473   -17081825.10844 -13081772.77242  21182416.347    21182410.324
  20484743.198    -9177060.52044  -7141788.55042  20484744.754    20484739.436
  20339199.826   -20561813.38243 -16016176.14742  20339201.683    20339196.371
  22923092.995    -7742200.81743  -5995817.28942  22923094.821    22923092.109
  23292496.239    19086253.30243  14873463.96242  23292498.342    23292495.844
  22786681.179    -6935302.39743  -5400627.21742  22786683.526    22786679.568
  21282536.821   -17522574.95043 -13617100.45042  21282538.266    21282535.140
  23786952.844    -1820087.22243  -1411117.27742  23786954.707    23786951.382
 04  5 23 18 41  0.0000000  0  8G22G21G18G 3G 6G26G15G16
  21172960.527   -17131510.65444 -13120488.76142  21172961.408    21172955.448
  20487760.304    -9161205.53444  -7129434.02442  20487761.870    20487756.527
  20340372.841   -20555649.48143 -16011373.10742  20340374.630    20340369.396
  22908234.770    -7820282.43543  -6056660.08442  22908236.531    22908233.657
  23312486.079    19191299.71843  14955318.19442  23312488.389    23312485.246
  22801038.863    -6859851.96443  -5341834.88042  22801041.211    22801036.937
  21270954.460   -17583439.74143 -13664527.55642  21270955.853    21270952.980
  23796842.055    -1768120.91743  -1370624.14142  23796843.990    23796840.316
 04  5 23 18 41 30.0000000  0  8G22G21G18G 3G 6G26G15G16
  21163574.633   -17180834.12344 -13158922.61042  21163575.477    21163569.534
  20490833.701    -9145054.39544  -7116848.73542  20490835.332    20490829.968
  20341619.332   -20549098.80543 -16006268.68742  20341621.126    20341615.987
  22893444.347    -7898007.98743  -6117225.37342  22893446.085    22893443.047
  23332510.714    19296527.83143  15037314.02342  23332512.997    23332509.130
  22815492.569    -6783897.88643  -5282649.97142  22815494.750    22815491.034
  21259405.254   -17644131.72043 -13711819.99242  21259406.588    21259403.684
  23806798.828    -1715797.78043  -1329852.92942  23806800.538    23806797.216
 04  5 23 18 42  0.0000000  0  8G22G21G18G 3G 6G26G15G16
  21154259.328   -17229785.98044 -13197066.88642  21154260.255    21154254.238
  20493965.448    -9128597.28344  -7104025.01942  20493967.045    20493961.646
  20342941.062   -20542153.00243 -16000856.38442  20342942.852    20342937.758
  22878723.591    -7975365.81443  -6177504.17542  22878725.416    22878722.241
  23352570.317    19401944.94743  15119457.10142  23352572.706    23352569.937
  22830041.767    -1981173.41853  -1540267.32452  22830043.941    22830042.917
  21247890.894   -17704640.24243 -13758969.45942  21247892.212    21247889.157
  23816824.668    -1663110.87243  -1288798.26542  23816826.427    23816823.481
 04  5 23 18 42 30.0000000  0  8G22G21G18G 3G 6G26G15G16
  21145014.480   -17278367.82644 -13234922.84842  21145015.392    21145009.386
  20497155.185    -9111835.15244  -7090963.62342  20497156.789    20497151.355
  20344337.566   -20534814.72143 -15995138.23242  20344339.329    20344334.155
  22864073.134    -8052354.92743  -6237495.67342  22864074.858    22864071.554
  23372665.845    19507547.30453  15201744.47352  23372668.290    23372665.392
  22844688.840    -1904202.76353  -1480290.26852  22844691.220    22844690.447
  21236411.308   -17764965.85443 -13805976.42442  21236412.651    21236409.481
  23826919.105    -1610064.41843  -1247463.44142  23826920.805    23826918.041
 04  5 23 18 43  0.0000000  0  8G22G21G18G 3G 6G26G15G16
  21135839.535   -17326582.41444 -13272492.63242  21135840.426    21135834.257
  20500402.633    -9094769.92344  -7077666.04842  20500404.274    20500398.729
  20345807.865   -20527088.21643 -15989117.58542  20345809.626    20345804.492
  22849492.557    -8128975.87643  -6297200.27642  22849494.391    22849491.058
  23392796.184    19613329.67843  15284172.13542  23392798.375    23392795.635
  22859431.116    -1826731.65053  -1419923.12852  22859433.225    22859432.644
  21224966.183   -17825110.56543 -13852842.38942  21224967.500    21224964.326
  23837080.362    -1556663.96643  -1205852.76942  23837082.350    23837080.035
 04  5 23 18 43 30.0000000  0  8G22G21G18G 3G 6G26G15G16
  21126733.503   -17374434.81644 -13309780.18042  21126734.388    21126728.165
  20503706.704    -9077406.98644  -7064136.48942  20503708.390    20503702.816
  20347350.853   -20518979.77143 -15982799.32542  20347352.621    20347347.489
  22834981.455    -8205231.77143  -6356620.38042  22834983.292    22834980.164
  23412959.094    19719284.35843  15366734.05742  23412961.610    23412958.336
  22874267.632    -1748768.16543  -1359172.43742  22874269.685    22874268.272
  21213554.553   -17885078.55743 -13899570.67842  21213555.913    21213552.760
  23847308.197    -1502917.57143  -1163972.57242  23847310.021    23847307.555
 04  5 23 18 44  0.0000000  0  8G22G21G18G 3G 6G26G15G16
  21117697.981   -17421916.23644 -13346778.66642  21117698.850    21117692.804
  20507069.256    -9059736.56744  -7050367.34342  20507070.962    20507065.442
  20348968.075   -20510481.44643 -15976177.25942  20348969.812    20348964.682
  22820542.010    -8281111.15443  -6415747.13342  22820543.800    22820540.991
  23433155.789    19825418.03343  15449435.48542  23433158.657    23433155.384
  22889198.403    -1670306.10853  -1298033.14252  22889200.872    22889199.370
  21202178.578   -17944859.65643 -13946153.33842  21202179.875    21202176.734
  23857603.105    -1448819.02943  -1121817.92542  23857604.786    23857602.261
 04  5 23 18 44 30.0000000  0  8G22G21G18G 3G 6G26G15G16
  21108732.519   -17469030.05044 -13383490.71042  21108733.356    21108727.355
  20510489.749    -9041761.68644  -7036360.96042  20510491.420    20510485.966
  20350658.553   -20501597.79443 -15969254.93842  20350660.330    20350655.176
  22806174.130    -8356614.85243  -6474581.15142  22806175.934    22806173.278
  23453385.441    19931725.02243  15532271.97442  23453388.394    23453385.005
  22904222.887    -1591351.72243  -1236510.25242  22904225.401    22904223.829
  21190837.774   -18004456.27243 -13992592.21242  21190839.129    21190835.776
  23867963.753    -1394374.09143  -1079393.43442  23867965.510    23867962.858
 04  5 23 18 45  0.0000000  0  7G22G21G18G 3G26G15G16
  21099838.883   -17515766.06744 -13419908.36642  21099839.772    21099833.784
  20513970.208    -9023471.61244  -7022108.95342  20513971.863    20513966.449
  20352423.966   -20492320.39743 -15962025.80042  20352425.737    20352420.593
  22791880.039    -8431731.00843  -6533113.18242  22791881.804    22791879.250
  22919342.633    -1511897.92843  -1174598.27342  22919344.876    22919343.253
  21179534.094   -18063857.31443 -14038878.73642  21179535.510    21179532.080
  23878390.916    -1339575.75343  -1036693.47042  23878392.912    23878390.548
 04  5 23 18 45 30.0000000  0  7G22G21G18G 3G26G15G16
  21091012.219   -17562151.16544 -13456052.57442  21091013.052    21091006.849
  20517505.667    -9004892.73144  -7007631.91942  20517507.292    20517501.920
  20354259.146   -20482676.54643 -15954511.11842  20354260.913    20354255.757
  22777654.994    -8506483.66643  -6591361.94942  22777656.840    22777654.381
  22934551.966    -1431973.95143  -1112319.87142  22934554.057    22934552.081
  21168262.743   -18123088.30443 -14085032.72642  21168264.226    21168260.920
  23888880.759    -1284453.37343   -993741.07642  23888882.509    23888879.992
 04  5 23 18 46  0.0000000  0  8G22G21G18G 3G 6G26G15G16
  21082255.625   -17608166.98544 -13491909.03242  21082256.495    21082250.336
  20521099.652    -8986006.39144  -6992915.30842  20521101.262    20521095.912
  20356167.306   -20472649.55043 -15946697.88042  20356169.048    20356163.816
  22763503.071    -8580852.23243  -6649311.45442  22763504.905    22763502.546
  23514269.018
  22949853.563    -1351564.62543  -1049663.31542  22949855.777    22949853.726
  21157027.578   -18182129.87643 -14131039.15342  21157029.005    21157025.705
  23899434.886    -1228991.20343   -950523.94142  23899436.678    23899434.043
 04  5 23 18 46 30.0000000  0  8G22G21G18G 3G 6G26G15G16
  21073569.270   -17653813.93244 -13527478.04642  21073570.145    21073563.966
  20524752.127    -8966812.49444  -6977959.03442  20524753.758    20524748.432
  20358148.070   -20462240.59543 -15938587.01142  20358149.834    20358144.544
  22749424.455    -8654834.80943  -6706960.17742  22749426.272    22749424.104
  23534625.144     -142550.16053   -149007.28552  23534624.906    23534622.411
  22965246.820    -1270673.14643   -986631.06642  22965249.109    22965247.106
  21145828.433   -18240981.34943 -14176897.41142  21145829.964    21145826.537
  23910053.190    -1173192.38943   -907044.38342  23910054.949    23910052.396
 04  5 23 18 47  0.0000000  0  8G22G21G18G 3G 6G26G15G16
  21064954.125   -17699087.30044 -13562755.97242  21064954.970    21064948.772
  20528464.136    -8947305.93644  -6962759.14042  20528465.790    20528460.465
  20360202.181   -20451446.28243 -15930175.86642  20360203.922    20360198.606
  22735420.585    -8728424.72843  -6764302.92442  22735422.468    22735420.248
  23555011.892      -35410.02043    -65521.64842  23555013.045    23555011.160
  22980732.197    -1189297.71753   -923221.71252  22980734.149    22980732.539
  21134666.760   -18299636.77543 -14222602.92342  21134668.259    21134664.756
  23920735.410    -1117055.11843   -863301.14342  23920737.246    23920735.309
 04  5 23 18 47 30.0000000  0  8G22G21G18G 3G 6G26G15G16
  21056408.458   -17743994.88544 -13597748.87442  21056409.327    21056403.023
  20532234.387    -8927493.63244  -6947321.00042  20532236.014    20532230.678
  20362327.904   -20440275.49643 -15921471.36542  20362329.643    20362324.286
  22721490.594    -8801626.87843  -6821343.52942  22721492.438    22721490.314
  23575429.889       71887.53643     18086.70142  23575431.896    23575429.150
  22996307.621    -1107448.80853   -859443.41352  22996309.380    22996308.045
  21123541.010   -18358102.69243 -14268160.77842  21123542.496    21123539.108
  23931480.560    -1060589.70743   -819302.23742  23931482.242    23931480.438
 04  5 23 18 48  0.0000000  0  7G22G21G18G 3G 6G15G16
  21047931.131   -17788543.71644 -13632462.21842  21047932.002    21047925.671
  20536061.555    -8907381.93244  -6931649.56342  20536063.209    20536057.854
  20364523.756   -20428736.48843 -15912479.92542  20364525.474    20364520.105
  22707633.394    -8874446.29943  -6878085.89542  22707635.258    22707633.227
  23595876.832      179333.28643    101810.45742  23595878.624    23595875.552
  21112450.227   -18416385.35843 -14313575.82442  21112451.680    21112448.322
  23942286.222    -1003806.02443   -775055.31242  23942287.893    23942286.172
 04  5 23 18 48 30.0000000  0  7G22G21G18G 3G 6G15G16
  21039525.691   -17832714.57044 -13666881.03242  21039526.627    21039520.257
  20539949.323    -8886951.46044  -6915729.73042  20539951.003    20539945.648
  20366793.011   -20416811.22243 -15903187.51942  20366794.758    20366789.418
  22693853.054    -8946861.46143  -6934513.25542  22693854.847    22693853.236
  23616354.431      286943.81543    185662.64442  23616356.433    23616353.751
  21101398.210   -18474464.26843 -14358832.11242  21101399.596    21101396.322
  23953155.661     -946687.67643   -730547.59342  23953157.341    23953155.070
 04  5 23 18 49  0.0000000  0  7G22G21G18G 3G 6G15G16
  21031189.025   -17876523.09144 -13701017.52842  21031190.038    21031183.719
  20543894.899    -8866217.20544  -6899573.18342  20543896.568    20543891.284
  20369132.566   -20404516.55243 -15893607.26442  20369134.342    20369129.036
  22680147.375    -9018885.65943  -6990635.96642  22680149.017    22680147.373
  23636860.192      394701.63953    269629.67252  23636862.065    23636859.460
  21090381.987   -18532353.88243 -14403940.88742  21090383.410    21090380.329
  23964085.525     -889252.74743   -685793.17742  23964086.833    23964084.504
 04  5 23 18 49 30.0000000  0  7G22G21G18G 3G 6G15G16
  21022923.184   -17919960.57244 -13734864.89442  21022924.146    21022917.783
  20547900.056    -8845169.93444  -6883172.72342  20547901.703    20547896.451
  20371544.026   -20391844.50443 -15883732.94542  20371545.804    20371540.467
  22666518.288    -9090507.69043  -7046445.31942  22666520.017    22666517.968
  23657395.013      502612.75943    353716.05742  23657396.322    23657394.360
  21079403.866   -18590043.97843 -14448894.19042  21079405.226    21079402.168
  23975076.577     -831495.33143   -640787.48642  23975078.107    23975075.595
 04  5 23 18 50  0.0000000  0  7G22G21G18G 3G 6G15G16
  21014727.706   -17963028.18944 -13768424.04842  21014728.662    21014722.230
  20551964.709    -8823810.19944  -6866528.79242  20551966.332    20551961.059
  20374026.807   -20378797.62243 -15873566.53442  20374028.591    20374023.203
  22652965.950    -9161726.13943  -7101940.20042  22652967.844    22652965.360
  23677958.391      610673.93753    437919.35652  23677959.667    23677957.739
  21068463.780   -18647534.63743 -14493692.09842  21068465.057    21068462.059
  23986128.285     -773419.26743   -595533.51442  23986129.830    23986127.422
 04  5 23 18 50 30.0000000  0  7G22G21G18G 3G 6G15G16
  21006600.639   -18005735.96743 -13801702.80942  21006601.593    21006595.189
  20556087.047    -8802147.29444  -6849648.62742  20556088.671    20556083.352
  20376578.741   -20365386.90243 -15863116.62742  20376580.566    20376575.216
  22639488.900    -9232548.94243  -7157126.75642  22639490.816    22639488.115
  23698548.709      718872.90653    522229.94752  23698549.790    23698547.287
  21057560.054   -18704834.74843 -14538341.52542  21057561.241    21057558.273
  23997238.293     -715037.15743   -550041.07542  23997239.825    23997237.233
 04  5 23 18 51  0.0000000  0  7G22G21G18G 3G 6G15G16
  20998544.613   -18048070.27844 -13834690.57042  20998545.561    20998539.257
  20560269.703    -8780167.45144  -6832521.49442  20560271.328    20560265.959
  20379202.255   -20351599.61043 -15852373.29542  20379204.085    20379198.855
  22626090.144    -9302959.94943  -7211992.44342  22626092.008    22626089.297
  23719166.406      827221.26053    606657.02052  23719167.579    23719165.613
  21046695.218   -18761929.40143 -14582830.83942  21046696.441    21046693.437
  24008408.104     -656338.26143   -504301.75142  24008409.641    24008407.386
 04  5 23 18 51 30.0000000  0  7G22G21G18G 3G 6G15G16
  20990558.765   -18090036.52443 -13867391.53142  20990559.654    20990553.357
  20564511.824    -8757875.06544  -6815150.81042  20564513.411    20564508.031
  20381896.196   -20337442.80843 -15841342.02342  20381897.996    20381892.799
  22612769.162    -9372962.54943  -7266539.90342  22612770.979    22612768.142
  23739810.913      935711.20653    691194.61052  23739812.194    23739811.045
  21035868.817   -18818822.73743 -14627163.29242  21035870.036    21035866.900
  24019637.117     -597330.64743   -458321.87542  24019638.574    24019636.094
 04  5 23 18 52  0.0000000  0  7G22G21G18G 3G 6G15G16
  20982642.785   -18131635.01243 -13899805.92042  20982643.671    20982637.426
  20568813.423    -8735269.91544  -6797536.42742  20568814.999    20568809.621
  20384660.284   -20322917.89443 -15830023.90942  20384662.068    20384656.812
  22599526.087    -9442554.64843  -7320767.48542  22599527.945    22599525.160
  23760482.318     1044339.75753    775839.94752  23760483.628    23760482.900
  21025080.901   -18875513.87143 -14671338.18042  21025082.169    21025078.921
  24030924.114     -538017.37043   -412103.80842  24030925.682    24030923.604
 04  5 23 18 52 30.0000000  0  8G22G21G18G 3G 6G26G15G16
  20974795.791   -18172871.30444 -13931938.06942  20974796.693    20974790.410
  20573173.618    -8712356.95544  -6779682.18942  20573175.187    20573169.838
  20387493.151   -20308031.21743 -15818423.91042  20387494.925    20387489.648
  22586360.567    -9511739.20643  -7374677.49142  22586362.424    22586359.675
  23781178.898     1153099.82553    860587.89952  23781180.388    23781179.126
  23156913.752
  21014330.517   -18932006.83643 -14715358.65742  21014331.915    21014328.709
  24042267.621     -478406.43543   -365653.78742  24042269.335    24042267.155
 04  5 23 18 53  0.0000000  0  9G22G21G18G14G 3G 6G26G15G16
  20967018.930   -18213737.88343 -13963782.12442  20967019.918    20967013.753
  20577593.857    -8689128.22444  -6761581.89042  20577595.439    20577590.115
  20390396.001   -20292776.53043 -15806537.14742  20390397.792    20390392.534
  24449968.253     -744630.17853   -528755.44652  24449973.312    24449973.687
  22573274.715    -9580506.25843  -7428262.16842  22573276.476    22573273.522
  23801901.760     1261996.22553    945442.06252  23801903.034    23801901.155
  23173446.724     -322721.65753   -266951.00252  23173449.211    23173445.904
  21003619.671   -18988292.92444 -14759217.93942  21003621.026    21003617.669
  24053668.713     -418493.19343   -318968.20742  24053670.434    24053668.393
 04  5 23 18 53 30.0000000  0  9G22G21G18G14G 3G 6G26G15G16
  20959311.421   -18254240.51543 -13995342.60142  20959312.391    20959306.375
  20582073.227    -8665588.84444  -6743239.53742  20582074.812    20582069.504
  20393367.581   -20277160.58343 -15794368.88642  20393369.376    20393364.143
  24428153.942     -859274.38443   -618088.37642  24428156.925    24428155.410
  22560267.632    -9648859.50643  -7481524.40342  22560269.499    22560266.229
  23822648.746     1371021.42143   1030396.61242  23822650.624    23822648.048
  23190063.675     -235398.84843   -198907.33442  23190066.357    23190063.712
  20992947.292   -19044376.49843 -14802919.39442  20992948.702    20992945.380
  24065125.791     -358286.07843   -272053.68342  24065127.469    24065125.561
 04  5 23 18 54  0.0000000  0  9G22G21G18G14G 3G 6G26G15G16
  20951673.893   -18294375.82043 -14026616.85342  20951674.859    20951668.828
  20586612.446    -8641735.09544  -6724652.20942  20586614.054    20586608.697
  20396408.319   -20261181.33443 -15781917.53342  20396410.076    20396404.868
  24406344.001     -973885.97943   -707395.86242  24406347.148    24406345.199
  22547340.279    -9716793.30943  -7534459.78342  22547342.199    22547338.862
  23843420.449     1480175.94943   1115451.84742  23843422.738    23843419.824
  23206763.889     -147638.33643   -130522.59842  23206766.531    23206763.180
  20982314.242   -19100252.99843 -14846459.53642  20982315.624    20982312.501
  24076638.818     -297784.61443   -224909.74142  24076640.395    24076638.801
 04  5 23 18 54 30.0000000  0  9G22G21G18G14G 3G 6G26G15G16
  20944107.364   -18334138.44244 -14057600.67742  20944108.316    20944102.195
  20591212.860    -8617560.29044  -6705814.71942  20591214.423    20591209.039
  20399519.139   -20244834.06043 -15769179.39442  20399520.855    20399515.674
  24384541.733    -1088456.56743   -796671.38142  24384544.908    24384542.760
  22534494.119    -9784299.58843  -7587062.05542  22534496.037    22534492.700
  23864216.680     1589463.44753   1200610.75652  23864219.387    23864216.859
  23223547.462      -59437.24943    -61794.58242  23223550.197    23223546.752
  20971722.165   -19155915.21743 -14889832.67842  20971723.485    20971720.273
  24088208.480     -236985.80943   -177534.16042  24088210.216    24088208.616
 04  5 23 18 55  0.0000000  0  8G22G21G18G14G 3G26G15G16
  20936610.144   -18373535.98644 -14088300.05042  20936611.126    20936605.071
  20595872.864    -8593071.78844  -6686732.78942  20595874.486    20595869.062
  20402698.200   -20228127.77543 -15756161.51742  20402699.952    20402694.833
  24362745.556    -1202990.96253   -885918.75152  24362749.087    24362747.444
  22521728.429    -9851383.73543  -7639335.38542  22521730.350    22521727.204
  23240413.149       29193.81043      7268.48942  23240415.641    23240412.366
  20961169.526   -19211369.71543 -14933043.94142  20961170.921    20961167.507
  24099833.288     -175899.97043   -129934.83142  24099834.954    24099833.163
 04  5 23 18 55 30.0000000  0  8G22G21G18G14G 3G26G15G16
  20929181.930   -18412571.83344 -14118717.57642  20929182.887    20929176.778
  20600592.084    -8568272.42244  -6667408.62042  20600593.703    20600588.248
  20405944.740   -20211066.70543 -15742867.19342  20405946.540    20405941.463
  24340956.518    -1317489.78743   -975138.40242  24340960.019    24340958.916
  22509042.949    -9918046.76643  -7691280.57542  22509044.892    22509041.767
  23257359.787      118248.79543     76661.87842  23257362.095    23257358.967
  20950655.919   -19266618.49143 -14976094.91542  20950657.320    20950653.985
  24111510.977     -114533.19143    -82116.66642  24111512.850    24111511.082
 04  5 23 18 56  0.0000000  0  9G22G21G18G14G 3G 6G26G15G16
  20921823.279   -18451242.30344 -14148850.39442  20921824.188    20921817.971
  20605371.283    -8543157.98844  -6647838.95542  20605372.892    20605367.370
  20409259.388   -20193648.46643 -15729294.54742  20409261.164    20409256.073
  24319176.216    -1431946.58943  -1064325.29442  24319179.395    24319178.568
  22496438.695    -9984282.56643  -7742892.86742  22496440.679    22496437.701
  23926749.522     -498587.85753   -404460.23652  23926750.189    23926745.773
  23274386.934      207728.13043    146386.01142  23274389.021    23274386.255
  20940182.677   -19321656.40843 -15018981.59742  20940184.061    20940180.563
  24123242.234      -52884.44843    -34078.77542  24123244.300    24123242.079
 04  5 23 18 56 30.0000000  0  9G22G21G18G14G 3G 6G26G15G16
  20914533.977   -18489548.16544 -14178699.10142  20914534.893    20914528.468
  20610210.454    -8517728.22744  -6628023.56642  20610212.049    20610206.540
  20412641.650   -20175874.84643 -15715444.97642  20412643.454    20412638.309
  24297404.002    -1546359.27243  -1153477.85242  24297407.137    24297406.482
  22483916.029   -10050089.71843  -7794171.14442  22483918.060    22483915.089
  23947633.762     -388824.77743   -318930.76542  23947635.859    23947633.428
  23291494.436      297628.64643    216438.26742  23291496.167    23291493.955
  20929749.593   -19376482.82843 -15061703.46642  20929750.979    20929747.344
  24135026.595        9042.79143     14176.12742  24135028.595    24135026.234
 04  5 23 18 57  0.0000000  0  9G22G21G18G14G 3G 6G26G15G16
  20907315.172   -18527483.13744 -14208258.80442  20907316.092    20907309.617
  20615110.857    -8491976.28544  -6607957.13642  20615112.424    20615106.972
  20416092.526   -20157740.33543 -15701314.20742  20416094.335    20416089.211
  24275642.265    -1660718.69243  -1242588.92342  24275645.256    24275644.523
  22471476.435   -10115459.40543  -7845108.50442  22471478.650    22471475.659
  23968542.093     -278941.37943   -233307.48142  23968545.285    23968543.290
  23308682.418      387953.56943    286821.36042  23308684.324    23308682.357
  20919358.106   -19431089.99443 -15104254.47942  20919359.545    20919355.840
  24146864.668       71252.01243     62650.83042  24146866.652    24146864.264
 04  5 23 18 57 30.0000000  0  9G22G21G18G14G 3G 6G26G15G16
  20900164.842   -18565058.79944 -14237538.53542  20900165.702    20900159.189
  20620070.441    -8465913.42844  -6587648.43142  20620071.962    20620066.604
  20419609.667   -20139257.68643 -15686912.15142  20419611.434    20419606.336
  24253888.902    -1775033.63443  -1331665.29642  24253891.923    24253891.122
  22459118.493   -10180400.73043  -7895712.16842  22459120.634    22459117.602
  23989472.610     -168951.49243   -147601.26542  23989475.153    23989473.510
  23325949.015      478688.69643    357524.03742  23325950.753    23325948.950
  20909006.517   -19485488.09643 -15146642.60442  20909007.937    20909004.176
  24158753.621      133729.06843    111334.18342  24158755.859    24158753.001
 04  5 23 18 58  0.0000000  0  9G22G21G18G14G 3G 6G26G15G16
  20893084.859   -18602264.53544 -14266530.00442  20893085.692    20893079.167
  20625091.457    -8439528.06744  -6567088.41742  20625092.965    20625087.613
  20423194.824   -20120417.51743 -15672231.50342  20423196.588    20423191.501
  24232146.184    -1889290.47843  -1420696.40642  24232149.343    24232148.744
  22446844.413   -10244900.86143  -7945972.00142  22446846.527    22446843.452
  24010425.048      -58846.51443    -61805.44742  24010427.304    24010426.265
  23343295.004      569841.47543    428552.14942  23343297.011    23343294.676
  20898696.991   -19539664.88643 -15188858.26142  20898698.399    20898694.718
  24170694.610      196482.07243    160232.51742  24170696.950    24170694.919
 04  5 23 18 58 30.0000000  0  9G22G21G18G14G 3G 6G26G15G16
  20886073.508   -18639109.23544 -14295240.15842  20886074.347    20886067.900
  20630172.273    -8412828.15344  -6546283.30242  20630173.818    20630168.480
  20426846.164   -20101229.61243 -15657279.89742  20426847.955    20426842.815
  24210413.448    -2003495.14843  -1509686.89742  24210416.493    24210416.180
  22434653.192   -10308966.36343  -7995893.14242  22434655.245    22434652.127
  24031397.260       51362.50843     24071.45042  24031399.180    24031398.798
  23360718.031      661400.60943    499896.88242  23360720.246    23360718.076
  20888428.244   -19593627.69643 -15230907.19942  20888429.655    20888425.966
  24182685.927     3410339.36153   2664536.89252  24182687.331    24182687.733
 04  5 23 18 59  0.0000000  0  9G22G21G18G14G 3G 6G26G15G16
  20879131.517   -18675589.86444 -14323666.60342  20879132.376    20879125.849
  20635313.632    -8385810.28344  -6525230.42842  20635315.189    20635309.851
  20430564.036   -20081691.91543 -15642055.72842  20430565.832    20430560.722
  24188691.779    -2117641.97243  -1598632.33142  24188694.858    24188694.586
  22422545.867   -10372591.83743  -8045471.39642  22422547.879    22422544.627
  24052389.606      161676.34143    110030.06842  24052391.402    24052390.954
  23378218.961      753366.23843    571558.34842  23378221.092    23378218.444
  20878200.992   -19647372.27543 -15272786.05842  20878202.424    20878198.782
  24194728.657     3473621.44753   2713847.47552  24194730.862    24194729.946
 04  5 23 18 59 30.0000000  0  8G22G21G18G14G 3G 6G26G15
  20872259.505   -18711702.55944 -14351806.33742  20872260.378    20872253.837
  20640516.332    -8358470.01644  -6503926.34442  20640517.891    20640512.577
  20434349.090   -20061801.50843 -15626556.71942  20434350.904    20434345.735
  24166982.464    -2231724.35443  -1687527.51842  24166985.427    24166985.196
  22410523.310   -10435770.94443  -8094701.84242  22410525.331    22410522.037
  24073402.206      272096.92043    196071.84742  24073403.867    24073403.610
  23395797.387      845739.28643    643537.29242  23395799.636    23395796.001
  20868016.360   -19700893.01243 -15314490.51642  20868017.785    20868014.177
 04  5 23 19  0  0.0000000  0  8G22G21G18G14G 3G 6G26G15
  20865455.777   -18747455.89844 -14379666.07042  20865456.641    20865450.204
  20645778.898    -8330814.80644  -6482376.84842  20645780.467    20645775.222
  20438199.362   -20041568.25943 -15610790.57542  20438201.143    20438195.995
  24145284.555    -2345747.73143  -1776376.75742  24145287.306    24145286.842
  22398584.291   -10498509.78143  -8143589.21942  22398586.343    22398583.109
  24094433.080      382613.56843    282188.44642  24094434.628    24094434.639
  23413450.975      938508.54753    715824.99852  23413453.450    23413449.092
  20857872.891   -19754196.95343 -15356026.06042  20857874.264    20857870.699
 04  5 23 19  0 30.0000000  0  8G22G21G18G14G 3G 6G26G15
  20858721.511   -18782844.85544 -14407241.87942  20858722.334    20858715.945
  20651102.370    -8302839.43244  -6460577.87542  20651103.952    20651098.794
  20442115.652   -20020987.89243 -15594753.92942  20442117.462    20442112.294
  24123598.911    -2459704.12943  -1865173.75242  24123601.862    24123601.172
  22386730.611   -10560801.06843  -8192127.86742  22386732.670    22386729.294
  24115482.611      493229.15853    368382.16152  24115484.191    24115484.287
  23431180.482     1031676.01543    788422.95842  23431182.741    23431178.735
  20847772.022   -19807277.51043 -15397387.50642  20847773.316    20847769.784
 04  5 23 19  1  0.0000000  0  7G22G21G18G14G 3G 6G15
  20852055.774   -18817873.00444 -14434536.52242  20852056.670    20852050.260
  20656486.313    -8274546.51244  -6438531.46542  20656487.859    20656482.812
  20446097.079   -20000065.34743 -15578450.65442  20446098.848    20446093.719
  24101926.656    -2573594.24743  -1953919.13842  24101929.376    24101928.316
  22374961.728   -10622646.17443  -8240318.80842  22374963.754    22374960.480
  24136550.065      603937.89953    454648.44952  24136551.392    24136552.121
  20837713.286   -19860136.50243 -15438576.32342  20837714.548    20837711.012
 04  5 23 19  1 30.0000000  0  7G22G21G18G14G 3G 6G15
  20845459.916   -18852534.46744 -14461545.45042  20845460.784    20845454.351
  20661931.949    -8245929.40344  -6416232.43542  20661933.488    20661928.484
  20450144.552   -19978795.47343 -15561876.74142  20450146.323    20450141.247
  24080268.250    -2687408.98143  -2042605.76042  24080271.172    24080269.898
  22363279.586   -10684036.62943  -8288155.53042  22363281.439    22363278.143
  24157635.960      714743.94943    540990.54742  24157637.036    24157637.613
  20827698.138   -19912766.45643 -15479586.66242  20827699.393    20827695.878
 04  5 23 19  2  0.0000000  0  7G22G21G18G14G 3G 6G15
  20838933.313   -18886831.81444 -14488270.65442  20838934.200    20838927.802
  20667438.927    -8216990.22144  -6393682.44542  20667440.403    20667435.453
  20454257.451   -19957181.98243 -15545035.06842  20454259.225    20454254.198
  24058624.136    -2801148.38143  -2131233.71042  24058627.256    24058626.020
  22351683.772   -10744972.89243  -8335638.30742  22351685.641    22351682.426
  24178739.011      825642.38953    627404.67652  24178740.490    24178741.177
  20817726.280   -19965168.68843 -15520419.56442  20817727.545    20817724.038
 04  5 23 19  2 30.0000000  0  7G22G21G18G14G 3G 6G15
  20832475.968   -18920765.60944 -14514712.56342  20832476.864    20832470.447
  20673007.288    -8187728.47944  -6370881.09642  20673008.724    20673003.755
  20458435.545   -19935226.29143 -15527926.74842  20458437.302    20458432.286
  24036995.064    -2914810.04243  -2219801.06342  24036998.004    24036996.978
  22340174.774   -10805453.33543  -8382765.91042  22340176.582    22340173.501
  24199859.421      936630.60253    713888.82252  24199861.058    24199861.747
  20807797.945   -20017342.17843 -15561074.22242  20807799.236    20807795.665
 04  5 23 19  3  0.0000000  0  6G22G21G18G14G 3G15
  20826088.879   -18954329.51144 -14540866.23942  20826089.806    20826083.467
  20678638.341    -8158137.06344  -6347822.86942  20678639.808    20678634.780
  20462679.619   -19912923.22443 -15510547.74742  20462681.398    20462676.441
  24015382.367    -3028384.46643  -2308300.42742  24015385.333    24015384.291
  22328754.141   -10865468.80743  -8429531.18642  22328756.072    22328753.104
  20797914.728   -20069278.91344 -15601544.39142  20797916.104    20797912.417
 04  5 23 19  3 30.0000000  0  6G22G21G18G14G 3G15
  20819768.807   -18987542.06644 -14566746.14542  20819769.684    20819763.317
  20684328.646    -8128234.33444  -6324522.05442  20684330.130    20684325.070
  20466986.216   -19890291.97044 -15492913.00042  20466988.036    20466983.011
  23993783.480    -3141887.30143  -2396744.06542  23993786.248    23993785.291
  22317419.010   -10925035.68443  -8475946.91742  22317420.986    22317417.969
  20788073.280   -20120995.66043 -15641843.15142  20788074.682    20788071.028
 04  5 23 19  4  0.0000000  0  6G22G21G18G14G 3G15
  20813517.450   -19020393.01244 -14592344.26942  20813518.359    20813511.985
  20690080.326    -8098009.01444  -6300969.87042  20690081.864    20690076.722
  20471356.997   -19867323.50444 -15475015.49442  20471358.844    20471353.789
  23972200.798    -3255305.14043  -2485121.47042  23972203.408    23972202.310
  22306171.579   -10984141.47443  -8522003.36042  22306173.565    22306170.609
  20778276.011   -20172480.55643 -15681961.22542  20778277.495    20778273.787
 04  5 23 19  4 30.0000000  0  6G22G21G18G14G 3G15
  20807335.466   -19052879.44844 -14617658.36442  20807336.379    20807330.025
  20695894.155    -8067457.76644  -6277163.72242  20695895.663    20695890.451
  20475792.402   -19844015.83343 -15456853.69742  20475794.175    20475789.121
  23950635.373    -3368631.98743  -2573427.98742  23950638.069    23950636.762
  22295012.665   -11042780.89043  -8567696.38042  22295014.634    22295012.007
  20768523.791   -20223729.04843 -15721895.11542  20768525.249    20768521.518
 04  5 23 19  5  0.0000000  0  6G22G21G18G14G 3G15
  20801221.037   -19085011.13144 -14642696.03042  20801221.915    20801215.541
  20701768.281    -8036588.97344  -6253110.12842  20701769.855    20701764.570
  20480290.159   -19820379.67844 -15438435.91842  20480292.005    20480286.948
  23929085.853    -3481874.83043  -2661669.04942  23929088.674    23929087.265
  22283941.587   -11100961.27843  -8613031.72942  22283943.401    22283940.713
  20758814.929   -20274749.22443 -15761651.08542  20758816.374    20758812.738
 04  5 23 19  5 30.0000000  0  6G22G21G18G14G 3G15
  20795176.482   -19116775.36744 -14667447.35642  20795177.390    20795170.979
  20707705.425    -8005389.28744  -6228798.70242  20707706.946    20707701.712
  20484852.748   -19796403.12144 -15419752.89342  20484854.612    20484849.525
  23907555.441    -3595017.79943  -2749832.21242  23907558.180    23907556.896
  22272960.155   -11158667.69943  -8657997.76042  22272962.037    22272959.454
  20749152.218   -20325526.68744 -15801217.91442  20749153.685    20749150.148
 04  5 23 19  6  0.0000000  0  6G22G21G18G14G 3G15
  20789199.842   -19148182.25744 -14691920.25342  20789200.768    20789194.461
  20713703.662    -7973868.23444  -6204236.85542  20713705.191    20713700.015
  20489478.099   -19772097.27444 -15400813.26842  20489479.947    20489474.768
  23886042.003    -3708067.97843  -2837923.13742  23886044.919    23886043.644
  22262067.785   -11215907.88443  -8702600.48342  22262069.624    22262066.813
  20739534.195   -20376069.72444 -15840602.08442  20739535.623    20739532.151
 04  5 23 19  6 30.0000000  0  6G22G21G18G14G 3G15
  20783291.698   -19179229.95544 -14716113.26442  20783292.575    20783286.271
  20719763.623    -7942023.13744  -6179422.51142  20719765.112    20719759.958
  20494166.208   -19747461.34944 -15381616.46542  20494168.058    20494162.842
  23864547.689    -3821020.48843  -2925937.95842  23864550.539    23864549.163
  22251264.937   -11272677.40743  -8746836.43742  22251266.778    22251263.969
  20729961.444   -20426374.80644 -15879800.84842  20729962.886    20729959.472
 04  5 23 19  7  0.0000000  0  6G22G21G18G14G 3G15
  20777451.421   -19209920.97444 -14740028.33542  20777452.298    20777445.960
  20725884.832    -7909855.96044  -6154357.19642  20725886.370    20725881.215
  20498916.369   -19722498.94744 -15362165.25242  20498918.264    20498913.033
  23843071.951    -3933874.76843  -3013876.23442  23843074.668    23843073.532
  22240551.549   -11328976.69343  -8790705.99642  22240553.433    22240550.342
  20720433.783   -20476442.85143 -15918814.90942  20720435.261    20720431.799
 04  5 23 19  7 30.0000000  0  6G22G21G18G14G 3G15
  20771680.357   -19240248.00644 -14763659.76142  20771681.268    20771674.880
  20732068.909    -7877358.69144  -6129034.66942  20732070.462    20732065.269
  20503729.986   -19697203.48944 -15342454.52942  20503731.856    20503726.628
  23821616.957    -4046620.60643  -3101729.96742  23821619.506    23821618.633
  22229929.387   -11384796.24743  -8834201.73842  22229931.251    22229928.028
  20710952.988   -20526264.88944 -15957637.25742  20710954.456    20710950.917
 04  5 23 19  8  0.0000000  0  6G22G21G18G14G 3G15
  20765977.142   -19270218.31544 -14787013.23242  20765978.019    20765971.686
  20738314.590    -7844537.60244  -6103459.81242  20738316.148    20738310.920
  20508605.427   -19671583.17544 -15322490.65642  20508607.281    20508602.014
  23800182.020    -4159262.26743  -3189502.56342  23800184.506    23800183.349
  22219397.441   -11440141.02743  -8877327.48742  22219399.334    22219396.196
  20701517.985   -20575846.17144 -15996272.01342  20701519.451    20701515.853
 04  5 23 19  8 30.0000000  0  6G22G21G18G14G 3G15
  20760341.688   -19299832.67944 -14810089.36642  20760342.581    20760336.299
  20744621.849    -7811392.79244  -6077632.70542  20744623.433    20744618.154
  20513542.248   -19645639.70144 -15302274.96042  20513544.156    20513538.858
  23778767.415    -4271797.11443  -3277191.94642  23778769.987    23778768.362
  22208956.342   -11495009.34843  -8920081.99442  22208958.117    22208954.999
  20692128.891   -20625185.98444 -16034718.61842  20692130.367    20692126.821
 04  5 23 19  9  0.0000000  0  6G22G21G18G14G 3G15
  20754774.518   -19329088.99444 -14832886.49442  20754775.379    20754769.023
  20750991.298    -7777921.30244  -6051551.04942  20750992.858    20750987.582
  20518540.827   -19619371.71844 -15281806.41342  20518542.743    20518537.449
  23757374.277    -4384219.93843  -3364794.01742  23757376.815    23757374.801
  22198606.650   -11549396.68943  -8962461.72442  22198608.504    22198605.347
  20682786.627   -20674280.04744 -16072973.73642  20682788.100    20682784.487
 04  5 23 19  9 30.0000000  0  6G22G21G18G14G 3G15
  20749275.318   -19357987.40944 -14855404.72242  20749276.225    20749269.762
  20757422.981    -7744122.50944  -6025214.34642  20757424.548    20757419.325
  20523601.018   -19592780.34544 -15261085.89342  20523602.876    20523597.618
  23736002.855    -4496527.89943  -3452306.58242  23736005.297    23736003.229
  22188348.956   -11603300.94943  -9004465.02342  22188350.858    22188347.678
  20673491.381   -20723127.08844 -16111036.35442  20673492.841    20673489.222
 04  5 23 19 10  0.0000000  0  6G22G21G18G14G 3G15
  20743843.897   -19386530.19144 -14877645.85742  20743844.751    20743838.294
  20763916.614    -7709998.13144  -5998623.94342  20763918.191    20763912.999
  20528722.141   -19565868.92544 -15240115.97242  20528723.962    20528718.696
  23714653.166    -4608720.30743  -3539729.16742  23714655.682    23714653.573
  22178183.226   -11656722.39143  -9046092.09442  22178185.184    22178181.990
  20664243.033   -20771727.40744 -16148906.71942  20664244.514    20664240.879
 04  5 23 19 10 30.0000000  0  6G22G21G18G14G 3G15
  20738480.599   -19414714.39144 -14899607.56542  20738481.485    20738475.046
  20770472.998    -7675544.34244  -5971776.85942  20770474.534    20770469.345
  20533904.539   -19538635.46244 -15218895.10442  20533906.328    20533901.061
  23693326.846    -4720791.08343  -3627056.90042  23693329.445    23693327.297
  22168110.277   -11709656.02443  -9087339.05142  22168112.323    22168108.948
  20655042.517   -20820076.31044 -16186581.17942  20655044.015    20655040.447
 04  5 23 19 11  0.0000000  0  6G22G21G18G14G 3G15
  20733184.867   -19442543.47644 -14921292.54042  20733185.765    20733179.298
  20777091.532    -7640763.79944  -5944675.16142  20777093.046    20777087.877
  20539147.392   -19511084.10444 -15197426.53142  20539149.183    20539143.931
  23672023.233    -4832740.43443  -3714289.99642  23672026.120    23672023.860
  22158130.090   -11762102.50643  -9128206.41642  22158132.099    22158128.721
  20645889.624   -20868175.20044 -16224060.83842  20645891.056    20645887.552
 04  5 23 19 11 30.0000000  0  6G22G21G18G14G 3G15
  20727955.977   -19470021.59144 -14942704.06142  20727956.813    20727950.396
  20783771.630    -7605659.62244  -5917321.28442  20783773.146    20783768.035
  20544449.682   -19483219.97143 -15175714.23742  20544451.524    20544446.301
  23650742.949    -4944569.23843  -3801429.17542  23650745.949    23650743.459
  22148242.255   -11814063.81843  -9168695.72542  22148244.308    22148240.726
  20636783.816   -20916026.22844 -16261347.35142  20636785.230    20636781.779
 04  5 23 19 12  0.0000000  0  6G22G21G18G14G 3G15
  20722795.591   -19497139.43343 -14963834.82242  20722796.449    20722790.049
  20790515.227    -7570221.84144  -5889707.45442  20790516.712    20790511.673
  20549813.262   -19455034.29244 -15153751.37542  20549815.106    20549809.908
  23629487.749    -5056265.20043  -3888464.93542  23629491.063    23629488.352
  22138448.800   -11865528.30143  -9208797.89842  22138450.850    22138447.385
  20627727.252   -20963618.51044 -16298432.23342  20627728.665    20627725.189
 04  5 23 19 12 30.0000000  0  6G22G21G18G14G 3G15
  20717702.598   -19523903.20844 -14984689.71042  20717703.448    20717697.059
  20797321.253    -7534455.92744  -5861837.93142  20797322.720    20797317.763
  20555236.721   -19426534.16944 -15131543.51242  20555238.537    20555233.372
  23608257.251    -5167831.39543  -3975399.52342  23608260.488    23608257.987
  22128749.085   -11916500.05043  -9248516.12442  22128751.210    22128747.819
  20618719.209   -21010956.32244 -16335318.83842  20618720.594    20618717.111
 04  5 23 19 13  0.0000000  0  6G22G21G18G14G 3G15
  20712676.578   -19550315.14444 -15005270.41842  20712677.434    20712670.937
  20804189.430    -7498363.62444  -5833714.07942  20804190.903    20804185.981
  20560719.273   -19397723.20343 -15109093.42742  20560721.111    20560715.942
  23587051.910    -5279266.97943  -4062232.32542  23587054.912    23587052.299
  22119143.181   -11966979.26743  -9287850.57242  22119145.273    22119141.838
  20609759.459   -21058040.26244 -16372007.61942  20609760.836    20609757.349
 04  5 23 19 13 30.0000000  0  6G22G21G18G14G 3G15
  20707717.549   -19576374.62444 -15025576.49342  20707718.458    20707711.946
  20811120.062    -7461943.08244  -5805334.46142  20811121.555    20811116.563
  20566260.963   -19368601.41843 -15086401.15442  20566262.779    20566257.651
  23565871.936    -5390567.86443  -4148960.20942  23565874.888    23565871.878
  22109631.674   -12016962.70543  -9326798.70742  22109633.724    22109630.140
  20600848.495   -21104867.50844 -16408496.37042  20600849.876    20600846.433
 04  5 23 19 14  0.0000000  0  6G22G21G18G14G 3G15
  20702826.218   -19602078.70244 -15045605.64642  20702827.120    20702820.745
  20818113.913    -7425190.61444  -5776696.20442  20818115.397    20818110.343
  20571862.271   -19339166.65044 -15063464.98942  20571864.065    20571858.885
  23544718.703    -5501728.48143  -4235578.78142  23544721.557    23544718.787
  22100215.302   -12066445.57743  -9365356.79442  22100217.331    22100213.843
  20591987.391   -21151433.37244 -16444781.44142  20591988.712    20591985.277
 04  5 23 19 14 30.0000000  0  6G22G21G18G14G 3G15
  20698001.907   -19627430.49744 -15065360.26542  20698002.840    20697996.384
  20825170.304    -7388108.97744  -5747801.43442  20825171.811    20825166.753
  20577522.317   -19309422.93943 -15040288.08642  20577524.103    20577518.884
  23523592.325    -5612748.25943  -4322087.58342  23523595.139    23523592.494
  22090894.155   -12115428.45743  -9403525.25942  22090895.997    22090892.811
  20583175.608   -21197738.93043 -16480863.68542  20583177.009    20583173.619
 04  5 23 19 15  0.0000000  0  6G22G21G18G14G 3G15
  20693244.027   -19652433.28544 -15084842.94842  20693244.956    20693238.518
  20832288.921    -7350700.42644  -5718651.93442  20832290.423    20832285.353
  20583240.398   -19279374.28543 -15016873.56942  20583242.178    20583236.966
  23502492.718    -5723627.41543  -4408486.79142  23502495.533    23502492.745
  22081667.922   -12163912.63043  -9441305.12042  22081669.683    22081666.626
  20574413.307   -21243785.48144 -16516744.11142  20574414.676    20574411.191
 04  5 23 19 15 30.0000000  0  7G22G21G18G14G 3G 9G15
  20688552.666   -19677086.99044 -15104053.62842  20688553.589    20688547.136
  20839469.974    -7312963.78244  -5689246.77642  20839471.495    20839466.408
  20589016.399   -19249021.37043 -14993221.95442  20589018.160    20589012.996
  23481420.356    -5834362.70043  -4494773.92442  23481423.306    23481420.546
  22072537.103   -12211895.83743  -9478694.62142  22072538.829    22072535.911
  24422013.191
  20565700.581   -21289571.22544 -16552421.30442  20565701.954    20565698.457
 04  5 23 19 16  0.0000000  0  7G22G21G18G14G 3G 9G15
  20683926.590   -19701396.73544 -15122996.27542  20683927.562    20683921.141
  20846712.625    -7274903.45144  -5659589.39442  20846714.159    20846709.043
  20594849.102   -19218370.08944 -14969337.85842  20594850.917    20594845.837
  23460375.306    -5944956.01243  -4580950.45442  23460378.054    23460375.340
  22063500.811   -12259380.90143  -9515695.95142  22063502.587    22063499.904
  24408569.567
  20557036.843   -21335099.35344 -16587897.76642  20557038.223    20557034.668
 04  5 23 19 16 30.0000000  0  7G22G21G18G14G 3G 9G15
  20679368.293   -19725351.17144 -15141662.05342  20679369.197    20679362.779
  20854019.072    -7236507.75143  -5629670.68342  20854020.582    20854015.504
  20600740.682   -19187409.86744 -14945213.03142  20600742.460    20600737.451
  23439359.935    -6055392.81143  -4667004.95742  23439362.796    23439359.504
  22054562.015   -12306354.38543  -9552298.67142  22054563.750    22054561.234
  24395177.050    -1321666.29153  -1002160.49952  24395179.580    24395178.568
  20548424.747   -21380356.51644 -16623163.07742  20548426.092    20548422.462
 04  5 23 19 17  0.0000000  0  7G22G21G18G14G 3G 9G15
  20674876.785   -19748953.35044 -15160053.34442  20674877.737    20674871.518
  20861389.075    -7197778.27944  -5599491.90042  20861390.557    20861385.527
  20606690.364   -19156144.62744 -14920850.53442  20606692.084    20606687.046
  23418373.670    -6165672.88443  -4752937.37442  23418376.880    23418373.599
  22045720.541   -12352816.77943  -9588503.11942  22045722.259    22045719.776
  24381835.925    -1391774.23843  -1056789.96942  24381838.477    24381838.427
  20539863.972   -21425343.74544 -16658218.05042  20539865.360    20539861.640
 04  5 23 19 17 30.0000000  0  7G22G21G18G14G 3G 9G15
  20670453.905   -19772195.95144 -15178164.45642  20670454.771    20670448.619
  20868824.113    -7158707.03344  -5569046.80642  20868825.605    20868820.545
  20612699.112   -19124567.97943 -14896245.37342  20612700.905    20612695.851
  23397420.035    -6275785.75143  -4838739.52942  23397422.969    23397419.617
  22036977.893   -12398758.95343  -9624302.20842  22036979.691    22036977.271
  24368547.126    -1461601.21143  -1111200.53342  24368549.840    24368550.645
  20531356.271   -21470051.73243 -16693055.43842  20531357.683    20531353.985
 04  5 23 19 18  0.0000000  0  7G22G21G18G14G 3G 9G15
  20666095.450   -19795099.79944 -15196011.59142  20666096.311    20666090.187
  20876320.286    -7119314.29344  -5538351.19342  20876321.805    20876316.763
  20618763.199   -19092701.41144 -14871414.29742  20618764.975    20618759.832
  23376494.598    -6385749.03743  -4924425.12042  23376497.559    23376494.295
  22028330.769   -12444199.41043  -9659710.34742  22028332.679    22028330.337
  24355309.665    -1531164.16353  -1165405.36552  24355312.348    24355313.189
  20522898.156   -21514499.36844 -16727689.95242  20522899.536    20522895.882
 04  5 23 19 18 30.0000000  0  7G22G21G18G14G 3G 9G15
  20661803.438   -19817653.45044 -15213585.86042  20661804.381    20661798.399
  20883879.980    -7079588.02544  -5507395.67542  20883881.494    20883876.466
  20624884.371   -19060534.63344 -14846349.29842  20624886.147    20624880.928
  23355600.520    -6495548.02843  -5009982.72642  23355603.279    23355600.337
  22019781.768   -12489124.76443  -9694717.10342  22019783.669    22019781.330
  24342125.558    -1600447.97943  -1219392.69442  24342128.207    24342128.655
  20514492.160   -21558673.13744 -16762111.06542  20514493.516    20514489.918
 04  5 23 19 19  0.0000000  0  7G22G21G18G14G 3G 9G15
  20657577.639   -19839860.56244 -15230890.09442  20657578.506    20657572.506
  20891502.663    -7039530.41844  -5476181.98442  20891504.198    20891499.205
  20631061.922   -19028071.57344 -14821053.42242  20631063.690    20631058.426
  23334737.674    -6605183.09043  -5095412.54342  23334740.236    23334737.436
  22011330.565   -12533536.20243  -9729323.41442  22011332.452    22011330.074
  24328994.316    -1669452.19743  -1273162.12642  24328996.905    24328997.503
  20506137.986   -21602574.49543 -16796319.90542  20506139.342    20506135.782
 04  5 23 19 19 30.0000000  0  7G22G21G18G14G 3G 9G15
  20653417.712   -19861721.37944 -15247924.49742  20653418.581    20653412.495
  20899188.538    -6999141.29744  -5444709.97342  20899190.042    20899185.023
  20637295.587   -18995313.66844 -14795527.80042  20637297.340    20637292.034
  23313906.531    -6714651.27343  -5180712.29342  23313909.195    23313906.439
  22002977.576   -12577432.29343  -9763528.14842  22002979.393    22002976.931
  24315917.426    -1738173.34043  -1326710.97842  24315919.677    24315919.957
  20497835.990   -21646201.93344 -16830315.30342  20497837.323    20497833.735
 04  5 23 19 20  0.0000000  0  7G22G21G18G14G 3G 9G15
  20649324.558   -19883231.34844 -15264685.49542  20649325.389    20649319.226
  20906938.426    -6958415.36043  -5412975.50542  20906939.920    20906934.906
  20643586.064   -18962256.90244 -14769769.30542  20643587.829    20643582.563
  23293108.611    -6823944.79643  -5265875.99542  23293111.319    23293108.435
  21994723.792   -12620806.21343  -9797325.98442  21994725.619    21994723.072
  24302894.934    -1806603.13453  -1380032.81352  24302897.289    24302897.856
  20489587.358   -21689548.83643 -16864092.11142  20489588.717    20489585.085
 04  5 23 19 20 30.0000000  0  7G22G21G18G14G 3G 9G15
  20645296.045   -19904400.47643 -15281180.92442  20645296.916    20645290.860
  20914750.727    -6917361.77243  -5380985.72542  20914752.194    20914747.153
  20649931.443   -18928911.68544 -14743786.05942  20649933.191    20649927.986
  23272342.548    -6933070.29543  -5350908.76742  23272345.303    23272342.602
  21986567.948   -12663665.69743  -9830722.97042  21986569.741    21986567.183
  24289927.828    -1874747.51943  -1433132.26542  24289930.115    24289930.256
  20481390.589   -21732623.03643 -16897656.40842  20481391.918    20481388.380
 04  5 23 19 21  0.0000000  0  7G22G21G18G14G 3G 9G15
  20641333.590   -19925223.62544 -15297406.74842  20641334.401    20641328.337
  20922626.460    -6875974.42844  -5348735.88842  20922627.968    20922622.958
  20656332.463   -18895274.01544 -14717574.90342  20656334.221    20656329.047
  23251610.168    -7042019.40943  -5435804.08142  23251612.850    23251610.295
  21978511.414   -12706003.56143  -9863713.50242  21978513.178    21978510.409
  24277016.610    -1942597.52243  -1486002.32842  24277018.936    24277018.628
  20473247.111   -21775417.49344 -16931002.73542  20473248.389    20473244.917
 04  5 23 19 21 30.0000000  0  7G22G21G18G14G 3G 9G15
  20637436.635   -19945701.91344 -15313363.85542  20637437.488    20637431.351
  20930565.693    -6834253.93243  -5316226.44042  20930567.188    20930562.202
  20662788.784   -18861345.71344 -14691137.27942  20662790.566    20662785.434
  23230911.641    -7150790.21543  -5520560.48242  23230914.290    23230911.499
  21970554.336   -12747818.96243  -9896296.92642  21970556.079    21970552.918
  24264161.493    -2010150.53743  -1538641.00042  24264163.848    24264163.189
  20465156.960   -21817931.47043 -16964130.51842  20465158.228    20465154.826
 04  5 23 19 22  0.0000000  0  7G22G21G18G14G 3G 9G15
  20633605.563   -19965834.63144 -15329051.67442  20633606.370    20633600.059
  20938568.632    -6792198.34844  -5283455.89042  20938570.120    20938565.187
  20669300.531   -18827126.74544 -14664473.15742  20669302.298    20669297.097
  23210247.852    -7259378.46343  -5605174.58042  23210250.432    23210247.868
  21962697.068   -12789109.02343  -9928470.97942  21962698.864    21962695.458
  24251363.699    -2077402.21143  -1591044.81642  24251366.024    24251365.508
  20457120.734   -21860161.93043 -16997037.36142  20457122.021    20457118.664
 04  5 23 19 22 30.0000000  0  7G22G21G18G14G 3G 9G15
  20629839.145   -19985627.29044 -15344474.53842  20629840.013    20629833.663
  20946634.360    -6749812.67744  -5250428.12842  20946635.857    20946630.941
  20675866.292   -18792623.38844 -14637587.43742  20675868.072    20675862.902
  23189618.610    -7367786.38543  -5689648.21842  23189620.973    23189618.540
  21954939.136   -12829877.21343  -9960238.37142  21954941.003    21954937.343
  24238623.150    -2144354.08443  -1643215.00842  24238625.668    24238624.958
  20449137.843   -21902112.25443 -17029725.92742  20449139.088    20449135.833
 04  5 23 19 23  0.0000000  0  7G22G21G18G14G 3G 9G15
  20626138.504   -20005074.92044 -15359628.53842  20626139.361    20626132.947
  20954764.104    -6707091.01943  -5217138.57342  20954765.552    20954760.625
  20682487.009   -18757831.31344 -14610476.74942  20682488.791    20682483.604
  23169024.969    -7476005.72443  -5773974.86442  23169027.221    23169024.947
  21947281.862   -12870116.67443  -9991593.76542  21947283.734    21947279.969
  24225941.263    -2210997.16043  -1695144.60742  24225943.586    24225943.142
  20441209.622   -21943775.34743 -17062190.66742  20441210.843    20441207.648
 04  5 23 19 23 30.0000000  0  7G22G21G18G14G 3G 9G15
  20622502.801   -20024180.50644 -15374515.99942  20622503.702    20622497.136
  20962957.246    -6664035.65644  -5183588.97242  20962958.731    20962953.756
  20689161.976   -18722754.19843 -14583143.96842  20689163.752    20689158.544
  23148467.247    -7584036.35643  -5858154.50642  23148469.568    23148467.345
  21939725.043   -12909828.35943 -10022537.92642  21939726.890    21939723.316
  24213318.553    -2277330.70943  -1746833.03642  24213320.812    24213319.960
  20433335.812   -21985152.47044 -17094432.56742  20433337.045    20433333.848
 04  5 23 19 24  0.0000000  0  7G22G21G18G14G 3G 9G15
  20618932.294   -20042943.72444 -15389136.69042  20618933.172    20618926.493
  20971214.064    -6620645.51043  -5149778.50342  20971215.555    20971210.707
  20695890.953   -18687392.82044 -14555589.66342  20695892.772    20695887.611
  23127946.290    -7691874.69643  -5942184.26242  23127948.572    23127946.349
  21932268.948   -12949009.86043 -10053068.93942  21932270.889    21932267.448
  24200755.469    -2343350.62743  -1798277.00242  24200757.631    24200756.692
  20425516.904   -22026240.98743 -17126449.58742  20425518.149    20425514.929
 04  5 23 19 24 30.0000000  0  8G22G21G18G14G 3G 9G19G15
  20615426.972   -20061364.15244 -15403490.26742  20615427.834    20615421.250
  20979534.981    -6576919.36044  -5115706.20542  20979536.453    20979531.523
  20702674.135   -18651747.16644 -14527813.86342  20702675.876    20702670.809
  23107462.298    -7799517.03843  -6026061.32742  23107464.879    23107462.641
  21924914.312   -12987658.82443 -10083184.98642  21924916.253    21924912.949
  24188252.629    -2409052.58543  -1849473.25942  24188254.943    24188254.079
  24323817.496    -1591917.11953  -1206041.73052  24323819.234    24323815.489
  20417753.397   -22067038.33943 -17158239.73842  20417754.633    20417751.417
 04  5 23 19 25  0.0000000  0  8G22G21G18G14G 3G 9G19G15
  20611986.012   -20079446.35844 -15417580.28142  20611986.887    20611980.365
  20987919.176    -6532860.53644  -5081374.69542  20987920.689    20987915.655
  20709510.438   -18615822.26044 -14499820.43542  20709512.205    20709507.103
  23087015.685    -7906963.99643  -6109786.18242  23087018.114    23087016.045
  21917660.528   -13025777.27043 -10112887.68542  21917662.473    21917659.502
  24175810.436    -2474436.87143  -1900421.97742  24175812.678    24175812.040
  24305665.700    -1687306.21843  -1280370.83242  24305667.400    24305663.096
  20410044.900   -22107546.56343 -17189804.59442  20410046.140    20410042.834
 04  5 23 19 25 30.0000000  0  8G22G21G18G14G 3G 9G19G15
  20608609.343   -20097190.33944 -15431406.75942  20608610.234    20608603.750
  20996366.753    -6488468.44743  -5046783.49042  20996368.318    20996363.161
  20716399.749   -18579618.99444 -14471610.11042  20716401.507    20716396.356
  23066606.767    -8014212.76743  -6193356.57642  23066609.260    23066607.191
  21910508.194   -13063363.38943 -10142175.57342  21910510.097    21910507.265
  24163429.441    -2539500.11043  -1951120.51142  24163431.723    24163430.852
  24287559.574    -1782455.21443  -1354512.85942  24287561.381    24287556.592
  20402391.782   -22147763.93544 -17221142.80042  20402393.038    20402389.661
 04  5 23 19 26  0.0000000  0  9G22G21G18G14G 3G 9G26G19G15
  20605297.521   -20114594.04744 -15444968.08542  20605298.430    20605291.939
  21004878.229    -6443740.75344  -5011930.78142  21004879.798    21004874.644
  20723342.162   -18543136.23744 -14443181.99942  20723344.006    20723338.785
  23046236.775    -8121258.37143  -6276768.65342  23046239.104    23046236.813
  21903457.480   -13100413.96043 -10171046.11842  21903459.424    21903457.027
  24151110.307    -2604236.59143  -2001564.42842  24151112.725    24151111.692
  24421821.463
  24269499.477    -1877359.24143  -1428464.00042  24269501.520    24269496.684
  20394794.818   -22187686.55344 -17252251.31442  20394796.089    20394792.628
 04  5 23 19 26 30.0000000  0  8G22G21G18G14G 3G 9G19G15
  20602050.043   -20131660.37044 -15458266.50942  20602050.916    20602044.418
  21013453.118    -6398679.21544  -4976817.94242  21013454.726    21013449.586
  20730337.256   -18506377.05844 -14414538.51242  20730339.093    20730333.866
  23025905.487    -8228099.98443  -6360021.73742  23025907.884    23025905.215
  21896508.736   -13136929.47943 -10199499.77642  21896510.546    21896508.382
  24138853.669    -2668644.97743  -2051752.65542  24138856.076    24138855.265
  24251486.356    -1972017.57943  -1502223.70242  24251488.245    24251483.536
  20387253.763   -22227315.04344 -17283130.64742  20387255.041    20387251.584
 04  5 23 19 27  0.0000000  0  8G22G21G18G14G 3G 9G19G15
  20598866.314   -20148391.17744 -15471303.50142  20598867.197    20598860.695
  21022091.482    -6353284.26944  -4941445.29042  21022093.093    21022088.016
  20737384.384   -18469344.04044 -14385681.62842  20737386.254    20737381.037
  23005613.294    -8334736.07243  -6443114.71242  23005615.620    23005613.032
  21889661.978   -13172909.48743 -10227536.11942  21889663.771    21889661.357
  24126659.934    -2732723.11443  -2101683.60742  24126662.258    24126661.850
  24233520.113    -2066428.49943  -1575790.58742  24233522.038    24233517.744
  20379768.896   -22266648.56244 -17313780.13042  20379770.168    20379766.710
